[[{"header":{"parameterUnit":"m.s-1","parameterCategory":1,"la1":30.6,"la2":29.2853,"lo1":-89.7004,"lo2":-87.6739,"dx":0.0162,"dy":0.0183,"nx":112,"ny":82,"refTime":"2022-12-20T00:00:00:Z","depth":0,"parameterNumber":2,"parameterNumberName":"U-component_of_WINDS"},"data":[0.0,0.0,0.0,0.0,0.0,0.0,0.0,0.0,0.0,0.0,0.0,0.0,0.0,0.0,0.0,0.0,0.0,0.0,0.0,0.0,0.0,0.0,0.0,0.0,0.0,0.0,0.0,0.0,0.0,0.0,0.0,0.0,0.0,0.0,0.0,0.0,0.0,0.0,0.0,0.0,0.0,0.0,0.0,0.0,0.0,0.0,0.0,0.0,0.0,0.0,0.0,0.0,0.0,0.0,0.0,0.0,0.0,0.0,0.0,0.0,0.0,0.0,0.0,0.0,0.0,0.0,0.0,0.0,0.0,0.0,0.0,0.0,0.0,0.0,0.0,0.0,0.0,0.0,0.0,0.0,0.0,0.0,0.0,0.0,0.0,0.0,0.0,0.0,0.0,0.0,4.2346,4.2484,4.5781,4.7819,4.7211,4.6864,4.2881,3.4229,0.0,0.0,0.0,0.0,0.0,0.0,0.0,0.0,0.0,0.0,0.0,0.0,0.0,0.0,0.0,0.0,0.0,0.0,0.0,0.0,0.0,0.0,0.0,0.0,0.0,0.0,0.0,0.0,0.0,0.0,0.0,0.0,0.0,0.0,0.0,0.0,0.0,0.0,0.0,0.0,0.0,0.0,0.0,0.0,0.0,0.0,0.0,0.0,0.0,0.0,0.0,0.0,0.0,0.0,0.0,0.0,0.0,0.0,0.0,0.0,0.0,0.0,0.0,0.0,0.0,0.0,0.0,0.0,0.0,0.0,0.0,0.0,0.0,0.0,0.0,0.0,0.0,0.0,0.0,0.0,0.0,0.0,0.0,0.0,0.0,0.0,0.0,0.0,0.0,0.0,0.0,0.0,0.0,0.0,0.0,0.0,0.0,0.0,0.0,0.0,0.0,0.0,0.0,0.0,4.3153,4.7734,4.918,4.8591,4.5627,4.533,4.1248,3.1637,0.0,0.0,0.0,0.0,0.0,0.0,0.0,0.0,0.0,0.0,0.0,0.0,0.0,0.0,0.0,0.0,0.0,0.0,0.0,0.0,0.0,0.0,0.0,0.0,0.0,0.0,0.0,0.0,0.0,0.0,0.0,0.0,0.0,0.0,0.0,0.0,0.0,0.0,0.0,0.0,0.0,0.0,0.0,0.0,0.0,0.0,0.0,0.0,0.0,0.0,0.0,0.0,0.0,0.0,0.0,0.0,0.0,0.0,0.0,0.0,0.0,0.0,0.0,0.0,0.0,0.0,0.0,0.0,0.0,0.0,0.0,0.0,0.0,0.0,0.0,0.0,0.0,0.0,0.0,0.0,0.0,0.0,0.0,0.0,0.0,0.0,0.0,0.0,0.0,0.0,0.0,0.0,0.0,0.0,0.0,0.0,0.0,0.0,0.0,0.0,0.0,0.0,0.0,4.223,4.5137,5.0039,4.9224,4.7743,4.6398,4.4115,3.9616,3.2094,3.1353,0.0,0.0,0.0,0.0,0.0,0.0,0.0,0.0,0.0,0.0,0.0,0.0,0.0,0.0,0.0,0.0,0.0,0.0,0.0,0.0,0.0,0.0,0.0,0.0,0.0,0.0,0.0,0.0,0.0,0.0,0.0,0.0,0.0,0.0,0.0,0.0,0.0,0.0,0.0,0.0,0.0,0.0,0.0,0.0,0.0,0.0,0.0,0.0,0.0,0.0,0.0,0.0,0.0,0.0,0.0,0.0,0.0,0.0,0.0,0.0,0.0,0.0,0.0,0.0,0.0,0.0,0.0,0.0,0.0,0.0,0.0,0.0,0.0,0.0,0.0,0.0,0.0,0.0,0.0,0.0,0.0,0.0,0.0,0.0,0.0,0.0,0.0,0.0,0.0,0.0,0.0,0.0,0.0,0.0,0.0,0.0,0.0,0.0,0.0,0.0,0.0,0.0,4.4501,4.6542,4.9437,4.7582,4.593,4.5552,4.241,3.7852,3.1915,3.0188,0.0,0.0,0.0,0.0,0.0,0.0,0.0,0.0,0.0,0.0,0.0,0.0,0.0,0.0,0.0,0.0,0.0,0.0,0.0,0.0,0.0,0.0,0.0,0.0,0.0,0.0,0.0,0.0,0.0,0.0,0.0,0.0,0.0,0.0,0.0,0.0,0.0,0.0,0.0,0.0,0.0,0.0,0.0,0.0,0.0,0.0,0.0,0.0,0.0,0.0,0.0,0.0,0.0,0.0,0.0,0.0,0.0,0.0,0.0,0.0,0.0,0.0,0.0,0.0,0.0,0.0,0.0,0.0,0.0,0.0,0.0,0.0,0.0,0.0,0.0,0.0,0.0,0.0,0.0,0.0,0.0,0.0,0.0,0.0,0.0,0.0,0.0,0.0,0.0,0.0,0.0,0.0,0.0,0.0,0.0,0.0,0.0,0.0,0.0,0.0,0.0,0.0,4.4454,4.6434,4.4846,4.4499,4.3203,4.0141,3.9305,3.608,2.9276,2.7958,0.0,0.0,0.0,0.0,0.0,0.0,0.0,0.0,0.0,0.0,0.0,0.0,0.0,0.0,0.0,0.0,0.0,0.0,0.0,0.0,0.0,0.0,0.0,0.0,0.0,0.0,0.0,0.0,0.0,0.0,0.0,0.0,0.0,0.0,0.0,0.0,0.0,0.0,0.0,0.0,0.0,0.0,0.0,0.0,0.0,0.0,0.0,0.0,0.0,0.0,0.0,0.0,0.0,0.0,0.0,0.0,0.0,0.0,0.0,0.0,0.0,0.0,0.0,0.0,0.0,0.0,0.0,0.0,0.0,0.0,0.0,0.0,0.0,0.0,0.0,0.0,0.0,0.0,0.0,0.0,0.0,0.0,0.0,0.0,0.0,0.0,0.0,0.0,0.0,0.0,0.0,0.0,0.0,0.0,0.0,0.0,0.0,0.0,0.0,0.0,0.0,0.0,4.3798,4.5737,0.0,4.329,4.1681,4.0694,3.8087,3.4416,2.9494,0.0,0.0,0.0,0.0,0.0,0.0,0.0,0.0,0.0,0.0,0.0,0.0,0.0,0.0,0.0,0.0,0.0,0.0,0.0,0.0,0.0,0.0,0.0,0.0,0.0,0.0,0.0,0.0,0.0,0.0,0.0,0.0,0.0,0.0,0.0,0.0,0.0,0.0,0.0,0.0,0.0,0.0,0.0,0.0,0.0,0.0,0.0,0.0,0.0,0.0,0.0,0.0,0.0,0.0,0.0,0.0,0.0,0.0,0.0,0.0,0.0,0.0,0.0,0.0,0.0,0.0,0.0,0.0,0.0,0.0,0.0,0.0,0.0,0.0,0.0,0.0,0.0,0.0,0.0,0.0,0.0,0.0,0.0,0.0,0.0,0.0,0.0,0.0,0.0,0.0,0.0,0.0,0.0,0.0,0.0,0.0,0.0,0.0,0.0,0.0,0.0,0.0,3.9842,4.2301,4.3566,0.0,4.0892,3.9762,3.9886,3.7038,3.3654,2.9726,0.0,0.0,0.0,0.0,0.0,0.0,0.0,0.0,0.0,0.0,0.0,0.0,0.0,0.0,0.0,0.0,0.0,0.0,0.0,0.0,0.0,0.0,0.0,0.0,0.0,0.0,0.0,0.0,0.0,0.0,0.0,0.0,0.0,0.0,0.0,0.0,0.0,0.0,0.0,0.0,0.0,0.0,0.0,0.0,0.0,0.0,0.0,0.0,0.0,0.0,0.0,0.0,0.0,0.0,0.0,0.0,0.0,0.0,0.0,0.0,0.0,0.0,0.0,0.0,0.0,0.0,0.0,0.0,0.0,0.0,0.0,0.0,0.0,0.0,0.0,0.0,0.0,0.0,0.0,0.0,0.0,0.0,0.0,0.0,0.0,0.0,0.0,0.0,0.0,0.0,0.0,0.0,0.0,0.0,0.0,0.0,0.0,0.0,0.0,0.0,0.0,0.0,3.8396,3.9893,3.9936,3.7162,3.7195,3.7155,3.658,3.5979,3.3881,0.0,0.0,0.0,0.0,0.0,0.0,0.0,0.0,0.0,0.0,0.0,0.0,0.0,0.0,0.0,0.0,0.0,0.0,0.0,0.0,0.0,0.0,0.0,0.0,0.0,0.0,0.0,0.0,0.0,0.0,0.0,0.0,0.0,0.0,0.0,0.0,0.0,0.0,0.0,0.0,0.0,0.0,0.0,0.0,0.0,0.0,0.0,0.0,0.0,0.0,0.0,0.0,0.0,0.0,0.0,0.0,0.0,0.0,0.0,0.0,0.0,0.0,0.0,0.0,0.0,0.0,0.0,0.0,0.0,0.0,0.0,0.0,0.0,0.0,0.0,0.0,0.0,0.0,0.0,0.0,0.0,0.0,0.0,0.0,0.0,0.0,0.0,0.0,0.0,0.0,0.0,0.0,0.0,0.0,0.0,0.0,0.0,0.0,0.0,0.0,0.0,0.0,0.0,3.6872,3.9658,4.0698,3.7794,3.7635,3.7529,3.7168,3.6754,3.5216,3.2318,0.0,0.0,0.0,0.0,0.0,0.0,0.0,0.0,0.0,0.0,0.0,0.0,0.0,0.0,0.0,0.0,0.0,0.0,0.0,0.0,0.0,0.0,0.0,0.0,0.0,0.0,0.0,0.0,0.0,0.0,0.0,0.0,0.0,0.0,0.0,0.0,0.0,0.0,0.0,0.0,0.0,0.0,0.0,0.0,0.0,0.0,0.0,0.0,0.0,0.0,0.0,0.0,0.0,0.0,0.0,0.0,0.0,0.0,0.0,0.0,0.0,0.0,0.0,0.0,0.0,0.0,0.0,0.0,0.0,0.0,0.0,0.0,0.0,0.0,0.0,0.0,0.0,0.0,0.0,0.0,0.0,0.0,0.0,0.0,0.0,0.0,0.0,0.0,0.0,0.0,0.0,0.0,0.0,0.0,0.0,0.0,0.0,0.0,0.0,0.0,0.0,0.0,3.6341,3.8802,3.9827,3.8036,3.7929,3.7889,3.7569,3.7088,3.6262,3.5212,0.0,0.0,0.0,0.0,0.0,0.0,0.0,0.0,0.0,0.0,0.0,0.0,0.0,0.0,0.0,0.0,0.0,0.0,0.0,0.0,0.0,0.0,0.0,0.0,0.0,0.0,0.0,0.0,0.0,0.0,0.0,0.0,0.0,0.0,0.0,0.0,0.0,0.0,0.0,0.0,0.0,0.0,0.0,0.0,0.0,0.0,0.0,0.0,0.0,0.0,0.0,0.0,0.0,0.0,0.0,0.0,0.0,0.0,0.0,0.0,0.0,0.0,0.0,0.0,0.0,0.0,0.0,0.0,0.0,0.0,0.0,0.0,0.0,0.0,0.0,0.0,0.0,0.0,0.0,0.0,0.0,0.0,0.0,0.0,0.0,0.0,0.0,0.0,0.0,0.0,0.0,0.0,0.0,0.0,0.0,0.0,0.0,0.0,0.0,0.0,0.0,0.0,3.6265,3.7574,3.8183,3.7929,3.8143,3.8183,3.7889,3.7088,3.709,3.8354,0.0,0.0,0.0,0.0,0.0,0.0,0.0,0.0,0.0,0.0,0.0,0.0,0.0,0.0,0.0,0.0,0.0,0.0,0.0,0.0,0.0,0.0,0.0,0.0,0.0,0.0,0.0,0.0,0.0,0.0,0.0,0.0,0.0,0.0,0.0,0.0,0.0,0.0,0.0,0.0,0.0,0.0,0.0,0.0,0.0,0.0,0.0,0.0,0.0,0.0,0.0,0.0,0.0,0.0,0.0,0.0,0.0,0.0,0.0,0.0,3.4666,3.2126,0.0,0.0,0.0,0.0,0.0,0.0,0.0,0.0,0.0,0.0,0.0,0.0,0.0,0.0,0.0,0.0,0.0,0.0,0.0,0.0,0.0,0.0,0.0,0.0,0.0,0.0,0.0,0.0,0.0,0.0,0.0,0.0,0.0,0.0,0.0,0.0,0.0,0.0,0.0,0.0,3.4821,3.7097,3.8611,3.8544,3.8584,3.8504,3.8183,3.7782,3.8395,4.0522,3.8956,0.0,0.0,0.0,0.0,0.0,0.0,0.0,0.0,0.0,0.0,0.0,0.0,0.0,0.0,0.0,0.0,0.0,0.0,0.0,0.0,0.0,0.0,0.0,0.0,0.0,0.0,0.0,0.0,0.0,0.0,0.0,0.0,0.0,0.0,0.0,0.0,0.0,0.0,0.0,0.0,0.0,0.0,0.0,0.0,0.0,0.0,0.0,0.0,0.0,0.0,0.0,0.0,0.0,0.0,0.0,0.0,0.0,0.0,0.0,3.9604,3.8412,0.0,0.0,0.0,0.0,0.0,0.0,0.0,0.0,0.0,0.0,0.0,0.0,0.0,0.0,0.0,0.0,0.0,0.0,0.0,0.0,0.0,0.0,0.0,0.0,0.0,0.0,0.0,0.0,0.0,0.0,0.0,0.0,0.0,0.0,0.0,0.0,0.0,0.0,0.0,0.0,3.4452,3.6981,3.8718,3.8718,3.8718,3.8651,3.8504,3.7929,3.9398,4.3591,4.113,0.0,0.0,0.0,0.0,0.0,0.0,0.0,0.0,0.0,0.0,0.0,0.0,0.0,0.0,0.0,0.0,0.0,0.0,0.0,0.0,0.0,0.0,0.0,0.0,0.0,0.0,0.0,0.0,0.0,0.0,0.0,0.0,0.0,0.0,0.0,0.0,0.0,0.0,0.0,0.0,0.0,0.0,0.0,0.0,0.0,0.0,0.0,0.0,0.0,0.0,0.0,0.0,0.0,3.6742,3.7226,3.7845,4.0192,4.2765,4.5298,4.3615,4.4628,4.7051,4.2851,0.0,0.0,0.0,0.0,0.0,0.0,0.0,0.0,0.0,0.0,0.0,0.0,0.0,0.0,0.0,0.0,0.0,0.0,0.0,0.0,0.0,0.0,0.0,0.0,3.747,3.8094,0.0,0.0,0.0,0.0,0.0,0.0,0.0,0.0,0.0,0.0,0.0,0.0,3.4963,3.7342,3.8865,3.8865,3.8865,3.8838,3.8731,3.7996,4.0006,4.5927,4.2863,4.2872,0.0,0.0,0.0,0.0,0.0,0.0,0.0,0.0,0.0,0.0,0.0,0.0,0.0,0.0,0.0,0.0,0.0,0.0,0.0,0.0,0.0,0.0,0.0,0.0,0.0,0.0,0.0,0.0,0.0,0.0,0.0,0.0,2.6827,2.7068,0.0,0.0,0.0,0.0,0.0,0.0,0.0,0.0,0.0,0.0,0.0,0.0,0.0,4.0943,4.3186,4.1711,4.1292,4.2033,4.0885,4.1816,4.441,4.246,4.4532,4.9394,4.876,0.0,4.9023,4.6875,0.0,0.0,0.0,0.0,0.0,0.0,0.0,0.0,0.0,0.0,0.0,0.0,0.0,0.0,0.0,0.0,0.0,0.0,0.0,0.0,0.0,0.0,3.9063,3.6854,3.6801,3.7033,0.0,3.5792,3.4679,3.2902,3.3588,0.0,0.0,0.0,0.0,0.0,0.0,0.0,3.6433,3.8317,3.9493,3.9493,3.9493,3.9265,3.8758,3.837,4.0362,4.5693,4.4791,4.5726,4.9075,4.7754,0.0,0.0,0.0,0.0,0.0,0.0,0.0,0.0,0.0,0.0,0.0,0.0,0.0,0.0,0.0,0.0,0.0,0.0,0.0,0.0,0.0,0.0,0.0,0.0,0.0,0.0,0.0,0.0,0.0,2.6841,2.8696,3.0524,2.8909,2.8163,0.0,0.0,0.0,0.0,0.0,0.0,0.0,0.0,0.0,4.1286,4.1558,4.2162,4.3101,4.2601,4.1855,4.0868,4.0378,4.0946,4.2301,4.2563,4.4162,4.6567,4.7616,4.8965,5.0165,4.9164,4.7754,4.5976,0.0,0.0,0.0,0.0,4.1348,4.1875,4.4082,4.5254,4.5703,4.5351,0.0,0.0,0.0,0.0,0.0,0.0,0.0,0.0,0.0,0.0,3.9466,3.8267,3.8103,3.817,3.817,3.7839,3.6885,0.0,3.4293,3.3558,3.025,0.0,0.0,0.0,0.0,3.638,3.7301,3.8544,3.9346,3.9346,3.9199,3.9012,3.8758,3.8437,3.984,4.3518,4.4861,4.6611,4.9182,4.8723,4.6601,0.0,0.0,0.0,0.0,0.0,0.0,0.0,0.0,0.0,0.0,0.0,0.0,0.0,0.0,0.0,0.0,0.0,0.0,0.0,0.0,0.0,0.0,0.0,0.0,0.0,0.0,0.0,0.0,2.8457,3.0554,3.2912,3.1333,3.0863,0.0,0.0,0.0,0.0,0.0,0.0,3.568,3.7601,3.9949,4.2835,4.2964,4.3022,4.2938,4.2613,4.139,3.9265,3.9559,3.9666,3.9691,4.1652,4.2961,4.365,4.5291,4.7495,4.9937,5.0127,4.978,4.9023,4.7207,4.5703,4.4629,4.5156,4.5644,4.6279,4.7842,4.8651,4.8824,4.8061,4.5757,4.2818,4.1015,0.0,0.0,0.0,0.0,3.8605,3.8905,3.9451,3.9729,3.9497,3.9493,3.9493,3.9493,3.9372,3.8571,0.0,3.5658,3.495,3.3013,0.0,0.0,0.0,0.0,3.7929,3.8437,3.9092,3.9452,3.9372,3.9118,3.8878,3.8731,3.8504,3.9425,4.1977,4.4566,4.7054,4.9268,4.9904,4.9219,4.7168,0.0,0.0,0.0,0.0,0.0,0.0,0.0,0.0,0.0,0.0,0.0,0.0,0.0,0.0,0.0,0.0,0.0,0.0,0.0,0.0,0.0,0.0,0.0,0.0,0.0,0.0,0.0,0.0,0.0,3.2633,3.3474,0.0,0.0,0.0,0.0,3.4607,3.6823,3.9356,4.2265,4.2647,4.402,4.687,4.4347,4.3366,4.3982,4.1451,3.9959,3.9559,3.988,3.9853,3.9599,3.9705,4.1123,4.3464,4.352,4.5037,4.7511,4.937,5.0903,5.1797,5.0879,4.9707,4.8672,4.9531,5.0117,5.0339,4.9368,4.9121,4.8609,4.5886,4.3925,4.2583,4.1858,3.9806,0.0,0.0,3.8269,3.7417,3.937,3.9959,4.0066,4.0334,4.0401,4.0401,4.0401,3.996,3.9372,0.0,3.8718,3.8424,3.6901,0.0,3.7635,3.7569,3.8183,3.9052,4.0187,4.0374,4.0294,4.0027,3.9746,3.9346,3.8758,3.8718,3.9688,4.1911,4.4914,4.7687,5.0094,5.2466,5.2383,4.9433,4.7988,0.0,0.0,0.0,0.0,0.0,0.0,0.0,0.0,0.0,0.0,0.0,0.0,0.0,0.0,0.0,0.0,0.0,0.0,0.0,0.0,0.0,0.0,0.0,0.0,0.0,0.0,0.0,0.0,3.4911,3.4588,0.0,3.6675,3.741,3.7554,3.7373,3.9568,4.0765,4.0186,4.0215,4.0786,4.1906,4.1221,4.1061,4.1493,4.0804,4.0548,4.0441,4.0722,4.0722,4.0441,4.0254,4.0572,4.1208,4.1013,4.2571,4.5248,4.5676,4.7093,4.8855,4.8438,4.7984,4.753,4.7669,4.7878,4.7949,4.7536,4.7387,4.6936,4.4475,4.3265,4.2611,4.0863,3.9785,3.9315,3.9738,3.9677,3.9666,4.0401,4.0869,4.1203,4.1283,4.1456,4.1603,4.1603,4.1416,4.1229,4.1016,4.0147,3.9159,3.825,3.9052,3.9559,3.8798,3.9666,4.0508,4.0722,4.0588,4.0361,4.0067,3.9773,3.9519,3.9306,3.9118,3.9276,3.9875,4.4296,4.7206,4.7812,5.2077,5.3808,5.2461,5.168,4.8711,0.0,0.0,0.0,0.0,0.0,0.0,0.0,0.0,0.0,0.0,0.0,0.0,0.0,0.0,0.0,0.0,0.0,0.0,0.0,0.0,0.0,0.0,0.0,0.0,0.0,3.2973,3.5183,3.6147,3.5987,3.6624,3.8702,3.9102,3.9149,3.8839,4.0546,4.0911,3.941,3.9306,3.9493,3.988,4.0,4.0187,4.0468,4.0949,4.1163,4.1056,4.135,4.135,4.1056,4.0869,4.0655,4.0468,4.0281,4.1362,4.3083,4.2867,4.3709,4.5357,4.6446,4.6965,4.6915,4.6702,4.673,4.651,4.5628,4.463,4.3682,4.2365,4.192,4.18,4.0572,4.0321,4.0508,4.0722,4.1056,4.1376,4.1456,4.179,4.2111,4.2218,4.2365,4.2512,4.2512,4.2512,4.2512,4.2512,4.1416,4.0361,3.996,4.0802,4.1096,3.992,4.0829,4.1376,4.0695,4.0548,4.0361,4.0067,3.9773,3.9599,3.9599,3.9052,3.8758,3.8865,4.3845,4.6769,4.6769,5.1424,5.3808,5.3379,5.293,5.0234,4.5215,0.0,0.0,0.0,0.0,0.0,0.0,0.0,0.0,0.0,0.0,0.0,0.0,0.0,0.0,0.0,0.0,0.0,0.0,0.0,0.0,0.0,0.0,0.0,3.3641,3.4803,3.5859,3.6166,3.7702,3.8544,3.7956,3.8437,3.8905,3.9199,3.9493,3.9893,4.0481,4.0508,4.0762,4.1336,4.1056,4.1056,4.1336,4.1644,4.1644,4.135,4.167,4.1644,4.135,4.135,4.1336,4.1336,4.1336,4.1336,4.1336,4.1336,4.1336,4.1656,4.5511,4.6943,4.6943,4.6943,4.6943,4.6623,4.383,4.1227,3.9148,3.9559,3.9853,4.0254,4.1122,4.1376,4.1483,4.2071,4.2258,4.2298,4.2592,4.2699,4.2766,4.306,4.3127,4.3127,4.3127,4.3127,4.3127,4.31,4.2659,4.2258,4.2218,4.2472,4.2258,4.1122,4.167,0.0,4.0281,4.0334,4.0401,4.0067,3.9786,3.9599,3.9599,3.8544,3.825,3.9118,4.3727,4.653,4.7005,5.0749,5.2617,5.2187,5.168,5.0371,4.8242,0.0,0.0,0.0,0.0,0.0,0.0,0.0,0.0,0.0,0.0,0.0,0.0,0.0,0.0,0.0,0.0,0.0,0.0,0.0,0.0,0.0,3.483,3.5859,3.5418,3.6981,3.8357,3.8865,3.9559,4.0,4.0067,4.0214,4.0428,4.0722,4.0615,4.0722,4.1082,4.1096,4.1163,4.1336,4.1269,4.1269,4.1336,4.1644,4.175,4.167,4.1964,4.1924,4.167,4.167,4.1563,4.1336,4.1336,4.1336,4.1336,4.1336,4.1336,4.138,4.2231,4.2657,4.2615,4.2388,4.2317,4.2185,4.1499,4.0746,4.0214,4.0949,4.1243,4.1456,4.2325,4.2472,4.2365,4.2766,4.2699,4.2619,4.2913,4.3127,4.3314,4.338,4.3594,4.3754,4.3754,4.3754,4.3674,4.3461,4.3273,4.302,4.2619,4.2619,4.2472,4.1924,4.2071,0.0,4.1376,4.139,4.1056,4.0134,3.996,3.9813,3.9599,3.9092,3.9078,3.9746,4.4751,4.7693,4.7763,5.2406,5.4844,5.4433,5.2148,5.0371,0.0,0.0,0.0,0.0,0.0,0.0,0.0,0.0,0.0,0.0,0.0,0.0,0.0,0.0,0.0,0.0,0.0,0.0,0.0,0.0,0.0,0.0,3.7275,3.8437,3.8624,3.9265,3.996,4.0695,4.0802,4.0909,4.1082,4.1096,4.1163,4.1336,4.131,4.135,4.1523,4.163,4.171,4.171,4.171,4.171,4.171,4.1884,4.1964,4.1964,4.2151,4.2138,4.1964,4.1964,4.1857,4.171,4.171,4.171,4.171,4.171,4.171,0.0,0.0,0.0,0.0,0.0,4.0842,4.0842,4.0842,4.0909,4.1096,4.1603,4.1857,4.2111,4.2873,4.2886,4.2739,4.3167,4.3167,4.306,4.3233,4.3487,4.3714,4.3714,4.3861,4.4008,4.4008,4.3888,4.3741,4.3567,4.342,0.0,4.2739,4.2766,4.2619,4.1964,4.2071,4.1964,4.131,4.1456,4.135,4.0655,4.0575,4.0508,4.0361,3.9599,0.0,0.0,0.0,4.8738,5.0734,5.3791,0.0,0.0,0.0,0.0,0.0,0.0,0.0,0.0,4.7076,4.6196,0.0,0.0,0.0,0.0,0.0,0.0,0.0,0.0,0.0,0.0,0.0,0.0,0.0,0.0,0.0,0.0,3.964,4.135,4.2178,4.139,4.1029,4.1817,4.167,4.1483,4.1523,4.1523,4.1483,4.1483,4.171,4.1817,4.1817,4.2111,0.0,0.0,0.0,4.2325,4.2325,4.2325,4.2325,4.2325,4.2325,4.2325,4.2325,4.2325,4.2325,4.2325,4.2325,4.2325,4.2325,4.2325,4.2325,4.2258,4.167,4.1443,4.1443,4.1443,4.1443,4.1443,4.1443,0.0,0.0,4.1857,4.2071,4.2365,4.2913,4.2886,4.2766,4.3314,4.3461,4.3447,4.3527,4.3741,4.3968,4.4008,4.3968,4.3968,4.3968,4.3714,4.3461,4.342,4.3233,4.2953,4.2659,4.2846,4.2686,4.1603,4.1884,4.1857,4.0802,4.1122,4.1416,4.131,0.0,0.0,4.1229,4.0067,3.9666,4.0508,4.5096,4.9796,5.4387,5.4615,5.4143,5.2884,5.2923,5.3651,5.5107,5.2399,5.1236,5.147,4.7623,4.6039,0.0,0.0,0.0,0.0,0.0,0.0,0.0,0.0,0.0,0.0,0.0,0.0,0.0,0.0,0.0,3.992,4.1203,4.2178,4.2833,4.2512,4.2405,4.2806,4.2592,4.2512,4.2726,4.2552,4.2405,4.2405,4.2218,4.2138,4.2138,4.2405,4.2592,4.2592,4.2806,4.2913,4.2913,4.2913,4.2913,4.2913,4.2913,0.0,4.2913,4.2913,4.2913,4.2913,4.2913,4.2913,4.2913,4.2913,4.2913,4.2873,4.2285,4.2031,4.2031,4.2031,4.2031,4.2031,4.2031,4.2071,4.2178,4.2405,4.2512,4.2632,4.2993,4.2886,0.0,4.31,4.302,4.2953,4.342,4.3567,4.3674,4.3928,4.3821,4.3634,4.3634,4.338,4.31,4.2873,4.2766,4.2659,4.2365,4.2552,4.2592,4.2111,4.2151,4.2138,4.1924,4.1964,4.1777,4.1056,4.0989,4.0909,4.0655,4.0401,4.0508,4.1122,4.6546,5.1022,5.3895,5.4169,5.2995,4.9921,5.0063,5.0136,5.0136,4.9932,4.9622,4.9372,4.7692,4.6929,0.0,0.0,0.0,0.0,0.0,0.0,0.0,0.0,0.0,0.0,0.0,3.5939,3.7742,0.0,4.0067,4.1537,4.2405,4.298,4.3273,4.306,4.2873,4.2873,4.2619,4.2512,4.2659,4.2659,4.2592,4.2445,4.2579,4.2579,4.2445,4.2726,4.2873,4.2873,4.302,4.31,4.31,4.31,4.31,4.31,4.31,4.31,4.31,4.31,4.31,4.31,4.31,4.31,4.31,4.31,4.31,4.306,4.2766,4.2659,4.2659,4.2659,4.2659,4.2659,4.2659,4.2659,4.2686,4.2846,4.2873,4.2953,4.3233,4.31,4.2953,4.3233,4.3207,4.3167,4.3461,4.3634,4.3821,4.3968,4.3888,4.3781,4.3781,4.3527,4.3273,4.3127,4.298,4.2766,4.2472,4.2552,4.2552,4.2258,4.2218,4.2218,4.2218,4.2218,4.2031,4.1603,4.1563,4.1497,4.135,4.1203,4.1929,4.3596,4.6435,4.9385,5.2169,5.2457,5.1607,4.9606,4.9737,4.9653,4.9473,4.8125,4.7408,4.7361,4.523,4.494,0.0,0.0,0.0,0.0,0.0,0.0,0.0,3.66,3.8127,3.7542,3.7849,3.8731,4.0321,4.1203,4.1964,4.2766,4.3314,4.3594,4.3527,4.3314,4.306,4.2766,4.2472,4.2325,4.2405,4.2619,4.2659,4.2405,4.2833,4.2993,4.2766,4.302,4.3207,4.3273,4.3314,4.338,4.3461,4.3461,4.3461,4.3461,4.3461,4.3461,4.3461,4.3461,4.3461,4.3461,4.3461,4.3461,4.3461,4.3461,4.3461,4.3461,4.3461,4.3461,4.342,4.3167,4.31,4.31,4.31,4.31,4.31,4.31,4.31,4.3127,4.338,4.3273,4.3127,4.338,4.3447,4.3461,4.3527,4.3714,4.3928,4.3995,4.3968,4.3901,4.3901,4.3674,4.3447,4.3447,4.3247,4.302,4.2766,4.2739,4.2619,4.2258,4.2218,4.2218,4.2218,4.2218,4.2218,4.2218,4.2218,4.2218,4.2218,4.1964,4.3055,4.5974,4.6129,4.7299,4.9799,4.9983,4.9511,4.8562,4.8522,4.8522,4.8522,4.6028,4.4977,4.5225,4.271,4.2517,3.2652,3.2318,3.2919,3.5084,3.5885,3.6733,0.0,3.9608,3.974,4.0548,4.1056,4.1603,4.2579,4.2833,4.31,4.3754,4.3901,4.3861,4.3567,4.3487,4.338,4.31,4.2806,4.2699,4.298,4.302,4.302,4.2993,4.306,4.31,4.306,4.3314,4.3607,4.3888,4.4142,4.4409,4.4663,4.469,4.469,4.469,4.469,4.469,4.469,4.469,4.469,4.469,4.469,4.469,4.469,4.469,4.469,4.469,4.469,4.469,4.4556,4.3501,4.31,4.31,4.31,4.31,4.31,4.31,4.31,4.31,4.3127,4.3127,4.31,4.3127,4.3127,4.3207,4.3461,4.3567,4.3634,4.3928,4.3781,4.3567,4.3567,4.3354,4.3127,4.3127,4.3127,4.31,4.306,4.306,4.2873,4.2298,4.2218,4.2218,4.2218,4.2218,4.2218,4.2218,4.2218,4.2218,4.2218,4.1964,4.3331,4.6736,4.6729,4.6795,4.7147,4.7435,4.5998,4.2765,4.2928,4.3037,4.3037,4.2687,4.2575,4.2616,4.2251,4.1929,3.6099,3.6126,3.658,3.8437,3.9012,3.9493,4.0909,4.1163,4.135,4.2178,4.2472,4.2766,4.3487,4.3754,4.3968,4.4222,4.4249,4.4142,4.3861,4.3634,4.3487,4.3354,4.3233,4.3127,4.31,4.3233,4.3273,4.31,4.3567,4.3781,4.3634,4.4075,4.4369,4.4516,4.4623,4.477,4.4877,4.4877,4.4877,4.4877,4.4877,4.4877,4.4877,4.4877,4.4877,4.4877,4.4877,4.4877,4.4877,4.4877,4.4877,4.4877,4.4877,4.4877,4.481,4.4329,4.4155,4.4155,4.4155,4.4155,4.4155,4.4155,4.4155,4.4155,4.4155,4.4008,4.3888,4.3888,4.3754,4.3648,4.3781,4.3821,4.3821,4.3968,4.3888,4.3821,4.3821,4.3714,4.3634,4.3634,4.3634,4.3567,4.338,4.334,4.3207,4.2806,4.2579,4.2472,4.2472,4.2325,4.2218,4.2218,4.2218,4.2151,4.1964,4.1857,4.2375,4.3648,4.3828,4.3828,4.3828,4.4137,4.351,4.2044,4.2151,4.2218,4.2218,4.2218,4.2218,4.2218,4.2218,4.2071,3.8544,3.8905,3.9346,4.0869,4.1563,4.1924,4.2298,4.2552,4.2833,4.3247,4.3354,4.3501,4.4035,4.4289,4.4476,4.4543,4.4476,4.4369,4.4142,4.3861,4.3674,4.3674,4.3674,4.3567,4.3354,4.3607,4.3674,4.3487,4.4142,4.4476,4.4262,4.4663,4.4917,4.4984,4.4984,4.5024,4.5131,4.5131,4.5131,4.5131,4.5131,4.5131,4.5131,4.5131,4.5131,4.5104,4.5024,4.4984,4.4984,4.4917,4.4877,4.4877,4.4877,4.4877,4.4877,4.4957,4.4957,4.4877,4.4877,4.4877,4.4877,4.4877,4.4877,4.4877,4.4877,4.473,4.4543,4.4543,4.4409,4.4262,4.4262,4.4262,4.4262,4.4262,4.4182,4.4115,4.4115,4.4075,4.4008,4.4008,4.4008,4.3928,4.3714,4.3674,4.3594,4.338,4.31,4.2873,4.2806,4.2512,4.2325,4.2325,4.2258,4.2138,4.1924,4.1817,4.171,4.1603,4.171,4.1817,4.1897,4.2111,4.2218,4.2218,4.2218,4.2218,4.2218,4.2218,4.2218,4.2218,4.2218,4.2218,3.8972,3.9346,4.0,4.175,4.2619,4.3207,4.3781,4.3928,4.3968,4.3968,4.3968,4.4075,4.4369,4.4436,4.4543,4.481,4.4623,4.4436,4.4436,4.4182,4.3995,4.3995,4.3995,4.3995,4.3968,4.4249,4.4396,4.4396,4.469,4.4877,4.485,4.4877,4.5024,4.5277,4.5318,4.5424,4.5705,4.5705,4.5705,4.5705,4.5705,4.5705,4.5705,4.5705,4.5705,4.5705,4.5424,4.5318,4.5277,4.4984,4.4877,4.4877,4.4877,4.4877,4.4917,4.5197,4.5131,4.4877,4.4877,4.4877,4.4877,4.4877,4.4877,4.4877,4.4877,4.4877,4.4877,4.4877,4.485,4.485,4.485,4.485,4.485,4.485,4.4623,4.4436,4.4436,4.4222,4.4008,4.4008,4.4008,4.4008,4.4008,4.3995,4.3995,4.3968,4.3714,4.338,4.3127,4.2846,4.2659,4.2659,4.2405,4.2218,4.2218,4.1937,4.1897,4.2178,4.1924,4.1897,4.2178,4.2218,4.2218,4.2218,4.2218,4.2218,4.2218,4.2218,4.2218,4.2218,4.2218,4.2218,4.0588,4.1122,4.167,4.306,4.3567,4.3754,4.3968,4.4008,4.4008,4.4008,4.3674,4.3567,4.4035,4.4142,4.4302,4.481,4.4957,4.4943,4.477,4.4663,4.4436,4.4035,4.4182,4.4222,4.4035,4.4262,4.4436,4.4436,4.4877,4.5171,4.5171,4.5531,4.5785,4.5892,4.6079,4.6226,4.6333,4.6333,4.6333,4.6333,4.6333,4.6333,4.6333,4.6333,4.6226,4.6039,4.5932,4.5785,4.5598,4.5491,4.5451,4.5451,4.5451,4.5451,4.5451,4.5558,4.5678,4.5718,4.5531,4.5451,4.5451,4.5451,4.5451,4.5451,4.5451,4.5318,4.5171,4.5171,4.5024,4.4877,4.4877,4.4877,4.4877,4.4877,4.481,4.473,4.473,4.4516,4.4289,4.4289,4.4142,4.4008,4.4008,4.4008,4.4008,4.4008,4.3741,4.342,4.3127,4.302,4.2953,4.2953,4.2873,4.2726,4.2512,4.2405,4.2325,4.2218,4.2111,4.2218,4.2512,4.2325,4.2325,4.2512,4.2325,4.2218,4.2218,4.2218,4.2218,4.2218,4.2218,4.2218,4.1537,4.2218,4.2806,4.3888,4.4222,4.4289,4.4182,4.4142,4.4115,4.4035,4.3674,4.3567,4.4075,4.4262,4.4476,4.4957,4.5277,4.5344,4.5064,4.5131,4.5024,4.4516,4.473,4.4797,4.4516,4.473,4.4797,4.4623,4.5131,4.5531,4.5611,4.5972,4.6226,4.6333,4.652,4.6627,4.6627,4.6627,4.6627,4.6627,4.6627,4.6627,4.6627,4.652,4.6373,4.6186,4.5972,4.5758,4.5571,4.5491,4.5424,4.5424,4.5424,4.5424,4.5451,4.5558,4.4856,4.4022,4.5466,4.5972,4.6039,4.5932,4.5892,4.5892,4.5785,4.5598,4.5179,4.38,4.3373,4.2824,4.1547,4.1137,4.1137,4.1137,4.1064,4.1003,4.1003,4.0796,4.0601,4.0601,4.0332,4.0333,4.0333,4.0333,4.0722,4.2006,4.1948,4.2257,4.3304,4.3314,4.3233,4.3233,4.3167,4.302,4.2846,4.2806,4.2726,4.2552,4.2539,4.2619,4.2806,4.2619,4.2619,4.2806,4.2619,4.2539,4.2539,4.1119,4.0531,4.0531,3.9142,3.9093,4.1924,4.2726,4.338,4.4249,4.4663,4.481,4.4516,4.4436,4.4329,4.4035,4.3928,4.4008,4.4262,4.4583,4.4877,4.5197,4.5531,4.5678,4.5384,4.5598,4.5678,4.5384,4.5598,4.5638,4.5344,4.5598,4.5571,4.5024,4.5465,4.5892,4.6186,4.6226,4.6373,4.6627,4.6654,4.6654,4.6654,4.6654,4.6654,4.6654,4.6654,4.6654,4.6654,4.6373,4.6226,4.6186,4.5598,4.5344,4.5318,4.4902,4.4647,4.4647,4.4378,4.4378,4.4417,4.4668,4.2528,4.0119,4.4164,4.5803,4.5988,4.5737,4.5632,4.5592,4.5302,4.5085,4.4345,4.0843,3.9836,3.8979,3.5478,3.4486,3.4486,3.4486,3.4324,3.4043,3.4043,3.3852,3.3573,3.3573,3.3553,3.3553,3.3553,3.3553,3.4708,3.8052,3.8558,3.9821,4.348,4.3741,4.3567,4.3567,4.3314,4.3127,4.3127,4.3127,4.3127,4.3127,4.3127,4.2997,4.2881,4.2841,4.2699,4.2583,4.2583,4.2543,4.2543,3.8991,3.7282,3.7141,3.3527,3.354,4.3273,4.3968,4.4476,4.4703,4.481,4.481,4.4516,4.4436,4.4222,4.3487,4.298,4.2686,4.2766,4.3207,4.3714,4.4262,4.5318,4.5972,4.5678,4.6079,4.6213,4.5705,4.5892,4.5972,4.5678,4.6106,4.6333,4.6186,4.6119,4.6119,4.6186,4.6587,4.6881,4.6948,4.7175,4.7282,4.7282,4.7282,4.7282,4.7282,4.7282,4.7282,4.7282,4.6988,4.6734,4.648,4.6119,4.5825,4.5338,4.2467,4.1305,4.1041,3.822,3.711,3.711,3.7198,3.6759,3.6347,3.7331,3.7689,3.7777,3.7744,3.7766,3.7766,3.7712,3.757,3.7299,3.6291,3.6024,3.5758,3.4756,3.4486,3.4486,3.4486,3.4435,3.4405,3.4405,3.4093,3.3932,3.3932,3.3801,3.3553,3.3553,3.3553,3.3936,3.4856,3.4836,3.7072,4.3216,4.3928,4.3888,4.3888,4.3821,4.3781,4.3781,4.3781,4.3781,4.3781,4.3567,4.2312,3.9821,3.9348,3.787,3.5383,3.5098,3.5011,3.5011,3.4146,3.3588,3.3588,3.2595,3.2624,4.4289,4.4917,4.5237,4.509,4.5171,4.4984,4.3901,4.3754,4.3527,4.2365,4.1964,4.1924,4.2178,4.302,4.3821,4.4302,4.5718,4.6627,4.6186,4.6627,4.6841,4.6373,4.6694,4.6841,4.6547,4.6907,4.7135,4.7028,4.6734,4.6627,4.6774,4.6961,4.7135,4.7241,4.7428,4.7495,4.7495,4.7495,4.7495,4.7495,4.7495,4.7495,4.7495,4.5332,4.4332,4.4002,4.19,4.0938,4.068,3.855,3.7586,3.7435,3.5337,3.4486,3.4486,3.4486,3.359,3.2291,3.2385,3.1272,3.0316,3.3928,3.5,3.5,3.4856,3.4919,3.4391,3.284,3.2308,3.1787,3.0149,2.9695,2.9678,2.9583,2.9565,2.9565,2.9565,2.9346,2.926,2.926,2.9191,2.8981,2.8981,2.8981,2.9499,3.1076,3.1251,3.3148,3.8681,3.9385,3.9265,3.9265,3.9265,3.9265,3.9265,3.9265,3.9265,3.9265,3.9098,3.8145,3.6266,3.5879,3.4871,3.2979,3.2714,3.2654,3.2654,3.0943,3.0228,3.0095,2.8562,2.8473,4.5024,4.5531,4.5678,4.5424,4.5558,4.5237,4.3247,4.298,4.2726,4.1163,4.1082,4.1456,4.2004,4.3233,4.4329,4.4837,4.6293,4.7201,4.6841,4.7282,4.7535,4.7282,4.7682,4.7896,4.7642,4.7856,4.7936,4.7682,4.7015,4.678,4.7495,4.7282,4.7282,4.7495,4.7041,4.6757,4.6757,4.6199,4.5887,4.5887,4.5887,4.5887,4.5861,4.1989,4.0181,4.0028,3.614,3.4536,3.4536,3.3993,3.3862,3.3692,3.3259,3.2987,3.2987,3.2939,3.0982,2.8187,2.8208,2.6124,2.445,3.1391,3.3624,3.3624,3.35,3.35,3.2761,2.9448,2.8569,2.7812,2.4368,2.3483,2.3449,2.3307,2.3273,2.3259,2.3259,2.3239,2.3219,2.3219,2.3219,2.3219,2.3219,2.3219,2.4174,2.7249,2.7632,2.8807,3.1834,3.2812,3.3222,3.3222,3.3202,3.3171,3.3171,3.3171,3.3171,3.3171,3.3171,3.2911,3.2505,3.2496,3.2215,3.1829,3.1693,3.1693,3.1693,2.8393,2.6842,2.6707,2.3478,2.3527,4.5237,4.5531,4.5745,4.5678,4.5705,4.5344,4.3741,4.342,4.2913,4.0949,4.0762,4.1096,4.1416,4.2111,4.3167,4.4943,4.5892,4.6734,4.7575,4.8003,4.819,4.815,4.823,4.827,4.823,4.8484,4.8631,4.8591,4.5395,4.467,4.7366,4.7682,4.7682,4.7495,4.4444,4.2672,4.2672,3.9463,3.7847,3.7847,3.7847,3.7847,3.7847,3.6659,3.6258,3.6249,3.5093,3.4627,3.4495,3.1399,3.0081,2.9665,2.6533,2.5267,2.5252,2.5242,2.4775,2.4223,2.4245,2.3835,2.3458,2.5304,2.5897,2.5912,2.5897,2.5846,2.5743,2.5022,2.4775,2.453,2.3799,2.3646,2.3626,2.3612,2.3503,2.3415,2.3415,2.3307,2.3219,2.3219,2.3219,2.3219,2.3219,2.3219,2.3355,2.4038,2.4075,2.4118,2.479,2.9877,3.3434,3.3434,3.3282,3.3171,3.3171,3.3171,3.3171,3.3171,3.3171,3.1809,2.8831,2.8712,2.721,2.4247,2.4247,2.4247,2.4247,2.3529,2.3247,2.3247,2.2538,2.2469,4.5718,4.5865,4.5932,4.5785,4.5745,4.5157,4.2913,4.2619,4.2178,3.9813,3.9813,4.0321,4.0615,4.1884,4.334,4.465,4.6119,4.7282,4.7856,4.819,4.7625,4.5536,4.5395,4.4699,4.2468,4.2554,4.2682,4.2682,4.0882,4.1286,4.4804,4.2984,4.1621,4.1376,3.9731,3.8779,3.8779,3.6984,3.6017,3.6017,3.6017,3.6017,3.6017,3.3524,3.2518,3.2436,3.0027,2.9007,2.8871,2.7102,2.6367,2.6154,2.4293,2.3571,2.3558,2.3395,2.3347,2.3327,2.3259,2.3219,2.3273,2.3571,2.3714,2.3802,2.3965,2.3999,2.4012,2.4012,2.3965,2.389,2.3802,2.3788,2.3768,2.37,2.3558,2.3449,2.3449,2.3327,2.3219,2.3219,2.3219,2.3219,2.3219,2.3219,2.3219,2.3219,2.3171,2.3117,2.3117,2.5994,2.8019,2.791,2.7735,2.7626,2.7626,2.7542,2.7492,2.7492,2.7492,2.6679,2.4919,2.4919,2.4102,2.2344,2.2337,2.2337,2.2337,2.2337,2.2337,2.2337,2.2337,2.2303,4.5999,4.6079,4.6039,4.5812,4.5745,4.5024,4.2258,4.1924,4.1497,3.8985,3.9052,3.9746,4.0147,4.171,4.334,4.4436,4.5999,4.7025,4.6746,4.6901,4.5587,4.1684,4.148,4.0389,3.7032,3.7023,3.7134,3.7134,3.6276,3.7516,4.1252,3.8024,3.5966,3.5901,3.5221,3.4728,3.4728,3.416,3.3816,3.3816,3.3816,3.3816,3.3639,3.0332,2.8716,2.856,2.519,2.3754,2.3734,2.3768,2.3768,2.3768,2.3734,2.3754,2.3754,2.3537,2.3449,2.3429,2.3273,2.3219,2.3239,2.3361,2.3524,2.3714,2.3856,2.3999,2.4121,2.4121,2.4121,2.4087,2.3978,2.3944,2.391,2.3768,2.3626,2.3524,2.347,2.3361,2.3259,2.3219,2.3219,2.3219,2.3219,2.3219,2.3219,2.3219,2.3219,2.3219,2.3219,2.3117,2.3008,2.2886,2.271,2.2588,2.2554,2.2445,2.2378,2.2337,2.2337,2.2337,2.2337,2.2337,2.2337,2.2337,2.2337,2.2337,2.2337,2.2337,2.2337,2.2337,2.2337,2.2337,4.5638,4.5785,4.5785,4.5745,4.5745,4.5171,4.302,4.2365,4.163,3.9519,3.9346,3.9853,4.0695,4.1016,4.2031,4.4797,4.473,4.4041,4.296,4.2697,4.14,3.7927,3.7731,3.7651,3.7134,3.7134,3.7134,3.7134,3.382,3.3378,3.6845,3.6626,3.6198,3.5966,3.2643,3.0955,3.0955,2.739,2.561,2.561,2.561,2.561,2.561,2.5146,2.4762,2.4762,2.429,2.3999,2.389,2.4012,2.4087,2.4066,2.3931,2.3965,2.4033,2.3605,2.3449,2.3429,2.3273,2.3219,2.3219,2.3239,2.3436,2.3714,2.3856,2.3999,2.4121,2.4121,2.4121,2.4121,2.41,2.41,2.4066,2.391,2.3856,2.3788,2.3503,2.3436,2.3381,2.3259,2.3219,2.3219,2.3219,2.3219,2.3219,2.3219,2.3219,2.3219,2.3219,2.3205,2.3205,2.3185,2.292,2.271,2.2574,2.2534,2.2479,2.2337,2.2337,2.2337,2.2337,2.2337,2.2337,2.2337,2.2337,2.2337,2.2337,2.2337,2.2337,2.2337,2.2337,2.2337,4.5825,4.5999,4.5999,4.5999,4.5611,4.477,4.306,4.2298,4.1376,3.9306,3.9412,3.992,4.008,4.1136,4.169,4.0702,4.1324,4.1072,3.8522,3.8412,3.7295,3.3562,3.333,3.2571,3.0024,2.9879,2.9928,2.9879,2.8567,2.8204,2.9677,2.958,2.9427,2.9257,2.7822,2.6963,2.6963,2.5545,2.4847,2.4847,2.4847,2.4847,2.4826,2.4684,2.4616,2.4616,2.446,2.4351,2.4297,2.4372,2.4331,2.4243,2.4189,2.4155,2.4087,2.3822,2.366,2.3571,2.3415,2.3293,2.3239,2.3327,2.3503,2.37,2.3754,2.3931,2.4121,2.4121,2.4121,2.4121,2.4121,2.4121,2.41,2.4053,2.3965,2.3843,2.3626,2.3524,2.3395,2.3259,2.3219,2.3219,2.3219,2.3219,2.3219,2.3219,2.3219,2.3219,2.3219,2.3219,2.3219,2.3219,2.3042,2.2886,2.2832,2.2744,2.2622,2.2479,2.2466,2.2432,2.2337,2.2337,2.2337,2.2337,2.2337,2.2337,2.2337,2.2337,2.2337,2.2337,2.2337,2.2337,4.5678,4.6119,4.6333,4.6333,4.5531,4.4436,4.3207,4.2191,4.1056,3.9346,3.9559,3.996,3.964,4.0909,4.0973,3.7999,3.8504,3.7983,3.41,3.3904,3.2758,2.914,2.8899,2.7868,2.5106,2.4948,2.507,2.5213,2.5267,2.5321,2.5376,2.5267,2.5111,2.486,2.4894,2.4894,2.486,2.4969,2.5023,2.5023,2.5023,2.5023,2.5023,2.4914,2.4826,2.4792,2.4684,2.4596,2.4562,2.4562,2.4528,2.4473,2.444,2.4365,2.4297,2.41,2.3965,2.3856,2.3646,2.3537,2.3503,2.3558,2.368,2.3802,2.3802,2.3965,2.4121,2.4121,2.4121,2.4121,2.4121,2.4121,2.4121,2.4121,2.4033,2.3924,2.3768,2.3626,2.347,2.3327,2.3259,2.3219,2.3219,2.3219,2.3219,2.3219,2.3219,2.3219,2.3219,2.3219,2.3219,2.3219,2.313,2.3063,2.3008,2.2907,2.2784,2.2622,2.2574,2.25,2.2411,2.2357,2.2337,2.2337,2.2337,2.2337,2.2337,2.2337,2.2337,2.2337,2.2337,2.2337,4.4984,4.5972,4.6627,4.6627,4.5531,4.4289,4.3674,4.2178,4.0655,3.9786,3.9813,3.996,3.964,4.008,3.9842,3.7598,3.6884,3.4891,2.9994,2.8983,2.7604,2.4492,2.4263,2.4351,2.4351,2.4758,2.507,2.5213,2.5376,2.5532,2.5674,2.5688,2.5477,2.5036,2.5159,2.5159,2.5023,2.5023,2.5023,2.5023,2.5023,2.5023,2.5023,2.5023,2.4935,2.4792,2.4792,2.4704,2.4562,2.4562,2.465,2.4772,2.4616,2.465,2.4758,2.4453,2.4351,2.4297,2.3999,2.3978,2.4087,2.3944,2.3999,2.4121,2.4121,2.4121,2.4121,2.4121,2.4121,2.4121,2.4121,2.4121,2.4121,2.4121,2.4121,2.4066,2.3931,2.3788,2.3626,2.3483,2.3327,2.3219,2.3219,2.3219,2.3219,2.3219,2.3219,2.3219,2.3219,2.3219,2.3219,2.3219,2.3219,2.3171,2.3029,2.3008,2.294,2.2784,2.2642,2.2554,2.2554,2.2411,2.2337,2.2337,2.2337,2.2337,2.2337,2.2337,2.2337,2.2337,2.2337,2.2337,4.3634,4.4302,4.473,4.4329,4.342,4.2472,4.1884,4.0842,3.9813,3.9132,3.9225,3.9412,3.9306,4.0107,3.9081,3.3895,3.3373,3.1708,2.589,2.5173,2.5026,2.4366,2.4596,2.4806,2.4806,2.4935,2.5125,2.5376,2.543,2.5566,2.5817,2.583,2.5728,2.5477,2.5321,2.5213,2.5159,2.507,2.5023,2.5023,2.5023,2.5023,2.5023,2.5023,2.4982,2.4948,2.4948,2.4914,2.488,2.488,2.4847,2.4792,2.4738,2.4684,2.4616,2.4528,2.444,2.4331,2.4243,2.4175,2.4141,2.4189,2.4243,2.4277,2.4277,2.4209,2.4121,2.4121,2.4121,2.4121,2.4121,2.4121,2.4121,2.4121,2.4121,2.4087,2.3931,2.3856,2.3754,2.3503,2.3415,2.3347,2.3239,2.3219,2.3219,2.3219,2.3219,2.3219,2.3219,2.3219,2.3219,2.3219,2.3219,2.3205,2.3151,2.3151,2.3097,2.294,2.2886,2.2818,2.271,2.2567,2.2479,2.2479,2.2391,2.2337,2.2337,2.2337,2.2337,2.2337,2.2337,2.2337,4.2365,4.3273,4.3861,4.3247,4.2445,4.1644,4.1056,4.0214,3.9493,3.9132,3.9372,3.9706,3.984,3.9483,3.744,3.2468,3.0723,2.8347,2.3839,2.3327,2.3578,2.4189,2.4562,2.4806,2.4914,2.5036,2.5233,2.5532,2.5552,2.5654,2.5884,2.5905,2.5864,2.5776,2.5477,2.5287,2.5233,2.5091,2.5023,2.5023,2.5023,2.5023,2.5023,2.5023,2.5023,2.5023,2.5023,2.5023,0.0,2.5023,2.4969,2.488,2.488,2.4826,2.4738,2.4738,2.4684,2.4596,2.4541,2.4494,2.4473,2.4507,2.4507,2.4507,2.4453,2.4277,2.4121,2.4121,2.4121,2.4121,2.4121,2.4121,2.41,2.4053,2.4087,2.4087,2.3931,2.389,2.3843,2.3646,2.3524,2.3415,2.3327,2.3259,2.3219,2.3219,2.3219,2.3219,2.3219,2.3219,2.3219,2.3219,2.3219,2.3219,2.3219,2.3219,2.3185,2.3097,2.3042,2.2974,2.2873,2.2662,2.2554,2.2554,2.2411,2.2337,2.2337,2.2337,2.2337,2.2337,2.2337,2.2337,0.0,4.2579,4.3567,4.2953,4.2191,4.1456,4.0869,4.0107,0.0,3.9533,3.996,4.0508,4.1082,3.8225,3.5073,3.2624,2.8754,2.5389,2.3649,2.3151,2.3259,2.4141,2.4351,2.4528,2.4826,2.5091,2.5376,2.5674,2.5694,2.5762,2.5905,2.5905,2.5905,2.5905,2.562,2.541,2.5247,2.5111,2.5036,2.5023,2.5023,2.5023,2.5023,2.5023,2.5023,2.5023,2.5023,2.5023,2.5023,2.5023,2.5023,2.5023,2.5023,2.5023,2.5023,2.5023,2.5023,2.5003,2.486,2.4894,2.5003,2.486,2.4806,2.4758,2.4616,2.4372,2.4141,2.4141,2.4121,2.4121,2.4121,2.4121,2.4087,2.3944,2.4012,2.4087,2.3944,2.391,2.391,2.389,2.366,2.3483,2.347,2.3347,2.3239,2.3239,2.3219,2.3219,2.3219,2.3219,2.3219,2.3219,2.3219,2.3219,2.3219,2.3219,2.3219,2.3219,2.3097,2.3029,2.3029,2.2744,2.2588,2.2588,2.2432,2.2357,2.2337,2.2337,2.2337,2.2337,2.2337,2.2337,3.8691,0.0,4.0548,4.0174,3.992,3.9666,0.0,3.9092,3.8945,3.8945,3.9052,3.9239,3.9599,3.7144,3.4257,3.1702,2.8469,2.5517,2.3663,2.3944,2.4616,2.5389,2.5213,2.5145,2.5443,2.5443,2.5477,2.5674,2.5694,2.5762,2.5905,2.5905,2.5905,2.5905,2.5728,2.5566,2.541,2.5247,2.5125,2.5023,2.5023,2.5023,2.5023,2.5023,2.5023,2.5023,2.5023,2.5023,2.5023,2.5023,2.5023,2.5023,2.5023,2.5023,2.5023,2.5023,2.5023,2.5023,2.4982,2.4982,2.5023,2.4982,2.488,2.4792,2.4758,2.4528,2.4297,2.4297,2.4209,2.4121,2.4121,2.4121,2.41,2.4066,2.41,2.41,2.4066,2.4066,2.4033,2.391,2.3843,2.3754,2.3646,2.3503,2.3395,2.3395,2.3293,2.3219,2.3219,2.3219,2.3219,2.3219,2.3219,2.3219,2.3219,2.3219,2.3219,2.3219,2.3185,2.3171,2.3171,2.2995,2.2907,2.2907,2.2642,2.2445,2.2337,2.2337,2.2337,2.2337,2.2337,2.2337,3.7782,3.8584,3.9306,3.8865,3.9052,3.9199,3.8651,3.8731,3.9012,3.9265,3.9346,3.9098,3.842,3.5637,3.2584,2.9779,2.6697,2.4429,2.3966,2.4582,2.5254,2.5654,2.5552,2.5511,2.5674,2.562,2.562,2.5776,2.5796,2.5817,2.5905,2.5905,2.5905,2.5905,2.583,2.5694,2.5464,2.5301,2.5159,2.5023,2.5023,2.5023,2.5023,2.5023,2.5023,2.5023,2.5023,2.5023,2.5023,2.5023,2.5023,2.5023,2.5023,2.5023,2.5023,2.5023,2.5023,2.5023,2.5023,2.5023,2.5023,2.5023,2.4969,2.4894,2.4894,2.4738,2.4528,2.4385,2.4243,2.4121,2.4121,2.4121,2.41,2.4033,2.4066,2.41,2.4033,2.4066,2.41,2.4012,2.3944,2.3877,2.3788,2.3592,2.3449,2.3449,2.3327,2.3219,2.3219,2.3219,2.3219,2.3219,2.3219,2.3219,2.3219,2.3219,2.3219,2.3219,2.3219,2.3219,2.3219,2.3083,2.294,2.2798,2.2642,2.2479,2.2337,2.2337,2.2337,2.2337,2.2337,2.2337,3.7702,3.8571,3.9159,3.8624,3.8985,3.9279,3.8624,3.8838,3.9306,3.9853,3.9534,3.8778,3.7322,3.3699,3.0221,2.7849,2.4929,2.3293,2.4277,2.5023,2.5477,2.5552,2.564,2.5708,2.5762,2.5742,2.5776,2.5884,2.5905,2.5905,2.5905,2.5905,2.5905,2.5905,2.5905,2.5776,2.5498,2.5335,2.5199,2.5057,2.5036,2.5023,2.5023,2.5023,2.5023,2.5023,2.5023,2.5023,2.5023,2.5023,2.5023,2.5023,2.5023,2.5023,2.5023,2.5023,2.5023,2.5023,2.5023,2.5023,2.5023,2.5023,2.5023,2.5023,2.5023,2.4914,2.4738,2.4453,2.4277,2.4155,2.4121,2.4121,2.4087,2.3965,2.4033,2.4087,2.3965,2.4033,2.4121,2.4121,2.4012,2.3931,2.3931,2.37,2.3503,2.3483,2.3361,2.3259,2.3219,2.3219,2.3219,2.3219,2.3219,2.3219,2.3219,2.3219,2.3219,2.3219,2.3219,2.3219,2.3219,2.3097,2.2907,2.2622,2.2608,2.252,2.2378,2.2357,2.2337,2.2337,2.2337,2.2337,3.7969,3.9025,3.9813,3.9493,3.9132,3.8945,3.9306,3.9265,3.9265,3.9599,3.7581,3.5991,3.6442,3.1376,2.723,2.7358,2.5349,2.3965,2.4629,2.5145,2.5606,2.5993,2.583,2.5796,2.604,2.5939,2.5884,2.5905,2.5905,2.5905,2.5905,2.5905,2.5905,2.5905,2.5905,2.5817,2.5654,2.5498,2.5355,2.5199,2.507,2.5023,2.5023,2.5023,2.5023,2.5023,2.5023,2.5023,2.5023,2.5023,2.5023,2.5023,2.5023,2.5023,2.5023,2.5023,2.5023,2.5023,2.5023,2.5023,2.5023,2.5023,2.5023,2.5023,2.5023,2.4914,2.4758,2.4582,2.4419,2.4277,2.4155,2.4121,2.4121,2.4087,2.41,2.4121,2.4087,2.41,2.4121,2.4121,2.41,2.4087,2.4087,2.3944,2.3788,2.3666,2.3524,2.3361,2.3239,2.3219,2.3219,2.3219,2.3219,2.3219,2.3219,2.3219,2.3219,2.3219,2.3219,2.3219,2.3219,2.3205,2.3117,2.294,2.2818,2.2676,2.252,2.2391,2.2337,2.2337,2.2337,2.2337,3.7823,3.8544,3.9346,4.0508,4.0949,4.1163,4.1416,3.9709,3.8238,3.8449,3.5598,3.2614,3.1696,2.9107,2.6995,2.6327,2.5271,2.4684,2.5199,2.5586,2.5905,2.6115,2.6081,2.6081,2.6129,2.5993,2.5905,2.5905,2.5905,2.5905,2.5905,2.5905,2.5905,2.5905,2.5905,2.5864,2.5817,2.5654,2.5464,2.5233,2.5091,2.5023,2.5023,2.5023,2.5023,2.5023,2.5023,2.5023,2.5023,2.5023,2.5023,2.5023,2.5023,2.5023,2.5023,2.5023,2.5023,2.5023,2.5023,2.5023,2.5023,2.5023,2.5023,2.5023,2.5023,2.4969,2.488,2.4724,2.4528,2.4311,2.4155,2.4121,2.4121,2.4121,2.4121,2.4121,2.4121,2.4121,2.4121,2.4121,2.4121,2.4121,2.4121,2.3999,2.3843,2.37,2.3558,2.3395,2.3239,2.3219,2.3219,2.3219,2.3219,2.3219,2.3219,2.3219,2.3219,2.3219,2.3219,2.3219,2.3219,2.3219,2.3151,2.3008,2.294,2.2784,2.2554,2.2479,2.2411,2.2337,2.2337,2.2337,3.7996,3.8005,3.857,4.1385,4.2218,4.2659,4.3273,4.0128,3.7314,3.7634,3.3841,2.985,2.7902,2.7394,2.6765,2.5335,2.5111,2.5287,2.5728,2.5993,2.6149,2.6183,2.6291,2.6312,2.6203,2.604,2.5952,2.5952,2.5918,2.5905,2.5905,2.5905,2.5905,2.5905,2.5905,2.5905,2.5905,2.5762,2.5552,2.5287,2.5145,2.5057,2.5023,2.5023,2.5023,2.5023,2.5023,2.5023,2.5023,2.5023,2.5023,2.5023,2.5023,2.5023,2.5023,2.5023,2.5023,2.5023,2.5023,2.5023,2.5023,2.5023,2.5023,2.5023,2.5023,2.5023,2.4982,2.4826,2.4596,2.4365,2.4209,2.4155,2.4121,2.4121,2.4121,2.4121,2.4121,2.4121,2.4121,2.4121,2.4121,2.4121,2.4121,2.4012,2.389,2.3754,2.3612,2.3449,2.3293,2.3239,2.3219,2.3219,2.3219,2.3219,2.3219,2.3219,2.3219,2.3219,2.3219,2.3219,2.3219,2.3219,2.3171,2.3063,2.3029,2.2873,2.2608,2.2574,2.2479,2.2337,2.2337,2.2337,3.8972,3.8012,3.7841,4.1615,4.1644,4.131,4.3781,4.0402,3.7172,3.8354,3.2872,2.8086,2.8505,2.6436,2.479,2.4602,2.5077,2.5586,2.604,2.6115,2.6183,2.6325,2.6359,2.6359,2.6346,2.6203,2.6115,2.6115,2.5993,2.5905,2.5905,2.5905,2.5905,2.5905,2.5905,2.5905,2.5905,2.5762,2.5606,2.5443,2.5287,2.5145,2.5023,2.5023,2.5023,2.5023,2.5023,2.5023,2.5023,2.5023,2.5023,2.5023,2.5023,2.5023,2.5023,2.5023,2.5023,2.5023,2.5023,2.5023,2.5023,2.5023,2.5023,2.5023,2.5023,2.5023,2.4982,2.4826,2.467,2.4507,2.4365,2.4229,2.4121,2.4121,2.4121,2.4121,2.4121,2.4121,2.4121,2.4121,2.4121,2.4121,2.4121,2.41,2.4053,2.389,2.3754,2.3612,2.3449,2.3307,2.3219,2.3219,2.3219,2.3219,2.3219,2.3219,2.3219,2.3219,2.3219,2.3219,2.3219,2.3219,2.3219,2.3205,2.3083,2.292,2.2764,2.2622,2.2479,2.2337,2.2337,2.2337,3.8798,3.9066,3.9975,4.2403,4.107,3.967,4.1645,3.8979,3.5576,3.339,2.8823,2.5347,2.5824,2.5522,2.5179,2.5376,2.5674,2.5973,2.6237,2.6346,2.6434,2.6488,2.6488,2.6488,2.6488,2.6271,2.6129,2.6129,2.5993,2.5905,2.5905,2.5905,2.5905,2.5905,2.5905,2.5905,2.5905,2.585,2.5742,2.5606,2.5355,2.5159,2.5023,2.5023,2.5023,2.5023,2.5023,2.5023,2.5023,2.5023,2.5023,2.5023,2.5023,2.5023,2.5023,2.5023,2.5023,2.5023,2.5023,2.5023,2.5023,2.5023,2.5023,2.5023,2.5023,2.5023,2.5003,2.4948,2.4758,2.4528,2.4385,2.4243,2.4121,2.4121,2.4121,2.4121,2.4121,2.4121,2.4121,2.4121,2.4121,2.4121,2.4121,2.4121,2.4066,2.391,2.3768,2.3626,2.347,2.3307,2.3219,2.3219,2.3219,2.3219,2.3219,2.3219,2.3219,2.3219,2.3219,2.3219,2.3219,2.3219,2.3219,2.3219,2.3171,2.3029,2.2784,2.273,2.2567,2.2337,2.2337,2.2337,3.9084,3.888,3.8904,4.1217,3.94,3.7058,3.7141,3.5292,3.2879,3.0484,2.6761,2.3999,2.4351,2.4948,2.5477,2.5728,2.6006,2.6257,2.6413,2.6522,2.659,2.6644,2.6644,2.6644,2.6644,2.638,2.6203,2.6203,2.6006,2.5905,2.5905,2.5905,2.5905,2.5905,2.5905,2.5905,2.5905,2.5905,2.583,2.5694,2.5477,2.5267,2.5091,2.5036,2.5023,2.5023,2.5023,2.5023,2.5023,2.5023,2.5023,2.5023,2.5023,2.5023,2.5023,2.5023,2.5023,2.5023,2.5023,2.5023,2.5023,2.5023,2.5023,2.5023,2.5023,2.5023,2.5023,2.5023,2.4792,2.4548,2.444,2.4263,2.4121,2.4121,2.4121,2.4121,2.4121,2.4121,2.4121,2.4121,2.4121,2.4121,2.4121,2.4121,2.4087,2.3978,2.3802,2.3646,2.3537,2.3347,2.3219,2.3219,2.3219,2.3219,2.3219,2.3219,2.3219,2.3219,2.3219,2.3219,2.3219,2.3219,2.3219,2.3219,2.3219,2.3097,2.2852,2.2798,2.2656,2.2411,2.2357,2.2337,4.0089,3.706,3.3949,3.7828,3.6485,3.3531,3.0301,2.9113,2.9007,3.064,2.7511,2.4406,2.4548,2.4935,2.5287,2.5443,2.5973,2.6413,2.6556,2.6576,2.6624,2.6787,2.68,2.68,2.68,2.6536,2.6359,2.6359,2.6081,2.5905,2.5905,2.5905,2.5905,2.5905,2.5905,2.5905,2.5905,2.5905,2.583,2.5694,2.5694,2.5532,2.5233,2.5091,2.5023,2.5023,2.5023,2.5023,2.5023,2.5023,2.5023,2.5023,2.5023,2.5023,2.5023,2.5023,2.5023,2.5023,2.5023,2.5023,2.5023,2.5023,2.5023,2.5023,2.5023,2.5023,2.5023,2.5023,2.4792,2.4562,2.4562,2.4351,2.4121,2.4121,2.4121,2.4121,2.4121,2.4121,2.4121,2.4121,2.4121,2.4121,2.4121,2.4121,2.4121,2.4121,2.3877,2.368,2.368,2.3415,2.3219,2.3219,2.3219,2.3219,2.3219,2.3219,2.3219,2.3219,2.3219,2.3219,2.3219,2.3219,2.3219,2.3219,2.3219,2.3151,2.3008,2.2852,2.271,2.2554,2.2411,2.2337,4.0501,4.0992,4.0637,3.8886,3.6973,3.4602,3.1423,3.0238,2.9216,2.7171,2.5678,2.4894,2.5145,2.5477,2.5762,2.5905,2.6257,2.6556,2.6712,2.6732,2.6746,2.68,2.68,2.68,2.68,2.6624,2.6468,2.6359,2.6183,2.6006,2.5905,2.5905,2.5905,2.5905,2.5905,2.5905,2.5905,2.5905,2.5884,2.583,2.562,2.5423,2.5233,2.5199,2.5111,2.5023,2.5023,2.5023,2.5023,2.5023,2.5023,2.5023,2.5023,2.5023,2.5023,2.5023,2.5023,2.5023,2.5023,2.5023,2.5023,2.5023,2.5023,2.5023,2.5023,2.5023,2.5003,2.4894,2.4724,2.4548,2.444,2.4263,2.4121,2.4121,2.4121,2.4121,2.4121,2.4121,2.4121,2.4121,2.4121,2.4121,2.4121,2.4121,2.4087,2.3978,2.3802,2.3612,2.3381,2.3273,2.3219,2.3219,2.3219,2.3219,2.3219,2.3219,2.3219,2.3219,2.3219,2.3219,2.3219,2.3219,2.3219,2.3219,2.3219,2.3151,2.3008,2.2961,2.2818,2.2554,2.252,2.2432,4.0274,4.066,3.9986,3.6429,3.4504,3.2819,2.9699,2.873,2.7943,2.5625,2.5145,2.5213,2.5566,2.5783,2.5993,2.6257,2.6502,2.6698,2.6787,2.68,2.68,2.68,2.68,2.68,2.68,2.6664,2.6522,2.638,2.6217,2.6061,2.5905,2.5905,2.5905,2.5905,2.5905,2.5905,2.5905,2.5905,2.5905,2.5905,2.5674,2.5477,2.5321,2.5199,2.5111,2.5023,2.5023,2.5023,2.5023,2.5023,2.5023,2.5023,2.5023,2.5023,2.5023,2.5023,2.5023,2.5023,2.5023,2.5023,2.5023,2.5023,2.5023,2.5023,2.5023,2.5023,2.4982,2.4826,2.4684,2.4528,2.4385,2.4243,2.4121,2.4121,2.4121,2.4121,2.4121,2.4121,2.4121,2.4121,2.4121,2.4121,2.4121,2.4121,2.4087,2.3999,2.3802,2.3578,2.3259,2.3219,2.3219,2.3219,2.3219,2.3219,2.3219,2.3219,2.3219,2.3219,2.3219,2.3219,2.3219,2.3219,2.3219,2.3219,2.3219,2.3185,2.3097,2.3042,2.2886,2.2642,2.2588,2.2479,3.9404,3.7744,3.5122,3.1726,3.0244,2.8962,2.6349,2.5742,2.5708,2.5552,2.541,2.5443,2.5884,2.5952,2.6095,2.6522,2.6712,2.68,2.68,2.68,2.68,2.68,2.68,2.68,2.68,2.6678,2.6536,2.64,2.6237,2.6081,2.5939,2.5905,2.5905,2.5905,2.5905,2.5905,2.5905,2.5905,2.5905,2.5905,2.5742,2.5606,2.5443,2.5179,2.5057,2.5036,2.5023,2.5023,2.5023,2.5023,2.5023,2.5023,2.5023,2.5023,2.5023,2.5023,2.5023,2.5023,2.5023,2.5023,2.5023,2.5023,2.5023,2.5023,2.5023,2.5023,2.4982,2.4813,2.467,2.4528,2.4365,2.4229,2.4121,2.4121,2.4121,2.4121,2.4121,2.4121,2.4121,2.4121,2.4121,2.4121,2.4121,2.4121,2.41,2.4087,2.3843,2.3558,2.3259,2.3219,2.3219,2.3219,2.3219,2.3219,2.3219,2.3219,2.3219,2.3219,2.3219,2.3219,2.3219,2.3219,2.3219,2.3219,2.3219,2.3219,2.3219,2.3097,2.294,2.2784,2.2642,2.2479,3.8166,3.8671,3.8152,3.1511,2.8252,2.6619,2.612,2.6129,2.6169,2.6027,2.5952,2.604,2.6359,2.6434,2.6502,2.6712,2.6787,2.68,2.68,2.68,2.68,2.68,2.68,2.68,2.68,2.6766,2.6698,2.6536,2.64,2.6237,2.6095,2.5973,2.5905,2.5905,2.5905,2.5905,2.5905,2.5905,2.5905,2.5905,2.564,2.5498,2.5464,2.5389,2.5301,2.5179,2.507,2.5023,2.5023,2.5023,2.5023,2.5023,2.5023,2.5023,2.5023,2.5023,2.5023,2.5023,2.5023,2.5023,2.5023,2.5023,2.5023,2.5023,2.5023,2.5023,2.4969,2.4684,2.4582,2.4507,2.4243,2.4141,2.4121,2.4121,2.4121,2.4121,2.4121,2.4121,2.4121,2.4121,2.4121,2.4121,2.4121,2.4121,2.4053,2.3802,2.3612,2.3436,2.3239,2.3219,2.3219,2.3219,2.3219,2.3219,2.3219,2.3219,2.3219,2.3219,2.3219,2.3219,2.3219,2.3219,2.3219,2.3219,2.3219,2.3219,2.3219,2.3185,2.3042,2.2784,2.2744,2.2588,3.6443,3.5806,3.4418,2.9059,2.6902,2.6061,2.6203,2.6359,2.6468,2.6447,2.6393,2.6413,2.6644,2.6746,2.6834,2.6997,2.701,2.6997,2.6922,2.6909,2.6888,2.68,2.68,2.68,2.68,2.68,2.6732,2.659,2.6447,2.6291,2.6129,2.5993,2.5905,2.5905,2.5905,2.5905,2.5905,2.5905,2.5905,2.5905,2.5606,2.543,2.5355,2.5287,2.5213,2.5125,2.5057,2.5023,2.5023,2.5023,2.5023,2.5023,2.5023,2.5023,2.5023,2.5023,2.5023,2.5023,2.5023,2.5023,2.5023,2.5023,2.5023,2.5023,2.5023,2.5023,2.4948,2.465,2.4562,2.4494,2.4189,2.4121,2.4121,2.4121,2.4121,2.4121,2.4121,2.4121,2.4121,2.4121,2.4121,2.4121,2.4121,2.4121,2.4012,2.3734,2.3612,2.3483,2.3259,2.3219,2.3219,2.3219,2.3219,2.3219,2.3219,2.3219,2.3219,2.3219,2.3219,2.3219,2.3219,2.3219,2.3219,2.3219,2.3219,2.3219,2.3219,2.3219,2.3063,2.2784,2.2784,2.2622,3.4543,3.1653,2.8597,2.6223,2.5939,2.6203,2.6325,2.6488,2.6658,2.68,2.6746,2.6698,2.6854,2.6976,2.7119,2.7261,2.7261,2.7207,2.7085,2.7044,2.6976,2.6854,2.682,2.68,2.68,2.68,2.6746,2.6624,2.6447,2.6312,2.6183,2.6006,2.5905,2.5905,2.5905,2.5905,2.5905,2.5905,2.5905,2.5905,2.564,2.5389,2.5199,2.5091,2.5057,2.5057,2.5036,2.5023,2.5023,2.5023,2.5023,2.5023,2.5023,2.4545,2.3919,2.3919,2.3448,2.2822,2.2822,2.2822,2.2983,2.3758,2.3919,2.4081,2.4707,2.5023,2.4807,2.388,2.3484,2.3261,2.2222,2.2602,2.3063,2.3063,2.366,2.4121,2.4121,2.4121,2.4121,2.4121,2.4121,2.4121,2.4121,2.4121,2.4012,2.3734,2.368,2.3578,2.3259,2.3219,2.3219,2.3219,2.3219,2.3219,2.3219,2.3219,2.3219,2.3219,2.3219,2.3219,2.3219,2.3219,2.3219,2.3219,2.3219,2.3219,2.3219,2.3205,2.3049,2.2784,2.2744,2.2608,3.2218,2.8413,2.5454,2.5642,2.6006,2.6346,2.6359,2.6576,2.682,2.6963,2.6976,2.701,2.7153,2.7207,2.7261,2.7417,2.7329,2.7241,2.7221,2.7099,2.7031,2.6997,2.6888,2.68,2.68,2.68,2.68,2.6766,2.6522,2.6346,2.6325,2.6061,2.5905,2.5905,2.5905,2.5905,2.5905,2.5905,2.5905,2.5905,2.5742,2.5443,2.5057,2.5159,2.5199,2.5199,2.507,2.5023,2.5023,2.5023,2.5023,2.5023,2.5023,2.2822,1.9679,1.9679,1.7349,1.423,1.423,1.423,1.4694,1.8432,1.9679,2.0317,2.3919,2.5023,2.4176,2.033,1.9337,1.8518,1.4658,1.6276,1.8823,1.8823,2.1544,2.4121,2.4121,2.4121,2.4121,2.4121,2.4121,2.4121,2.4121,2.4121,2.4012,2.3734,2.368,2.3578,2.3259,2.3219,2.3219,2.3219,2.3219,2.3219,2.3219,2.3219,2.3219,2.3219,2.3219,2.3219,2.3219,2.3219,2.3219,2.3219,2.3219,2.3219,2.3219,2.3097,2.2961,2.2784,2.2642,2.25,2.7483,2.5548,2.4738,2.5498,2.6027,2.6359,2.6359,2.659,2.682,2.6888,2.7031,2.7187,2.735,2.7438,2.7526,2.7594,2.7539,2.7472,2.7383,2.7316,2.7227,2.7044,2.6976,2.6888,2.68,2.68,2.68,2.68,2.6522,2.6359,2.6359,2.6061,2.5905,2.5905,2.5905,2.5905,2.5905,2.3461,2.1001,1.8513,1.8411,1.8249,1.8059,1.8044,1.9448,2.1646,2.1581,2.0156,1.7971,1.7971,1.7971,1.7971,1.7971,1.6878,1.5313,1.5313,1.4063,1.2512,1.2512,1.2512,1.2824,1.4694,1.5313,1.5628,1.7495,1.8077,1.7545,1.5543,1.5004,1.463,1.2538,1.3411,1.5363,1.762,1.9433,2.1394,2.366,2.4121,2.4121,2.4121,2.4121,2.4121,2.4121,2.4121,2.4012,2.3734,2.368,2.3578,2.3259,2.3219,2.3219,2.3219,2.3219,2.3219,2.3219,2.3219,2.3219,2.3219,2.3219,2.3219,2.3219,2.3219,2.3219,2.3219,2.3219,2.3185,2.3097,2.3042,2.2886,2.2656,2.2588,2.2479,2.3667,2.3402,2.4331,2.5233,2.5796,2.6169,2.6325,2.6556,2.6766,2.6834,2.7065,2.7295,2.7438,2.7594,2.7702,2.7702,2.7702,2.7668,2.7539,2.7492,2.7383,2.7119,2.7044,2.6976,2.682,2.68,2.68,2.68,2.6522,2.6359,2.6359,2.6061,2.5905,2.5905,2.4769,2.4288,2.4288,1.9909,1.6143,1.2682,1.2808,1.2736,1.2483,1.259,1.3651,1.5662,1.6731,1.5468,1.2512,1.2512,1.2512,1.2512,1.2512,1.1891,1.0948,1.0948,1.017,0.9391,0.9391,0.9391,0.9543,1.0641,1.0948,1.1104,1.2196,1.2467,1.2258,1.1104,1.0742,1.0533,0.9395,0.9821,1.1332,1.432,1.5817,1.7925,2.3063,2.4121,2.4121,2.4121,2.4121,2.4121,2.4121,2.4121,2.4012,2.3734,2.368,2.3578,2.3259,2.3219,2.3219,2.3219,2.3219,2.3219,2.3219,2.3219,2.3219,2.3219,2.3219,2.3219,2.3219,2.3219,2.3205,2.3171,2.3171,2.3117,2.3008,2.294,2.2784,2.2554,2.252,2.2445,2.2532,2.2391,2.3185,2.4507,2.5179,2.5654,2.6237,2.6488,2.6664,2.6963,2.7132,2.7295,2.7438,2.7594,2.7702,2.7702,2.7702,2.7702,2.7682,2.756,2.7417,2.7241,2.7119,2.6976,2.682,2.68,2.68,2.68,2.6522,2.6359,2.6359,2.6061,2.5905,2.5905,2.1849,1.9748,1.9748,1.5544,1.3074,1.2682,1.2913,1.2869,1.2561,1.2561,1.0622,0.7103,1.1137,1.2668,1.2512,1.2512,1.2512,1.2501,1.2512,1.0014,0.658,0.658,0.4076,0.0628,0.0628,0.0628,0.1256,0.5329,0.658,0.7359,1.1263,1.2512,1.1709,0.7768,0.6671,0.5721,0.1685,0.3508,0.639,0.6653,0.9657,1.4613,2.2446,2.4121,2.4121,2.4121,2.4121,2.4121,2.4121,2.4121,2.4012,2.3734,2.368,2.3578,2.3259,2.3219,2.3219,2.3219,2.3219,2.3219,2.3219,2.3219,2.3219,2.3219,2.3219,2.3219,2.3219,2.3219,2.3151,2.3029,2.3029,2.3008,2.3008,2.271,2.2574,2.2554,2.2411,2.2337,2.1308,2.1828,2.2588,2.3537,2.4494,2.5267,2.5566,2.6115,2.6624,2.6834,2.6997,2.7153,2.7295,2.7526,2.7702,2.7702,2.7702,2.7702,2.7702,2.7648,2.756,2.7404,2.7261,2.7099,2.6963,2.6854,2.5626,2.2778,2.2371,2.0903,1.811,1.7751,1.7645,1.7645,1.6185,1.3927,1.1177,0.9557,0.7453,0.4531,0.4668,0.4655,0.4491,0.4597,0.3634,0.2374,0.3773,0.4544,0.4544,0.4544,0.4544,0.4544,0.4544,0.3606,0.2196,0.2196,0.1256,0.0,0.0,0.0,0.0314,0.1727,0.2196,0.251,0.4076,0.4534,0.4207,0.2645,0.2327,0.1852,0.046,0.107,0.2743,0.5449,0.9052,1.2957,1.5817,1.6412,1.6412,1.6412,1.6412,1.6412,1.6412,1.8534,2.0112,1.9862,2.2041,2.3578,2.3259,2.3219,2.3219,2.3219,2.3219,2.3219,2.3219,2.3219,2.3219,2.3219,2.313,2.3083,2.3083,2.2995,2.292,2.2873,2.2764,2.271,2.271,2.2608,2.25,2.2411,2.2357,2.2337,2.037,2.1123,2.1937,2.273,2.3612,2.4453,2.5145,2.5728,2.6237,2.6644,2.6888,2.7065,2.7153,2.7383,2.758,2.7682,2.7702,2.7702,2.7702,2.7702,2.7648,2.7492,2.7329,2.65,2.4829,2.4698,2.2606,1.8252,1.7727,1.6294,1.3343,1.3036,1.2314,1.0859,1.0859,0.8752,0.4384,0.4384,0.2924,0.0,0.0,0.0,0.0,0.0,0.0,0.0,0.0,0.0,0.0,0.0,0.0,0.0,0.0,0.0,0.0,0.0,0.0,0.0,0.0,0.0,0.0,0.0,0.0,0.0,0.0,0.0,0.0,0.0,0.0,0.0,0.0,0.0,0.0609,0.3331,0.6042,0.7999,0.7999,1.0254,1.2055,1.2055,1.2055,1.2055,1.2055,1.4288,1.6459,1.7474,1.9935,2.2042,2.3109,2.3219,2.3219,2.3219,2.3219,2.3219,2.3219,2.3219,2.3219,2.3219,2.3083,2.3008,2.3008,2.2873,2.2764,2.271,2.2608,2.2534,2.2479,2.2479,2.2432,2.2337,2.2337,2.2337,0.0,0.0,0.0,2.2059,2.252,2.3225,2.4989,2.5287,2.5464,2.6359,2.68,2.701,2.6857,2.6965,2.716,2.7292,2.7524,2.7702,2.7524,2.7524,2.747,2.7158,2.6998,2.4973,2.0603,1.9988,1.8085,1.3571,1.3095,1.3011,1.2844,1.2707,1.0694,0.6488,0.6326,0.4222,0.0,0.0,0.0,0.0,0.0,0.0,0.0,0.0,0.0,0.0,0.0,0.0,0.0,0.0,0.0,0.0,0.0,0.0,0.0,0.0,0.0,0.0,0.0,0.0,0.0,0.0,0.0,0.0,0.0,0.0,0.0,0.0,0.0,0.0,0.0,0.0,0.0,0.0,0.0,0.0,0.0,0.6189,1.1751,1.1751,1.1751,1.1751,1.1751,1.1851,1.3115,1.6723,1.7505,1.8857,2.252,2.3075,2.3219,2.3219,2.3219,2.3219,2.3219,2.3219,2.3219,2.3219,2.3083,2.3008,2.2995,2.2852,2.2696,2.2554,2.2554,2.2479,2.2337,2.2337,2.2337,2.2337,2.2337,2.2337,1.9434,0.0,0.0,0.0,0.0,0.0,2.3314,2.4087,2.488,2.5884,2.6237,2.5504,2.2726,2.4842,2.4941,1.8613,2.3156,2.6333,2.3054,2.2602,2.145,1.7958,1.7462,1.6837,1.5627,1.5326,1.3404,0.8884,0.8464,0.7097,0.3802,0.3596,0.3087,0.1788,0.1788,0.1138,0.0,0.0,0.0,0.0,0.0,0.0,0.0,0.0,0.0,0.0,0.0,0.0,0.0,0.0,0.0,0.0,0.0,0.0,0.0,0.0,0.0,0.0,0.0,0.0,0.0,0.0,0.0,0.0,0.0,0.0,0.0,0.0,0.0,0.0,0.0,0.0,0.0,0.0,0.0,0.0,0.0,0.1816,0.3327,0.3327,0.3327,0.3327,0.3327,0.5711,0.8056,0.8893,1.3977,1.7981,1.8876,2.1468,2.3219,2.3219,2.3219,2.3219,2.3219,2.3219,2.3185,2.3083,2.292,2.2798,2.2676,2.2534,2.2445,2.2391,2.2391,2.2378,2.2337,2.2337,2.2337,2.2337,2.2337,2.2337,0.0,0.0,2.0031,2.0275,0.0,0.0,2.2798,2.2061,2.1593,2.2897,2.1981,2.0069,1.7832,1.9545,1.9584,1.4479,1.8105,2.0748,1.8117,1.7874,1.6901,1.4143,1.3693,1.2775,1.1072,1.0627,0.8723,0.4198,0.3825,0.2804,0.0164,0.0,0.0,0.0,0.0,0.0,0.0,0.0,0.0,0.0,0.0,0.0,0.0,0.0,0.0,0.0,0.0,0.0,0.0,0.0,0.0,0.0,0.0,0.0,0.0,0.0,0.0,0.0,0.0,0.0,0.0,0.0,0.0,0.0,0.0,0.0,0.0,0.0,0.0,0.0,0.0,0.0,0.0,0.0,0.0,0.0,0.0,0.0,0.0,0.0,0.0,0.0,0.0,0.195,0.4018,0.5615,0.968,1.3844,1.6979,1.943,2.1337,2.3075,2.3219,2.3219,2.3219,2.3171,2.3097,2.3008,2.2798,2.2642,2.2554,2.2411,2.2337,2.2337,2.2337,2.2337,2.2337,2.2337,2.2337,2.2337,2.2337,2.2303,1.9305,0.0,0.0,2.0241,2.0397,0.0,2.273,2.0126,1.7748,1.8906,1.6434,1.3664,1.287,1.3053,1.3087,1.1994,1.2421,1.2889,1.3076,1.2997,1.2865,1.2357,1.2113,1.0546,0.647,0.607,0.4358,0.0336,0.0,0.0,0.0,0.0,0.0,0.0,0.0,0.0,0.0,0.0,0.0,0.0,0.0,0.0,0.0,0.0,0.0,0.0,0.0,0.0,0.0,0.0,0.0,0.0,0.0,0.0,0.0,0.0,0.0,0.0,0.0,0.0,0.0,0.0,0.0,0.0,0.0,0.0,0.0,0.0,0.0,0.0,0.0,0.0,0.0,0.0,0.0,0.0,0.0,0.0,0.0,0.0,0.0,0.0,0.0,0.0,0.1186,0.4703,0.5549,0.8427,1.5805,1.7113,1.8859,2.2781,2.3219,2.3219,2.3219,2.3097,2.3008,2.2995,2.271,2.2554,2.2534,2.2411,2.2337,2.2337,2.2337,2.2337,2.2337,2.2337,2.2337,2.2337,2.2337,2.2249,1.9712,1.9752,0.0,1.9963,2.0173,0.0,2.1001,2.0811,2.0015,1.8122,1.7359,1.511,0.9123,1.0905,1.0965,0.3857,0.569,0.7982,0.8092,0.8171,0.6838,0.3081,0.2714,0.2361,0.135,0.1337,0.0996,0.0,0.0,0.0,0.0,0.0,0.0,0.0,0.0,0.0,0.0,0.0,0.0,0.0,0.0,0.0,0.0,0.0,0.0,0.0,0.0,0.0,0.0,0.0,0.0,0.0,0.0,0.0,0.0,0.0,0.0,0.0,0.0,0.0,0.0,0.0,0.0,0.0,0.0,0.0,0.0,0.0,0.0,0.0,0.0,0.0,0.0,0.0,0.0,0.0,0.0,0.0,0.0,0.0,0.0,0.0,0.0,0.0,0.0297,0.1031,0.3798,0.7413,1.2192,1.5521,1.8859,2.2781,2.3219,2.3219,2.3219,2.3097,2.2961,2.2832,2.2656,2.25,2.2391,2.2357,2.2337,2.2337,2.2337,2.2337,2.2337,2.2337,2.2337,2.2337,2.2337,2.2249,2.0017,1.9875,1.9888,1.9963,2.0051,0.0,0.0,1.9328,1.7718,1.698,1.3917,1.0173,0.6584,0.6328,0.5175,0.0746,0.1843,0.3311,0.3362,0.3478,0.2544,0.0341,0.0,0.0,0.0,0.0,0.0,0.0,0.0,0.0,0.0,0.0,0.0,0.0,0.0,0.0,0.0,0.0,0.0,0.0,0.0,0.0,0.0,0.0,0.0,0.0,0.0,0.0,0.0,0.0,0.0,0.0,0.0,0.0,0.0,0.0,0.0,0.0,0.0,0.0,0.0,0.0,0.0,0.0,0.0,0.0,0.0,0.0,0.0,0.0,0.0,0.0,0.0,0.0,0.0,0.0,0.0,0.0,0.0,0.0,0.0,0.0,0.0,0.0,0.0,0.0,0.1607,0.4946,1.0889,1.3353,1.6685,2.2644,2.3219,2.3219,2.3219,2.2961,2.2784,2.2784,2.25,2.2344,2.2337,2.2337,2.2337,2.2337,2.2337,2.2337,2.2337,2.2337,2.2337,2.2337,2.2269,2.2147,2.0275,2.0051,1.9886,1.93,1.9521,2.0041,0.0,0.0,0.0,1.4971,0.964,0.4686,0.42,0.1825,0.0,0.0,0.0,0.0,0.0,0.0,0.0,0.0,0.0,0.0,0.0,0.0,0.0,0.0,0.0,0.0,0.0,0.0,0.0,0.0,0.0,0.0,0.0,0.0,0.0,0.0,0.0,0.0,0.0,0.0,0.0,0.0,0.0,0.0,0.0,0.0,0.0,0.0,0.0,0.0,0.0,0.0,0.0,0.0,0.0,0.0,0.0,0.0,0.0,0.0,0.0,0.0,0.0,0.0,0.0,0.0,0.0,0.0,0.0,0.0,0.0,0.0,0.0,0.0,0.0,0.0,0.0,0.0,0.0,0.0,0.0,0.0,0.0,0.2478,0.9584,1.1172,1.4072,2.0317,2.1599,2.1711,2.0963,2.0606,2.0433,2.0654,2.0193,2.0314,2.1134,2.1862,2.2303,2.2337,2.2337,2.2337,2.2337,2.2337,2.2337,2.2337,2.2181,2.2025,2.0438,2.0275,1.9607,1.6372,1.8036,1.9587,1.6176,0.0,1.4236,1.1143,0.0,0.4075,0.1144,0.0,0.0,0.0,0.0,0.0,0.0,0.0,0.0,0.0,0.0,0.0,0.0,0.0,0.0,0.0,0.0,0.0,0.0,0.0,0.0,0.0,0.0,0.0,0.0,0.0,0.0,0.0,0.0,0.0,0.0,0.0,0.0,0.0,0.0,0.0,0.0,0.0,0.0,0.0,0.0,0.0,0.0,0.0,0.0,0.0,0.0,0.0,0.0,0.0,0.0,0.0,0.0,0.0,0.0,0.0,0.0,0.0,0.0,0.0,0.0,0.0,0.0,0.0,0.0,0.0,0.0,0.0,0.0,0.0,0.0,0.0,0.0,0.0,0.0,0.1603,0.5961,0.9439,1.1902,1.2767,1.6014,1.6642,1.3272,1.2818,1.2678,1.2758,1.2519,1.383,1.6983,2.0407,2.2201,2.2337,2.2337,2.2337,2.2337,2.2337,2.2337,2.2337,2.2181,2.2025,1.4691,1.4391,1.3906,1.266,1.3297,1.3907,1.2328,1.1968,1.1587,1.026,0.0,0.0,0.0,0.0,0.0,0.0,0.0,0.0,0.0,0.0,0.0,0.0,0.0,0.0,0.0,0.0,0.0,0.0,0.0,0.0,0.0,0.0,0.0,0.0,0.0,0.0,0.0,0.0,0.0,0.0,0.0,0.0,0.0,0.0,0.0,0.0,0.0,0.0,0.0,0.0,0.0,0.0,0.0,0.0,0.0,0.0,0.0,0.0,0.0,0.0,0.0,0.0,0.0,0.0,0.0,0.0,0.0,0.0,0.0,0.0,0.0,0.0,0.0,0.0,0.0,0.0,0.0,0.0,0.0,0.0,0.0,0.0,0.0,0.0,0.0,0.0,0.0,0.1442,0.5323,0.7213,0.9085,1.1344,1.3065,1.3316,1.1757,1.1463,1.1361,1.1464,1.1257,1.1897,1.3404,1.4943,1.5816,1.5864,1.5913,1.5814,1.5814,1.8103,1.7964,1.5943,2.0109,2.1937,1.0377,1.0077,0.9789,0.9049,0.9353,0.9676,0.8861,0.8507,0.8352,0.8515,0.5876,0.0,0.0,0.0,0.0,0.0,0.0,0.0,0.0,0.0,0.0,0.0,0.0,0.0,0.0,0.0,0.0,0.0,0.0,0.0,0.0,0.0,0.0,0.0,0.0,0.0,0.0,0.0,0.0,0.0,0.0,0.0,0.0,0.0,0.0,0.0,0.0,0.0,0.0,0.0,0.0,0.0,0.0,0.0,0.0,0.0,0.0,0.0,0.0,0.0,0.0,0.0,0.0,0.0,0.0,0.0,0.0,0.0,0.0,0.0,0.0,0.0,0.0,0.0,0.0,0.0,0.0,0.0,0.0,0.0,0.0,0.0,0.0,0.0,0.0,0.0,0.0,0.1001,0.3856,0.5159,0.645,0.8249,0.9405,0.951,0.8543,0.8303,0.8107,0.8226,0.9145,0.9668,0.9693,1.0643,1.1201,1.1218,1.1154,1.1189,1.1189,1.3876,1.3876,1.1327,1.8513,2.1288,1.0238,1.017,0.9484,0.5937,0.7678,0.9352,0.5813,0.5101,0.4999,0.5018,0.0,0.0,0.0,0.0,0.0,0.0,0.0,0.0,0.0,0.0,0.0,0.0,0.0,0.0,0.0,0.0,0.0,0.0,0.0,0.0,0.0,0.0,0.0,0.0,0.0,0.0,0.0,0.0,0.0,0.0,0.0,0.0,0.0,0.0,0.0,0.0,0.0,0.0,0.0,0.0,0.0,0.0,0.0,0.0,0.0,0.0,0.0,0.0,0.0,0.0,0.0,0.0,0.0,0.0,0.0,0.0,0.0,0.0,0.0,0.0,0.0,0.0,0.0,0.0,0.0,0.0,0.0,0.0,0.0,0.0,0.0,0.0,0.0,0.0,0.0,0.0,0.0,0.0,0.0143,0.3428,0.4415,0.0709,0.3797,0.4456,0.0688,0.041,0.0407,0.0404,0.3633,0.5657,0.5835,0.9079,1.1003,1.1218,1.1154,1.1189,1.1189,1.1327,1.1327,1.1327,1.8513,1.9824,0.0,0.0,0.3123,0.199,0.2527,0.3205,0.1878,0.1615,0.162,0.1714,0.0,0.0,0.0,0.0,0.0,0.0,0.0,0.0,0.0,0.0,0.0,0.0,0.0,0.0,0.0,0.0,0.0,0.0,0.0,0.0,0.0,0.0,0.0,0.0,0.0,0.0,0.0,0.0,0.0,0.0,0.0,0.0,0.0,0.0,0.0,0.0,0.0,0.0,0.0,0.0,0.0,0.0,0.0,0.0,0.0,0.0,0.0,0.0,0.0,0.0,0.0,0.0,0.0,0.0,0.0,0.0,0.0,0.0,0.0,0.0,0.0,0.0,0.0,0.0,0.0,0.0,0.0,0.0,0.0,0.0,0.0,0.0,0.0,0.0,0.0,0.0,0.0,0.0,0.0,0.1126,0.1405,0.0139,0.1117,0.1392,0.0137,0.0,0.0,0.0,0.1211,0.1886,0.1891,0.3104,0.3653,0.3816,0.384,0.3844,0.3828,0.6338,0.6185,0.3936,1.1214,1.3857,0.0,0.0,0.0,0.0,0.0,0.0,0.0,0.0,0.0,0.0,0.0,0.0,0.0,0.0,0.0,0.0,0.0,0.0,0.0,0.0,0.0,0.0,0.0,0.0,0.0,0.0,0.0,0.0,0.0,0.0,0.0,0.0,0.0,0.0,0.0,0.0,0.0,0.0,0.0,0.0,0.0,0.0,0.0,0.0,0.0,0.0,0.0,0.0,0.0,0.0,0.0,0.0,0.0,0.0,0.0,0.0,0.0,0.0,0.0,0.0,0.0,0.0,0.0,0.0,0.0,0.0,0.0,0.0,0.0,0.0,0.0,0.0,0.0,0.0,0.0,0.0,0.0,0.0,0.0,0.0,0.0,0.0,0.0,0.0,0.0,0.0,0.0,0.0,0.0,0.0,0.0,0.0,0.0,0.0,0.0,0.0,0.0,0.0,0.0,0.0,0.0,0.0,0.0,0.0,0.0,0.0,0.0,0.2474,0.2329,0.0135,0.484,0.709]},{"header":{"parameterUnit":"m.s-1","parameterCategory":1,"la1":30.6,"la2":29.2853,"lo1":-89.7004,"lo2":-87.6739,"dx":0.0162,"dy":0.0183,"nx":112,"ny":82,"refTime":"2022-12-20T00:00:00:Z","depth":0,"parameterNumber":3,"parameterNumberName":"V-component_of_WINDS"},"data":[0.0,0.0,0.0,0.0,0.0,0.0,0.0,0.0,0.0,0.0,0.0,0.0,0.0,0.0,0.0,0.0,0.0,0.0,0.0,0.0,0.0,0.0,0.0,0.0,0.0,0.0,0.0,0.0,0.0,0.0,0.0,0.0,0.0,0.0,0.0,0.0,0.0,0.0,0.0,0.0,0.0,0.0,0.0,0.0,0.0,0.0,0.0,0.0,0.0,0.0,0.0,0.0,0.0,0.0,0.0,0.0,0.0,0.0,0.0,0.0,0.0,0.0,0.0,0.0,0.0,0.0,0.0,0.0,0.0,0.0,0.0,0.0,0.0,0.0,0.0,0.0,0.0,0.0,0.0,0.0,0.0,0.0,0.0,0.0,0.0,0.0,0.0,0.0,0.0,0.0,7.0302,7.3215,7.9295,8.3035,8.3023,8.2412,7.8772,7.0965,0.0,0.0,0.0,0.0,0.0,0.0,0.0,0.0,0.0,0.0,0.0,0.0,0.0,0.0,0.0,0.0,0.0,0.0,0.0,0.0,0.0,0.0,0.0,0.0,0.0,0.0,0.0,0.0,0.0,0.0,0.0,0.0,0.0,0.0,0.0,0.0,0.0,0.0,0.0,0.0,0.0,0.0,0.0,0.0,0.0,0.0,0.0,0.0,0.0,0.0,0.0,0.0,0.0,0.0,0.0,0.0,0.0,0.0,0.0,0.0,0.0,0.0,0.0,0.0,0.0,0.0,0.0,0.0,0.0,0.0,0.0,0.0,0.0,0.0,0.0,0.0,0.0,0.0,0.0,0.0,0.0,0.0,0.0,0.0,0.0,0.0,0.0,0.0,0.0,0.0,0.0,0.0,0.0,0.0,0.0,0.0,0.0,0.0,0.0,0.0,0.0,0.0,0.0,0.0,7.4182,8.2678,8.5182,8.6102,8.5811,8.5703,8.1614,7.2329,0.0,0.0,0.0,0.0,0.0,0.0,0.0,0.0,0.0,0.0,0.0,0.0,0.0,0.0,0.0,0.0,0.0,0.0,0.0,0.0,0.0,0.0,0.0,0.0,0.0,0.0,0.0,0.0,0.0,0.0,0.0,0.0,0.0,0.0,0.0,0.0,0.0,0.0,0.0,0.0,0.0,0.0,0.0,0.0,0.0,0.0,0.0,0.0,0.0,0.0,0.0,0.0,0.0,0.0,0.0,0.0,0.0,0.0,0.0,0.0,0.0,0.0,0.0,0.0,0.0,0.0,0.0,0.0,0.0,0.0,0.0,0.0,0.0,0.0,0.0,0.0,0.0,0.0,0.0,0.0,0.0,0.0,0.0,0.0,0.0,0.0,0.0,0.0,0.0,0.0,0.0,0.0,0.0,0.0,0.0,0.0,0.0,0.0,0.0,0.0,0.0,0.0,0.0,7.2233,7.8179,8.667,8.8121,8.8622,8.8893,8.7999,8.376,7.5152,7.1045,0.0,0.0,0.0,0.0,0.0,0.0,0.0,0.0,0.0,0.0,0.0,0.0,0.0,0.0,0.0,0.0,0.0,0.0,0.0,0.0,0.0,0.0,0.0,0.0,0.0,0.0,0.0,0.0,0.0,0.0,0.0,0.0,0.0,0.0,0.0,0.0,0.0,0.0,0.0,0.0,0.0,0.0,0.0,0.0,0.0,0.0,0.0,0.0,0.0,0.0,0.0,0.0,0.0,0.0,0.0,0.0,0.0,0.0,0.0,0.0,0.0,0.0,0.0,0.0,0.0,0.0,0.0,0.0,0.0,0.0,0.0,0.0,0.0,0.0,0.0,0.0,0.0,0.0,0.0,0.0,0.0,0.0,0.0,0.0,0.0,0.0,0.0,0.0,0.0,0.0,0.0,0.0,0.0,0.0,0.0,0.0,0.0,0.0,0.0,0.0,0.0,0.0,7.926,8.3534,8.9879,9.0919,9.1371,9.1865,9.0432,8.6025,7.7768,7.379,0.0,0.0,0.0,0.0,0.0,0.0,0.0,0.0,0.0,0.0,0.0,0.0,0.0,0.0,0.0,0.0,0.0,0.0,0.0,0.0,0.0,0.0,0.0,0.0,0.0,0.0,0.0,0.0,0.0,0.0,0.0,0.0,0.0,0.0,0.0,0.0,0.0,0.0,0.0,0.0,0.0,0.0,0.0,0.0,0.0,0.0,0.0,0.0,0.0,0.0,0.0,0.0,0.0,0.0,0.0,0.0,0.0,0.0,0.0,0.0,0.0,0.0,0.0,0.0,0.0,0.0,0.0,0.0,0.0,0.0,0.0,0.0,0.0,0.0,0.0,0.0,0.0,0.0,0.0,0.0,0.0,0.0,0.0,0.0,0.0,0.0,0.0,0.0,0.0,0.0,0.0,0.0,0.0,0.0,0.0,0.0,0.0,0.0,0.0,0.0,0.0,0.0,8.5853,9.1379,9.4552,9.4888,9.4799,9.4567,9.3733,8.9021,7.9091,7.6039,0.0,0.0,0.0,0.0,0.0,0.0,0.0,0.0,0.0,0.0,0.0,0.0,0.0,0.0,0.0,0.0,0.0,0.0,0.0,0.0,0.0,0.0,0.0,0.0,0.0,0.0,0.0,0.0,0.0,0.0,0.0,0.0,0.0,0.0,0.0,0.0,0.0,0.0,0.0,0.0,0.0,0.0,0.0,0.0,0.0,0.0,0.0,0.0,0.0,0.0,0.0,0.0,0.0,0.0,0.0,0.0,0.0,0.0,0.0,0.0,0.0,0.0,0.0,0.0,0.0,0.0,0.0,0.0,0.0,0.0,0.0,0.0,0.0,0.0,0.0,0.0,0.0,0.0,0.0,0.0,0.0,0.0,0.0,0.0,0.0,0.0,0.0,0.0,0.0,0.0,0.0,0.0,0.0,0.0,0.0,0.0,0.0,0.0,0.0,0.0,0.0,0.0,8.5268,9.0987,0.0,9.6945,9.7308,9.764,9.638,9.114,8.0759,0.0,0.0,0.0,0.0,0.0,0.0,0.0,0.0,0.0,0.0,0.0,0.0,0.0,0.0,0.0,0.0,0.0,0.0,0.0,0.0,0.0,0.0,0.0,0.0,0.0,0.0,0.0,0.0,0.0,0.0,0.0,0.0,0.0,0.0,0.0,0.0,0.0,0.0,0.0,0.0,0.0,0.0,0.0,0.0,0.0,0.0,0.0,0.0,0.0,0.0,0.0,0.0,0.0,0.0,0.0,0.0,0.0,0.0,0.0,0.0,0.0,0.0,0.0,0.0,0.0,0.0,0.0,0.0,0.0,0.0,0.0,0.0,0.0,0.0,0.0,0.0,0.0,0.0,0.0,0.0,0.0,0.0,0.0,0.0,0.0,0.0,0.0,0.0,0.0,0.0,0.0,0.0,0.0,0.0,0.0,0.0,0.0,0.0,0.0,0.0,0.0,0.0,8.057,8.7455,9.3427,0.0,9.9334,9.9665,9.9658,9.8083,9.2464,8.1672,0.0,0.0,0.0,0.0,0.0,0.0,0.0,0.0,0.0,0.0,0.0,0.0,0.0,0.0,0.0,0.0,0.0,0.0,0.0,0.0,0.0,0.0,0.0,0.0,0.0,0.0,0.0,0.0,0.0,0.0,0.0,0.0,0.0,0.0,0.0,0.0,0.0,0.0,0.0,0.0,0.0,0.0,0.0,0.0,0.0,0.0,0.0,0.0,0.0,0.0,0.0,0.0,0.0,0.0,0.0,0.0,0.0,0.0,0.0,0.0,0.0,0.0,0.0,0.0,0.0,0.0,0.0,0.0,0.0,0.0,0.0,0.0,0.0,0.0,0.0,0.0,0.0,0.0,0.0,0.0,0.0,0.0,0.0,0.0,0.0,0.0,0.0,0.0,0.0,0.0,0.0,0.0,0.0,0.0,0.0,0.0,0.0,0.0,0.0,0.0,0.0,0.0,8.4498,9.3697,10.0101,10.1413,10.2191,10.2081,10.0503,9.8851,9.3088,0.0,0.0,0.0,0.0,0.0,0.0,0.0,0.0,0.0,0.0,0.0,0.0,0.0,0.0,0.0,0.0,0.0,0.0,0.0,0.0,0.0,0.0,0.0,0.0,0.0,0.0,0.0,0.0,0.0,0.0,0.0,0.0,0.0,0.0,0.0,0.0,0.0,0.0,0.0,0.0,0.0,0.0,0.0,0.0,0.0,0.0,0.0,0.0,0.0,0.0,0.0,0.0,0.0,0.0,0.0,0.0,0.0,0.0,0.0,0.0,0.0,0.0,0.0,0.0,0.0,0.0,0.0,0.0,0.0,0.0,0.0,0.0,0.0,0.0,0.0,0.0,0.0,0.0,0.0,0.0,0.0,0.0,0.0,0.0,0.0,0.0,0.0,0.0,0.0,0.0,0.0,0.0,0.0,0.0,0.0,0.0,0.0,0.0,0.0,0.0,0.0,0.0,0.0,8.7128,9.5744,10.1689,10.3137,10.3403,10.3109,10.2118,10.098,9.5137,8.2572,0.0,0.0,0.0,0.0,0.0,0.0,0.0,0.0,0.0,0.0,0.0,0.0,0.0,0.0,0.0,0.0,0.0,0.0,0.0,0.0,0.0,0.0,0.0,0.0,0.0,0.0,0.0,0.0,0.0,0.0,0.0,0.0,0.0,0.0,0.0,0.0,0.0,0.0,0.0,0.0,0.0,0.0,0.0,0.0,0.0,0.0,0.0,0.0,0.0,0.0,0.0,0.0,0.0,0.0,0.0,0.0,0.0,0.0,0.0,0.0,0.0,0.0,0.0,0.0,0.0,0.0,0.0,0.0,0.0,0.0,0.0,0.0,0.0,0.0,0.0,0.0,0.0,0.0,0.0,0.0,0.0,0.0,0.0,0.0,0.0,0.0,0.0,0.0,0.0,0.0,0.0,0.0,0.0,0.0,0.0,0.0,0.0,0.0,0.0,0.0,0.0,0.0,8.883,9.7567,10.3416,10.3797,10.421,10.41,10.3219,10.1898,9.6664,8.6338,0.0,0.0,0.0,0.0,0.0,0.0,0.0,0.0,0.0,0.0,0.0,0.0,0.0,0.0,0.0,0.0,0.0,0.0,0.0,0.0,0.0,0.0,0.0,0.0,0.0,0.0,0.0,0.0,0.0,0.0,0.0,0.0,0.0,0.0,0.0,0.0,0.0,0.0,0.0,0.0,0.0,0.0,0.0,0.0,0.0,0.0,0.0,0.0,0.0,0.0,0.0,0.0,0.0,0.0,0.0,0.0,0.0,0.0,0.0,0.0,0.0,0.0,0.0,0.0,0.0,0.0,0.0,0.0,0.0,0.0,0.0,0.0,0.0,0.0,0.0,0.0,0.0,0.0,0.0,0.0,0.0,0.0,0.0,0.0,0.0,0.0,0.0,0.0,0.0,0.0,0.0,0.0,0.0,0.0,0.0,0.0,0.0,0.0,0.0,0.0,0.0,0.0,9.0041,9.9175,10.4908,10.421,10.4798,10.4908,10.41,10.1898,9.7897,9.1463,0.0,0.0,0.0,0.0,0.0,0.0,0.0,0.0,0.0,0.0,0.0,0.0,0.0,0.0,0.0,0.0,0.0,0.0,0.0,0.0,0.0,0.0,0.0,0.0,0.0,0.0,0.0,0.0,0.0,0.0,0.0,0.0,0.0,0.0,0.0,0.0,0.0,0.0,0.0,0.0,0.0,0.0,0.0,0.0,0.0,0.0,0.0,0.0,0.0,0.0,0.0,0.0,0.0,0.0,0.0,0.0,0.0,0.0,0.0,0.0,6.8221,6.2544,0.0,0.0,0.0,0.0,0.0,0.0,0.0,0.0,0.0,0.0,0.0,0.0,0.0,0.0,0.0,0.0,0.0,0.0,0.0,0.0,0.0,0.0,0.0,0.0,0.0,0.0,0.0,0.0,0.0,0.0,0.0,0.0,0.0,0.0,0.0,0.0,0.0,0.0,0.0,0.0,9.2824,10.0896,10.6082,10.5899,10.6009,10.5789,10.4908,10.3806,9.9698,9.155,8.6731,0.0,0.0,0.0,0.0,0.0,0.0,0.0,0.0,0.0,0.0,0.0,0.0,0.0,0.0,0.0,0.0,0.0,0.0,0.0,0.0,0.0,0.0,0.0,0.0,0.0,0.0,0.0,0.0,0.0,0.0,0.0,0.0,0.0,0.0,0.0,0.0,0.0,0.0,0.0,0.0,0.0,0.0,0.0,0.0,0.0,0.0,0.0,0.0,0.0,0.0,0.0,0.0,0.0,0.0,0.0,0.0,0.0,0.0,0.0,7.5077,7.0931,0.0,0.0,0.0,0.0,0.0,0.0,0.0,0.0,0.0,0.0,0.0,0.0,0.0,0.0,0.0,0.0,0.0,0.0,0.0,0.0,0.0,0.0,0.0,0.0,0.0,0.0,0.0,0.0,0.0,0.0,0.0,0.0,0.0,0.0,0.0,0.0,0.0,0.0,0.0,0.0,9.4335,10.1604,10.6376,10.6376,10.6376,10.6192,10.5789,10.421,10.0985,9.5652,8.9991,0.0,0.0,0.0,0.0,0.0,0.0,0.0,0.0,0.0,0.0,0.0,0.0,0.0,0.0,0.0,0.0,0.0,0.0,0.0,0.0,0.0,0.0,0.0,0.0,0.0,0.0,0.0,0.0,0.0,0.0,0.0,0.0,0.0,0.0,0.0,0.0,0.0,0.0,0.0,0.0,0.0,0.0,0.0,0.0,0.0,0.0,0.0,0.0,0.0,0.0,0.0,0.0,0.0,8.425,8.5105,8.5002,8.474,8.6009,8.8187,8.3339,8.1557,8.1494,7.4221,0.0,0.0,0.0,0.0,0.0,0.0,0.0,0.0,0.0,0.0,0.0,0.0,0.0,0.0,0.0,0.0,0.0,0.0,0.0,0.0,0.0,0.0,0.0,0.0,8.7213,8.8135,0.0,0.0,0.0,0.0,0.0,0.0,0.0,0.0,0.0,0.0,0.0,0.0,9.6061,10.2595,10.678,10.678,10.678,10.6706,10.6413,10.4394,10.2215,9.991,9.2978,8.7176,0.0,0.0,0.0,0.0,0.0,0.0,0.0,0.0,0.0,0.0,0.0,0.0,0.0,0.0,0.0,0.0,0.0,0.0,0.0,0.0,0.0,0.0,0.0,0.0,0.0,0.0,0.0,0.0,0.0,0.0,0.0,0.0,7.3707,7.4368,0.0,0.0,0.0,0.0,0.0,0.0,0.0,0.0,0.0,0.0,0.0,0.0,0.0,7.9709,8.4529,8.7695,9.0347,9.2499,9.5737,9.7037,9.6609,9.7652,9.7155,9.5392,9.3917,0.0,8.4911,8.119,0.0,0.0,0.0,0.0,0.0,0.0,0.0,0.0,0.0,0.0,0.0,0.0,0.0,0.0,0.0,0.0,0.0,0.0,0.0,0.0,0.0,0.0,9.5187,9.7276,9.8756,9.9379,0.0,8.8589,7.9994,7.9432,7.8889,0.0,0.0,0.0,0.0,0.0,0.0,0.0,10.0099,10.5275,10.8505,10.8505,10.8505,10.7881,10.6486,10.5422,10.3125,9.9115,9.6605,9.2215,8.5647,8.2712,0.0,0.0,0.0,0.0,0.0,0.0,0.0,0.0,0.0,0.0,0.0,0.0,0.0,0.0,0.0,0.0,0.0,0.0,0.0,0.0,0.0,0.0,0.0,0.0,0.0,0.0,0.0,0.0,0.0,7.3744,7.7265,7.7989,7.681,7.4336,0.0,0.0,0.0,0.0,0.0,0.0,0.0,0.0,0.0,8.4648,8.6642,9.016,9.5403,9.7975,10.0119,10.179,10.3831,10.4616,10.4371,10.3715,10.279,10.1594,9.955,9.6359,9.2152,8.6676,8.2712,7.9634,0.0,0.0,0.0,0.0,7.1616,7.2529,7.6352,7.8382,7.916,7.8551,0.0,0.0,0.0,0.0,0.0,0.0,0.0,0.0,0.0,0.0,9.9237,10.3379,10.4687,10.4871,10.4871,10.0203,9.4544,0.0,8.8469,8.6575,8.2271,0.0,0.0,0.0,0.0,9.9952,10.2485,10.5899,10.8101,10.8101,10.7697,10.7183,10.6486,10.5605,10.3788,10.0685,9.8723,9.5567,9.0819,8.6117,8.0716,0.0,0.0,0.0,0.0,0.0,0.0,0.0,0.0,0.0,0.0,0.0,0.0,0.0,0.0,0.0,0.0,0.0,0.0,0.0,0.0,0.0,0.0,0.0,0.0,0.0,0.0,0.0,0.0,7.8185,8.1992,8.2758,8.2701,8.0664,0.0,0.0,0.0,0.0,0.0,0.0,8.5087,8.5708,8.8426,9.3722,9.5936,9.924,10.3983,10.5803,10.7126,10.7881,10.8688,10.8982,10.8682,10.7108,10.6,10.538,10.3236,10.099,9.8537,9.2084,8.7763,8.4911,8.1765,7.916,7.7299,7.8213,7.9058,8.0361,8.4776,8.6651,8.7181,8.7604,8.72,8.6114,8.3171,0.0,0.0,0.0,0.0,9.2629,9.8451,10.0797,10.2826,10.7422,10.8505,10.8505,10.8505,10.8175,10.5972,0.0,9.797,9.6025,9.0702,0.0,0.0,0.0,0.0,10.421,10.5605,10.7404,10.8395,10.8175,10.7477,10.6816,10.6413,10.5789,10.4405,10.1971,10.0097,9.7826,9.5149,8.9799,8.5249,8.1697,0.0,0.0,0.0,0.0,0.0,0.0,0.0,0.0,0.0,0.0,0.0,0.0,0.0,0.0,0.0,0.0,0.0,0.0,0.0,0.0,0.0,0.0,0.0,0.0,0.0,0.0,0.0,0.0,0.0,8.9053,9.1657,0.0,0.0,0.0,0.0,8.4855,8.494,8.7622,9.3552,9.3851,9.6315,10.1669,10.322,10.4694,10.651,10.8692,10.9416,10.8688,10.9569,10.9496,10.8799,10.8719,10.7479,10.5583,10.5391,10.4199,10.1889,9.7948,9.3752,8.9715,8.8125,8.6095,8.4302,8.579,8.6805,8.8074,9.236,9.3861,9.4127,9.5397,9.4467,9.2634,9.1849,9.1821,0.0,0.0,9.937,10.211,10.7801,10.9416,10.9709,11.0817,11.1001,11.1001,11.1001,10.979,10.8175,0.0,10.6376,10.5568,10.1384,0.0,10.3403,10.3219,10.4908,10.7294,11.0414,11.0928,11.0707,10.9973,10.9202,10.8101,10.6486,10.6376,10.51,10.2125,10.0584,9.8865,9.6745,9.4408,9.0729,8.5621,8.3118,0.0,0.0,0.0,0.0,0.0,0.0,0.0,0.0,0.0,0.0,0.0,0.0,0.0,0.0,0.0,0.0,0.0,0.0,0.0,0.0,0.0,0.0,0.0,0.0,0.0,0.0,0.0,0.0,8.9485,9.2202,0.0,8.827,9.0037,9.1795,9.2501,9.5232,9.8415,10.2019,10.2091,10.321,10.5707,10.6688,10.767,10.8802,11.0604,11.1405,11.1111,11.1882,11.1882,11.1111,11.0597,10.9607,10.8409,10.7897,10.6704,10.5001,10.3195,10.0704,9.7988,9.6887,9.5978,9.5331,9.5349,9.5507,9.5908,9.7463,9.7969,9.8403,10.0779,10.1006,10.0691,10.2423,10.3307,10.4113,10.5582,10.7189,10.8982,11.1001,11.2286,11.3203,11.3424,11.3901,11.4305,11.4305,11.3791,11.3277,11.2689,11.0304,10.7587,10.5091,10.7294,10.8688,10.6596,10.8982,11.1295,11.1882,11.1515,11.0891,11.0083,10.9276,10.8578,10.7991,10.7477,10.6462,10.4903,10.2179,10.009,9.8849,9.5914,9.3199,9.0865,8.9512,8.437,0.0,0.0,0.0,0.0,0.0,0.0,0.0,0.0,0.0,0.0,0.0,0.0,0.0,0.0,0.0,0.0,0.0,0.0,0.0,0.0,0.0,0.0,0.0,0.0,0.0,9.0592,9.4732,9.2652,9.5933,9.6987,9.3434,9.6478,9.9068,10.0197,10.3262,10.5887,10.7911,10.7991,10.8505,10.9569,10.99,11.0414,11.1184,11.2506,11.3093,11.28,11.3607,11.3607,11.28,11.2286,11.1698,11.1184,11.0671,10.9896,10.9022,10.8478,10.7509,10.589,10.2807,10.1583,10.1476,10.1015,10.0787,10.0889,10.1291,10.2033,10.2909,10.5187,10.608,10.6798,10.9607,11.0781,11.1295,11.1882,11.28,11.3681,11.3901,11.4818,11.5699,11.5993,11.6397,11.6801,11.6801,11.6801,11.6801,11.6801,11.3791,11.0891,10.979,11.2102,11.291,10.9679,11.2176,11.3681,11.1808,11.1405,11.0891,11.0083,10.9276,10.8799,10.8799,10.7294,10.6486,10.678,10.267,10.0295,10.0295,9.5956,9.3199,9.2455,9.1677,8.7008,7.8314,0.0,0.0,0.0,0.0,0.0,0.0,0.0,0.0,0.0,0.0,0.0,0.0,0.0,0.0,0.0,0.0,0.0,0.0,0.0,0.0,0.0,0.0,0.0,9.2427,9.5621,9.8521,9.9365,10.3586,10.5899,10.4284,10.5605,10.689,10.7697,10.8505,10.9606,11.1221,11.1295,11.1992,11.357,11.28,11.28,11.357,11.4415,11.4415,11.3607,11.4488,11.4415,11.3607,11.3607,11.357,11.357,11.357,11.357,11.357,11.357,11.357,11.2913,10.5611,10.271,10.271,10.271,10.271,10.2899,10.4204,10.6016,10.7924,10.8688,10.9496,11.0597,11.2983,11.3681,11.3974,11.5589,11.6103,11.6213,11.7021,11.7314,11.7498,11.8306,11.8489,11.8489,11.8489,11.8489,11.8489,11.8416,11.7204,11.6103,11.5993,11.669,11.6103,11.2983,11.4488,0.0,11.0671,11.0817,11.1001,11.0083,10.9312,10.8799,10.8799,10.5899,10.5091,10.7477,10.2084,9.9501,10.109,9.4944,9.1135,9.0391,8.9512,8.7245,8.3558,0.0,0.0,0.0,0.0,0.0,0.0,0.0,0.0,0.0,0.0,0.0,0.0,0.0,0.0,0.0,0.0,0.0,0.0,0.0,0.0,0.0,9.5694,9.8521,9.7309,10.1604,10.5385,10.678,10.8688,10.99,11.0083,11.0487,11.1074,11.1882,11.1588,11.1882,11.2873,11.291,11.3093,11.357,11.3387,11.3387,11.357,11.4415,11.4708,11.4488,11.5296,11.5185,11.4488,11.4488,11.4194,11.357,11.357,11.357,11.357,11.357,11.357,11.3305,11.0736,10.9693,10.9583,10.9001,10.8819,10.8829,10.9175,10.9709,11.0487,11.2506,11.3313,11.3901,11.6287,11.669,11.6397,11.7498,11.7314,11.7094,11.7902,11.8489,11.9003,11.9187,11.9774,12.0214,12.0214,12.0214,11.9994,11.9407,11.8893,11.8195,11.7094,11.7094,11.669,11.5185,11.5589,0.0,11.3681,11.3717,11.28,11.0267,10.979,10.9386,10.8799,10.7404,10.7367,10.9202,10.479,10.2278,10.272,9.8045,9.4992,9.4282,9.0324,8.7245,0.0,0.0,0.0,0.0,0.0,0.0,0.0,0.0,0.0,0.0,0.0,0.0,0.0,0.0,0.0,0.0,0.0,0.0,0.0,0.0,0.0,0.0,10.2412,10.5605,10.6119,10.7881,10.979,11.1808,11.2102,11.2396,11.2873,11.291,11.3093,11.357,11.3497,11.3607,11.4084,11.4378,11.4598,11.4598,11.4598,11.4598,11.4598,11.5075,11.5296,11.5296,11.581,11.5773,11.5296,11.5296,11.5002,11.4598,11.4598,11.4598,11.4598,11.4598,11.4598,0.0,0.0,0.0,0.0,0.0,11.2212,11.2212,11.2212,11.2396,11.291,11.4305,11.5002,11.5699,11.7792,11.7828,11.7425,11.8599,11.8599,11.8306,11.8783,11.948,12.0104,12.0104,12.0508,12.0912,12.0912,12.0581,12.0178,11.97,11.9297,0.0,11.7425,11.7498,11.7094,11.5296,11.5589,11.5296,11.3497,11.3901,11.3607,11.1698,11.1478,11.1295,11.0891,10.8799,0.0,0.0,0.0,10.1611,9.9841,9.7292,0.0,0.0,0.0,0.0,0.0,0.0,0.0,0.0,8.2785,8.1443,0.0,0.0,0.0,0.0,0.0,0.0,0.0,0.0,0.0,0.0,0.0,0.0,0.0,0.0,0.0,0.0,10.8909,11.3607,11.5883,11.3717,11.2726,11.4892,11.4488,11.3974,11.4084,11.4084,11.3974,11.3974,11.4598,11.4892,11.4892,11.5699,0.0,0.0,0.0,11.6287,11.6287,11.6287,11.6287,11.6287,11.6287,11.6287,11.6287,11.6287,11.6287,11.6287,11.6287,11.6287,11.6287,11.6287,11.6287,11.6103,11.4488,11.3864,11.3864,11.3864,11.3864,11.3864,11.3864,0.0,0.0,11.5002,11.5589,11.6397,11.7902,11.7828,11.7498,11.9003,11.9407,11.937,11.959,12.0178,12.0802,12.0912,12.0802,12.0802,12.0802,12.0104,11.9407,11.9297,11.8783,11.8012,11.7204,11.7718,11.7278,11.4305,11.5075,11.5002,11.2102,11.2983,11.3791,11.3497,0.0,0.0,11.3277,11.0083,10.8982,11.1295,10.5279,9.9876,9.5884,9.5799,9.5213,9.3951,9.4019,9.5312,9.7899,9.9331,10.0287,10.0474,8.771,8.5236,0.0,0.0,0.0,0.0,0.0,0.0,0.0,0.0,0.0,0.0,0.0,0.0,0.0,0.0,0.0,10.9679,11.3203,11.5883,11.7682,11.6801,11.6507,11.7608,11.7021,11.6801,11.7388,11.6911,11.6507,11.6507,11.5993,11.5773,11.5773,11.6507,11.7021,11.7021,11.7608,11.7902,11.7902,11.7902,11.7902,11.7902,11.7902,0.0,11.7902,11.7902,11.7902,11.7902,11.7902,11.7902,11.7902,11.7902,11.7902,11.7792,11.6177,11.5479,11.5479,11.5479,11.5479,11.5479,11.5479,11.5589,11.5883,11.6507,11.6801,11.7131,11.8122,11.7828,0.0,11.8416,11.8195,11.8012,11.9297,11.97,11.9994,12.0691,12.0398,11.9884,11.9884,11.9187,11.8416,11.7792,11.7498,11.7204,11.6397,11.6911,11.7021,11.5699,11.581,11.5773,11.5185,11.5296,11.4782,11.28,11.2616,11.2396,11.1698,11.1001,11.1295,11.2983,10.8993,10.5193,10.1898,10.2416,10.2897,10.3209,10.3791,10.4233,10.4233,10.498,10.5213,10.4683,9.9989,9.8666,0.0,0.0,0.0,0.0,0.0,0.0,0.0,0.0,0.0,0.0,0.0,9.8741,10.3696,0.0,11.0083,11.4121,11.6507,11.8085,11.8893,11.8306,11.7792,11.7792,11.7094,11.6801,11.7204,11.7204,11.7021,11.6617,11.6984,11.6984,11.6617,11.7388,11.7792,11.7792,11.8195,11.8416,11.8416,11.8416,11.8416,11.8416,11.8416,11.8416,11.8416,11.8416,11.8416,11.8416,11.8416,11.8416,11.8416,11.8416,11.8416,11.8306,11.7498,11.7204,11.7204,11.7204,11.7204,11.7204,11.7204,11.7204,11.7278,11.7718,11.7792,11.8012,11.8783,11.8416,11.8012,11.8783,11.8709,11.8599,11.9407,11.9884,12.0398,12.0802,12.0581,12.0288,12.0288,11.959,11.8893,11.8489,11.8085,11.7498,11.669,11.6911,11.6911,11.6103,11.5993,11.5993,11.5993,11.5993,11.5479,11.4305,11.4194,11.4011,11.3607,11.3203,11.2895,11.2471,11.0736,10.868,10.6372,10.6666,10.6993,10.6989,10.7272,10.7397,10.7007,10.8091,10.8706,10.8598,10.8192,10.717,0.0,0.0,0.0,0.0,0.0,0.0,0.0,9.6286,9.8043,10.2106,10.399,10.6413,11.0781,11.3203,11.5296,11.7498,11.9003,11.9774,11.959,11.9003,11.8306,11.7498,11.669,11.6287,11.6507,11.7094,11.7204,11.6507,11.7682,11.8122,11.7498,11.8195,11.8709,11.8893,11.9003,11.9187,11.9407,11.9407,11.9407,11.9407,11.9407,11.9407,11.9407,11.9407,11.9407,11.9407,11.9407,11.9407,11.9407,11.9407,11.9407,11.9407,11.9407,11.9407,11.9297,11.8599,11.8416,11.8416,11.8416,11.8416,11.8416,11.8416,11.8416,11.8489,11.9187,11.8893,11.8489,11.9187,11.937,11.9407,11.959,12.0104,12.0691,12.0875,12.0802,12.0618,12.0618,11.9994,11.937,11.937,11.8819,11.8195,11.7498,11.7425,11.7094,11.6103,11.5993,11.5993,11.5993,11.5993,11.5993,11.5993,11.5993,11.5993,11.5993,11.5296,11.4016,11.2027,11.171,11.1092,10.9908,10.9996,10.991,10.9393,10.9624,10.9624,10.9624,11.0779,11.1673,11.2289,11.3478,11.2591,8.9711,8.8793,9.0445,9.6392,9.7929,9.9906,0.0,10.8088,10.8082,11.1405,11.28,11.4305,11.6984,11.7682,11.8416,12.0214,12.0618,12.0508,11.97,11.948,11.9187,11.8416,11.7608,11.7314,11.8085,11.8195,11.8195,11.8122,11.8306,11.8416,11.8306,11.9003,11.9811,12.0581,12.1279,12.2013,12.271,12.2784,12.2784,12.2784,12.2784,12.2784,12.2784,12.2784,12.2784,12.2784,12.2784,12.2784,12.2784,12.2784,12.2784,12.2784,12.2784,12.2784,12.2417,11.9517,11.8416,11.8416,11.8416,11.8416,11.8416,11.8416,11.8416,11.8416,11.8489,11.8489,11.8416,11.8489,11.8489,11.8709,11.9407,11.97,11.9884,12.0691,12.0288,11.97,11.97,11.9113,11.8489,11.8489,11.8489,11.8416,11.8306,11.8306,11.7792,11.6213,11.5993,11.5993,11.5993,11.5993,11.5993,11.5993,11.5993,11.5993,11.5993,11.5296,11.4371,11.353,11.2814,11.2279,11.2089,11.2774,11.3493,11.4,11.4815,11.5108,11.5108,11.5321,11.5405,11.5515,11.569,11.4809,9.9181,9.9255,10.0503,10.5605,10.7183,10.8505,11.2396,11.3093,11.3607,11.5883,11.669,11.7498,11.948,12.0214,12.0802,12.1499,12.1572,12.1279,12.0508,11.9884,11.948,11.9113,11.8783,11.8489,11.8416,11.8783,11.8893,11.8416,11.97,12.0288,11.9884,12.1095,12.1903,12.2307,12.26,12.3004,12.3298,12.3298,12.3298,12.3298,12.3298,12.3298,12.3298,12.3298,12.3298,12.3298,12.3298,12.3298,12.3298,12.3298,12.3298,12.3298,12.3298,12.3298,12.3114,12.1793,12.1316,12.1316,12.1316,12.1316,12.1316,12.1316,12.1316,12.1316,12.1316,12.0912,12.0581,12.0581,12.0214,11.9921,12.0288,12.0398,12.0398,12.0802,12.0581,12.0398,12.0398,12.0104,11.9884,11.9884,11.9884,11.97,11.9187,11.9076,11.8709,11.7608,11.6984,11.669,11.669,11.6287,11.5993,11.5993,11.5993,11.581,11.5296,11.5002,11.4479,11.3707,11.3805,11.3805,11.3805,11.4607,11.5222,11.5516,11.581,11.5993,11.5993,11.5993,11.5993,11.5993,11.5993,11.5589,10.5899,10.689,10.8101,11.2286,11.4194,11.5185,11.6213,11.6911,11.7682,11.8819,11.9113,11.9517,12.0985,12.1683,12.2196,12.238,12.2196,12.1903,12.1279,12.0508,11.9994,11.9994,11.9994,11.97,11.9113,11.9811,11.9994,11.948,12.1279,12.2196,12.1609,12.271,12.3408,12.3591,12.3591,12.3701,12.3995,12.3995,12.3995,12.3995,12.3995,12.3995,12.3995,12.3995,12.3995,12.3922,12.3701,12.3591,12.3591,12.3408,12.3298,12.3298,12.3298,12.3298,12.3298,12.3518,12.3518,12.3298,12.3298,12.3298,12.3298,12.3298,12.3298,12.3298,12.3298,12.2894,12.238,12.238,12.2013,12.1609,12.1609,12.1609,12.1609,12.1609,12.1389,12.1205,12.1205,12.1095,12.0912,12.0912,12.0912,12.0691,12.0104,11.9994,11.9774,11.9187,11.8416,11.7792,11.7608,11.6801,11.6287,11.6287,11.6103,11.5773,11.5185,11.4892,11.4598,11.4305,11.4598,11.4892,11.5112,11.5699,11.5993,11.5993,11.5993,11.5993,11.5993,11.5993,11.5993,11.5993,11.5993,11.5993,10.7073,10.8101,10.99,11.4708,11.7094,11.8709,12.0288,12.0691,12.0802,12.0802,12.0802,12.1095,12.1903,12.2086,12.238,12.3114,12.26,12.2086,12.2086,12.1389,12.0875,12.0875,12.0875,12.0875,12.0802,12.1572,12.1976,12.1976,12.2784,12.3298,12.3224,12.3298,12.3701,12.4399,12.4509,12.4803,12.5573,12.5573,12.5573,12.5573,12.5573,12.5573,12.5573,12.5573,12.5573,12.5573,12.4803,12.4509,12.4399,12.3591,12.3298,12.3298,12.3298,12.3298,12.3408,12.4179,12.3995,12.3298,12.3298,12.3298,12.3298,12.3298,12.3298,12.3298,12.3298,12.3298,12.3298,12.3298,12.3224,12.3224,12.3224,12.3224,12.3224,12.3224,12.26,12.2086,12.2086,12.1499,12.0912,12.0912,12.0912,12.0912,12.0912,12.0875,12.0875,12.0802,12.0104,11.9187,11.8489,11.7718,11.7204,11.7204,11.6507,11.5993,11.5993,11.5222,11.5112,11.5883,11.5185,11.5112,11.5883,11.5993,11.5993,11.5993,11.5993,11.5993,11.5993,11.5993,11.5993,11.5993,11.5993,11.5993,11.1515,11.2983,11.4488,11.8306,11.97,12.0214,12.0802,12.0912,12.0912,12.0912,11.9994,11.97,12.0985,12.1279,12.1719,12.3114,12.3518,12.3481,12.3004,12.271,12.2086,12.0985,12.1389,12.1499,12.0985,12.1609,12.2086,12.2086,12.3298,12.4105,12.4105,12.5096,12.5794,12.6087,12.6601,12.7005,12.7299,12.7299,12.7299,12.7299,12.7299,12.7299,12.7299,12.7299,12.7005,12.6491,12.6197,12.5794,12.528,12.4986,12.4876,12.4876,12.4876,12.4876,12.4876,12.517,12.55,12.561,12.5096,12.4876,12.4876,12.4876,12.4876,12.4876,12.4876,12.4509,12.4105,12.4105,12.3701,12.3298,12.3298,12.3298,12.3298,12.3298,12.3114,12.2894,12.2894,12.2307,12.1683,12.1683,12.1279,12.0912,12.0912,12.0912,12.0912,12.0912,12.0178,11.9297,11.8489,11.8195,11.8012,11.8012,11.7792,11.7388,11.6801,11.6507,11.6287,11.5993,11.5699,11.5993,11.6801,11.6287,11.6287,11.6801,11.6287,11.5993,11.5993,11.5993,11.5993,11.5993,11.5993,11.5993,11.4121,11.5993,11.7608,12.0581,12.1499,12.1683,12.1389,12.1279,12.1205,12.0985,11.9994,11.97,12.1095,12.1609,12.2196,12.3518,12.4399,12.4582,12.3812,12.3995,12.3701,12.2307,12.2894,12.3077,12.2307,12.2894,12.3077,12.26,12.3995,12.5096,12.5317,12.6308,12.7005,12.7299,12.7813,12.8106,12.8106,12.8106,12.8106,12.8106,12.8106,12.8106,12.8106,12.7813,12.7409,12.6895,12.6308,12.572,12.5206,12.4986,12.4803,12.4803,12.4803,12.4803,12.4876,12.517,12.5796,12.6504,12.62,12.6308,12.6491,12.6197,12.6087,12.6087,12.5794,12.528,12.4975,12.5423,12.5076,12.4811,12.5077,12.5212,12.5212,12.5212,12.4989,12.4804,12.4804,12.4173,12.3579,12.3579,12.3215,12.2763,12.2763,12.2763,12.2593,12.1994,12.1394,12.0583,11.9381,11.9003,11.8783,11.8783,11.8599,11.8195,11.7718,11.7608,11.7388,11.6911,11.6874,11.7094,11.7608,11.7094,11.7094,11.7608,11.7094,11.6874,11.6874,11.6926,11.6883,11.6883,11.6984,11.6836,11.5185,11.7388,11.9187,12.1572,12.271,12.3114,12.2307,12.2086,12.1793,12.0985,12.0691,12.0912,12.1609,12.249,12.3298,12.4179,12.5096,12.55,12.4693,12.528,12.55,12.4693,12.528,12.539,12.4582,12.528,12.5206,12.3701,12.4913,12.6087,12.6895,12.7005,12.7409,12.8106,12.818,12.818,12.818,12.818,12.818,12.818,12.818,12.818,12.818,12.7409,12.7005,12.6895,12.528,12.4582,12.4509,12.3787,12.3505,12.3505,12.3603,12.3603,12.3713,12.4411,12.5283,12.628,12.691,12.7573,12.8088,12.7389,12.7095,12.6985,12.6176,12.6005,12.6101,12.7115,12.7311,12.7495,12.8472,12.8702,12.8702,12.8702,12.8098,12.7607,12.7607,12.689,12.6398,12.6398,12.6323,12.6323,12.6323,12.6323,12.5686,12.3979,12.37,12.3012,12.1103,12.0178,11.97,11.97,11.9003,11.8489,11.8489,11.8489,11.8489,11.8489,11.8489,11.8536,11.862,11.8509,11.8519,11.8603,11.8603,11.8492,11.8492,11.8681,11.8696,11.87,11.8878,11.8428,11.8893,12.0802,12.2196,12.282,12.3114,12.3114,12.2307,12.2086,12.1499,11.948,11.8085,11.7278,11.7498,11.8709,12.0104,12.1609,12.4509,12.6308,12.55,12.6601,12.6968,12.5573,12.6087,12.6308,12.55,12.6675,12.7299,12.6895,12.6711,12.6711,12.6895,12.7996,12.8804,12.8987,12.9611,12.9905,12.9905,12.9905,12.9905,12.9905,12.9905,12.9905,12.9905,12.9097,12.84,12.7702,12.6711,12.5904,12.5416,12.6005,12.6185,12.6312,12.699,12.7319,12.7319,12.7619,12.8193,12.8878,12.9126,12.9306,12.9606,13.0023,13.0098,13.0098,12.991,12.9422,12.9013,12.9219,12.8807,12.8395,12.8589,12.8702,12.8702,12.8702,12.8513,12.84,12.84,12.7796,12.7192,12.7192,12.6701,12.6323,12.6323,12.6323,12.6099,12.5686,12.5083,12.3664,12.1197,12.0691,12.0581,12.0581,12.0398,12.0288,12.0288,12.0288,12.0288,12.0288,11.97,11.9901,12.1204,12.0208,12.0108,12.1394,12.0907,12.0607,12.0607,12.057,12.0605,12.0605,12.0594,12.0182,12.1683,12.3408,12.4289,12.3885,12.4105,12.3591,12.0618,12.0214,11.959,11.6397,11.5296,11.5185,11.5883,11.8195,12.0398,12.1719,12.561,12.8106,12.6895,12.8106,12.8694,12.7409,12.829,12.8694,12.7886,12.8877,12.9501,12.9207,12.84,12.8106,12.851,12.9024,12.9501,12.9795,13.0309,13.0492,13.0492,13.0492,13.0492,13.0492,13.0492,13.0492,13.0492,12.9812,12.9207,12.8701,12.8004,12.7412,12.7085,12.7584,12.7912,12.7916,12.8511,12.8702,12.8702,12.8702,12.9302,13.0115,13.0494,13.0886,13.1311,13.1191,13.1193,13.1193,13.1231,13.0891,13.0626,13.1105,13.0795,13.0521,13.0588,13.0572,13.0496,13.0077,13.0,13.0,13.0,12.969,12.9309,12.9309,12.9004,12.8731,12.8731,12.8731,12.8413,12.7598,12.7113,12.5905,12.3621,12.2578,12.2206,12.2206,12.2206,12.2206,12.2206,12.2206,12.2206,12.2206,12.1685,12.1906,12.2926,12.2103,12.2111,12.308,12.2625,12.2399,12.2399,12.2399,12.2376,12.2409,12.2495,12.2115,12.3701,12.5096,12.55,12.4803,12.517,12.4289,11.8819,11.8085,11.7388,11.3093,11.2873,11.3901,11.5406,11.8783,12.1793,12.3188,12.7189,12.9685,12.8694,12.9905,13.0602,12.9905,13.1006,13.1593,13.0896,13.1483,13.1703,13.1006,13.05,13.0294,13.0492,12.9905,12.9905,13.0492,13.0573,13.0676,13.0676,13.0915,13.0942,13.0942,13.0942,13.0942,13.0868,13.0193,12.9904,12.991,12.9221,12.889,12.889,12.9115,12.919,12.9114,12.9185,12.9296,12.9296,12.9106,12.967,13.0506,13.1301,13.2089,13.2727,13.2022,13.1794,13.1794,13.1906,13.1906,13.2011,13.2829,13.2981,13.2982,13.31,13.318,13.2987,13.2179,13.1987,13.191,13.191,13.1795,13.1679,13.1679,13.1679,13.1679,13.1679,13.1679,13.1229,12.9588,12.9307,12.861,12.7089,12.5185,12.3985,12.3985,12.391,12.3797,12.3797,12.3797,12.3797,12.3797,12.3797,12.3907,12.4014,12.3976,12.4009,12.4189,12.4224,12.4224,12.4224,12.4218,12.4282,12.4312,12.4405,12.3919,12.4289,12.5096,12.5684,12.55,12.5573,12.4582,12.0178,11.9297,11.7902,11.2506,11.1992,11.291,11.3791,11.5699,11.8599,12.3481,12.6087,12.84,13.0712,13.1887,13.2401,13.2291,13.2511,13.2621,13.2511,13.3208,13.3612,13.3502,13.421,13.3506,13.0581,13.1006,13.1006,13.0492,13.1398,13.182,13.182,13.2693,13.3082,13.3082,13.3082,13.3082,13.3082,13.1631,13.1296,13.1825,13.0399,12.9796,12.9872,13.1418,13.1606,13.1099,13.1888,13.2296,13.2219,13.1386,13.1276,13.1498,13.1613,13.1807,13.2192,13.4078,13.48,13.4877,13.5596,13.5327,13.479,13.5005,13.4495,13.3984,13.4115,13.4103,13.3987,13.391,13.3295,13.2795,13.2795,13.2179,13.1679,13.1679,13.1679,13.1679,13.1679,13.1679,13.1615,13.1294,13.0691,13.0127,12.9802,12.6881,12.4778,12.4778,12.4212,12.3797,12.3797,12.3797,12.3797,12.3797,12.3797,12.4113,12.4879,12.4986,12.5322,12.6207,12.6207,12.6207,12.6207,12.6184,12.6197,12.6197,12.6206,12.5822,12.561,12.6014,12.6197,12.5794,12.5684,12.4068,11.7902,11.7094,11.5883,10.9386,10.9386,11.0781,11.1588,11.5075,11.9076,12.2674,12.6711,12.9905,13.1483,13.2401,13.3103,13.3667,13.421,13.4567,13.5206,13.5998,13.6408,13.6408,13.6917,13.6102,13.342,13.3279,13.3015,13.2232,13.3062,13.3586,13.3586,13.45,13.5005,13.5005,13.5005,13.5005,13.5005,13.3834,13.3519,13.382,13.27,13.2206,13.2276,13.3208,13.3316,13.2999,13.3511,13.368,13.3603,13.2679,13.241,13.2295,13.191,13.1679,13.1987,13.368,13.4487,13.4988,13.5911,13.6103,13.618,13.618,13.5911,13.5488,13.4988,13.4911,13.4795,13.4411,13.3603,13.2987,13.2987,13.2295,13.1679,13.1679,13.1679,13.1679,13.1679,13.1679,13.1679,13.1679,13.141,13.1102,13.1102,12.9208,12.7704,12.7208,12.6407,12.5911,12.5911,12.5529,12.53,12.53,12.53,12.5516,12.5997,12.5997,12.6195,12.6717,12.6678,12.6678,12.6678,12.6678,12.6678,12.6678,12.6678,12.6486,12.6381,12.6601,12.6491,12.5867,12.5684,12.3701,11.6103,11.5185,11.4011,10.711,10.7294,10.9202,11.0304,11.4598,11.9076,12.2086,12.6381,13.0081,13.2006,13.2904,13.3815,13.5286,13.6206,13.69,13.7604,13.8172,13.8587,13.8587,13.9016,13.8201,13.599,13.5387,13.4816,13.3984,13.4972,13.5503,13.5503,13.6372,13.6901,13.6901,13.6901,13.6901,13.6824,13.6114,13.5825,13.5819,13.5093,13.4718,13.4603,13.4795,13.4795,13.4795,13.4603,13.4718,13.4718,13.3487,13.2987,13.2872,13.1987,13.1679,13.1795,13.2487,13.341,13.4487,13.5295,13.6103,13.6796,13.6796,13.6796,13.6603,13.5988,13.5795,13.5603,13.4795,13.3987,13.341,13.3103,13.2487,13.191,13.1679,13.1679,13.1679,13.1679,13.1679,13.1679,13.1679,13.1679,13.1679,13.1679,13.1102,13.0487,12.9794,12.8794,12.8102,12.7909,12.7294,12.6909,12.6678,12.6678,12.6678,12.6678,12.6678,12.6678,12.6678,12.6678,12.6678,12.6678,12.6678,12.6678,12.6678,12.6678,12.6678,12.539,12.5794,12.5794,12.5684,12.5684,12.4105,11.8195,11.6397,11.4378,10.8578,10.8101,10.9496,11.1808,11.2689,11.5479,12.3077,12.2894,12.4801,13.3204,13.4396,13.5414,13.7927,13.8993,13.9298,13.8587,13.8587,13.8587,13.8587,14.0197,13.97,13.6319,13.6095,13.5684,13.4816,13.6623,13.7496,13.7496,13.8489,13.9028,13.9028,13.9028,13.9028,13.9028,13.8199,13.7792,13.7792,13.6885,13.6103,13.5488,13.618,13.6603,13.6488,13.5719,13.5911,13.6296,13.3872,13.2987,13.2872,13.1987,13.1679,13.1679,13.1795,13.291,13.4487,13.5295,13.6103,13.6796,13.6796,13.6796,13.6796,13.668,13.668,13.6488,13.5603,13.5295,13.4911,13.3295,13.291,13.2603,13.191,13.1679,13.1679,13.1679,13.1679,13.1679,13.1679,13.1679,13.1679,13.1679,13.1602,13.1602,13.1487,12.9987,12.8794,12.8025,12.7794,12.7486,12.6678,12.6678,12.6678,12.6678,12.6678,12.6678,12.6678,12.6678,12.6678,12.6678,12.6678,12.6678,12.6678,12.6678,12.6678,12.5904,12.6381,12.6381,12.6381,12.5317,12.3004,11.8306,11.6213,11.3681,10.7991,10.8285,10.9679,11.012,11.302,11.6516,12.0334,12.3504,12.6877,13.1098,13.3408,13.563,13.7808,13.8828,13.969,14.0499,14.057,14.0799,14.1329,14.1998,14.1792,14.0373,13.9915,13.9189,13.8386,13.908,13.9528,13.9528,14.039,14.0912,14.0912,14.0912,14.0912,14.0796,13.9989,13.9604,13.9604,13.8719,13.8104,13.7796,13.8219,13.7988,13.7488,13.718,13.6988,13.6603,13.5103,13.418,13.368,13.2795,13.2102,13.1795,13.2295,13.3295,13.4411,13.4718,13.5719,13.6796,13.6796,13.6796,13.6796,13.6796,13.6796,13.668,13.6411,13.5911,13.5218,13.3987,13.341,13.2679,13.191,13.1679,13.1679,13.1679,13.1679,13.1679,13.1679,13.1679,13.1679,13.1679,13.1679,13.1679,13.1679,13.0679,12.9794,12.9487,12.8986,12.8294,12.7486,12.7409,12.7217,12.6678,12.6678,12.6678,12.6678,12.6678,12.6678,12.6678,12.6678,12.6678,12.6678,12.6678,12.6678,12.55,12.6711,12.7299,12.7299,12.5096,12.2086,11.8709,11.592,11.28,10.8101,10.8688,10.979,10.8909,11.2396,11.6107,11.8264,12.212,12.6205,13.0097,13.2287,13.4506,13.7093,13.8182,13.931,14.0588,14.1489,14.2181,14.2989,14.3297,14.3605,14.3912,14.3297,14.2412,14.0989,14.1181,14.1181,14.0989,14.1604,14.1912,14.1912,14.1912,14.1912,14.1912,14.1296,14.0796,14.0604,13.9989,13.9488,13.9296,13.9296,13.9104,13.8796,13.8604,13.8181,13.7796,13.668,13.5911,13.5295,13.4103,13.3487,13.3295,13.3603,13.4295,13.4988,13.4988,13.5911,13.6796,13.6796,13.6796,13.6796,13.6796,13.6796,13.6796,13.6796,13.6296,13.568,13.4795,13.3987,13.3103,13.2295,13.191,13.1679,13.1679,13.1679,13.1679,13.1679,13.1679,13.1679,13.1679,13.1679,13.1679,13.1679,13.1179,13.0794,13.0487,12.991,12.9217,12.8294,12.8025,12.7602,12.7101,12.6794,12.6678,12.6678,12.6678,12.6678,12.6678,12.6678,12.6678,12.6678,12.6678,12.6678,12.3591,12.6308,12.8106,12.8106,12.5096,12.1683,11.9994,11.5883,11.1698,10.9312,10.9386,10.979,10.8909,11.012,11.2902,11.79,11.7429,12.0194,13.1225,13.1412,13.1988,13.6293,13.7603,13.8104,13.8104,14.0412,14.2181,14.2989,14.3912,14.4797,14.5605,14.5682,14.4489,14.1989,14.2681,14.2681,14.1912,14.1912,14.1912,14.1912,14.1912,14.1912,14.1912,14.1912,14.1412,14.0604,14.0604,14.0104,13.9296,13.9296,13.9796,14.0489,13.9604,13.9796,14.0412,13.8681,13.8104,13.7796,13.6103,13.5988,13.6603,13.5795,13.6103,13.6796,13.6796,13.6796,13.6796,13.6796,13.6796,13.6796,13.6796,13.6796,13.6796,13.6796,13.6796,13.6488,13.5719,13.4911,13.3987,13.318,13.2295,13.1679,13.1679,13.1679,13.1679,13.1679,13.1679,13.1679,13.1679,13.1679,13.1679,13.1679,13.1679,13.141,13.0602,13.0487,13.0102,12.9217,12.8409,12.7909,12.7909,12.7101,12.6678,12.6678,12.6678,12.6678,12.6678,12.6678,12.6678,12.6678,12.6678,12.6678,11.9884,12.1719,12.2894,12.1793,11.9297,11.669,11.5075,11.2212,10.9386,10.7514,10.7771,10.8285,10.7991,11.0193,11.3499,11.8205,11.9327,12.2607,13.0902,13.2592,13.421,13.7308,13.9488,14.0681,14.0681,14.1412,14.2489,14.3912,14.422,14.499,14.6413,14.649,14.5913,14.4489,14.3605,14.2989,14.2681,14.2181,14.1912,14.1912,14.1912,14.1912,14.1912,14.1912,14.1681,14.1489,14.1489,14.1296,14.1104,14.1104,14.0912,14.0604,14.0296,13.9989,13.9604,13.9104,13.8604,13.7988,13.7488,13.7103,13.6911,13.718,13.7488,13.768,13.768,13.7296,13.6796,13.6796,13.6796,13.6796,13.6796,13.6796,13.6796,13.6796,13.6796,13.6603,13.5719,13.5295,13.4718,13.3295,13.2795,13.241,13.1795,13.1679,13.1679,13.1679,13.1679,13.1679,13.1679,13.1679,13.1679,13.1679,13.1679,13.1602,13.1295,13.1295,13.0987,13.0102,12.9794,12.941,12.8794,12.7986,12.7486,12.7486,12.6986,12.6678,12.6678,12.6678,12.6678,12.6678,12.6678,12.6678,11.6397,11.8893,12.0508,11.8819,11.6617,11.4415,11.28,11.0487,10.8505,10.7514,10.8175,10.9092,10.9833,11.1497,11.4379,11.9091,11.9875,12.2786,13.1013,13.2295,13.3718,13.718,13.9296,14.0681,14.1296,14.1989,14.3105,14.4797,14.4913,14.549,14.6798,14.6913,14.6682,14.6182,14.4489,14.3412,14.3105,14.2297,14.1912,14.1912,14.1912,14.1912,14.1912,14.1912,14.1912,14.1912,14.1912,14.1912,0.0,14.1912,14.1604,14.1104,14.1104,14.0796,14.0296,14.0296,13.9989,13.9488,13.9181,13.8911,13.8796,13.8988,13.8988,13.8988,13.8681,13.768,13.6796,13.6796,13.6796,13.6796,13.6796,13.6796,13.668,13.6411,13.6603,13.6603,13.5719,13.5488,13.5218,13.4103,13.341,13.2795,13.2295,13.191,13.1679,13.1679,13.1679,13.1679,13.1679,13.1679,13.1679,13.1679,13.1679,13.1679,13.1679,13.1679,13.1487,13.0987,13.0679,13.0294,12.9717,12.8525,12.7909,12.7909,12.7101,12.6678,12.6678,12.6678,12.6678,12.6678,12.6678,12.6678,0.0,11.6984,11.97,11.8012,11.592,11.3901,11.2286,11.0193,0.0,10.8615,10.979,11.1295,11.2873,11.3419,11.5168,12.0182,11.9198,12.1397,13.1603,13.1295,13.191,13.6911,13.8104,13.9104,14.0796,14.2297,14.3912,14.5605,14.572,14.6105,14.6913,14.6913,14.6913,14.6913,14.5297,14.4105,14.3181,14.2412,14.1989,14.1912,14.1912,14.1912,14.1912,14.1912,14.1912,14.1912,14.1912,14.1912,14.1912,14.1912,14.1912,14.1912,14.1912,14.1912,14.1912,14.1912,14.1912,14.1797,14.0989,14.1181,14.1797,14.0989,14.0681,14.0412,13.9604,13.8219,13.6911,13.6911,13.6796,13.6796,13.6796,13.6796,13.6603,13.5795,13.618,13.6603,13.5795,13.5603,13.5603,13.5488,13.418,13.318,13.3103,13.241,13.1795,13.1795,13.1679,13.1679,13.1679,13.1679,13.1679,13.1679,13.1679,13.1679,13.1679,13.1679,13.1679,13.1679,13.0987,13.0602,13.0602,12.8986,12.8102,12.8102,12.7217,12.6794,12.6678,12.6678,12.6678,12.6678,12.6678,12.6678,10.6302,0.0,11.1405,11.0377,10.9679,10.8982,0.0,10.7404,10.7,10.7,10.7294,10.7807,10.8799,11.0609,11.3375,11.7801,11.8583,12.2008,13.1679,13.5795,13.9604,14.3989,14.2989,14.2604,14.4297,14.4297,14.4489,14.5605,14.572,14.6105,14.6913,14.6913,14.6913,14.6913,14.5913,14.499,14.4105,14.3181,14.2489,14.1912,14.1912,14.1912,14.1912,14.1912,14.1912,14.1912,14.1912,14.1912,14.1912,14.1912,14.1912,14.1912,14.1912,14.1912,14.1912,14.1912,14.1912,14.1912,14.1681,14.1681,14.1912,14.1681,14.1104,14.0604,14.0412,13.9104,13.7796,13.7796,13.7296,13.6796,13.6796,13.6796,13.668,13.6488,13.668,13.668,13.6488,13.6488,13.6296,13.5603,13.5218,13.4718,13.4103,13.3295,13.2679,13.2679,13.2102,13.1679,13.1679,13.1679,13.1679,13.1679,13.1679,13.1679,13.1679,13.1679,13.1679,13.1679,13.1487,13.141,13.141,13.041,12.991,12.991,12.8409,12.7294,12.6678,12.6678,12.6678,12.6678,12.6678,12.6678,10.3806,10.6009,10.7991,10.678,10.7294,10.7697,10.6192,10.6413,10.7183,10.7881,10.8101,10.8897,11.1578,11.389,11.6506,11.9993,12.2315,12.6411,13.4205,13.9412,14.322,14.549,14.4913,14.4682,14.5605,14.5297,14.5297,14.6182,14.6297,14.6413,14.6913,14.6913,14.6913,14.6913,14.649,14.572,14.4412,14.3489,14.2681,14.1912,14.1912,14.1912,14.1912,14.1912,14.1912,14.1912,14.1912,14.1912,14.1912,14.1912,14.1912,14.1912,14.1912,14.1912,14.1912,14.1912,14.1912,14.1912,14.1912,14.1912,14.1912,14.1912,14.1604,14.1181,14.1181,14.0296,13.9104,13.8296,13.7488,13.6796,13.6796,13.6796,13.668,13.6296,13.6488,13.668,13.6296,13.6488,13.668,13.618,13.5795,13.5411,13.4911,13.3795,13.2987,13.2987,13.2295,13.1679,13.1679,13.1679,13.1679,13.1679,13.1679,13.1679,13.1679,13.1679,13.1679,13.1679,13.1679,13.1679,13.1679,13.091,13.0102,12.9294,12.8409,12.7486,12.6678,12.6678,12.6678,12.6678,12.6678,12.6678,10.3586,10.5972,10.7587,10.6119,10.711,10.7918,10.6119,10.6706,10.7991,10.9496,11.011,11.1826,11.6594,11.8992,12.1211,12.3701,12.7507,13.2102,13.768,14.1912,14.4489,14.4913,14.5413,14.5797,14.6105,14.599,14.6182,14.6798,14.6913,14.6913,14.6913,14.6913,14.6913,14.6913,14.6913,14.6182,14.4605,14.3682,14.2912,14.2104,14.1989,14.1912,14.1912,14.1912,14.1912,14.1912,14.1912,14.1912,14.1912,14.1912,14.1912,14.1912,14.1912,14.1912,14.1912,14.1912,14.1912,14.1912,14.1912,14.1912,14.1912,14.1912,14.1912,14.1912,14.1912,14.1296,14.0296,13.8681,13.768,13.6988,13.6796,13.6796,13.6603,13.5911,13.6296,13.6603,13.5911,13.6296,13.6796,13.6796,13.618,13.5719,13.5719,13.4411,13.3295,13.318,13.2487,13.191,13.1679,13.1679,13.1679,13.1679,13.1679,13.1679,13.1679,13.1679,13.1679,13.1679,13.1679,13.1679,13.1679,13.0987,12.991,12.8294,12.8217,12.7717,12.6909,12.6794,12.6678,12.6678,12.6678,12.6678,10.432,10.722,10.9386,10.8505,10.7514,10.7,10.7991,10.7881,10.7881,10.8799,11.0709,11.3287,11.6913,11.9706,12.2198,12.469,13.041,13.5911,13.9681,14.2604,14.522,14.7413,14.649,14.6297,14.7682,14.7105,14.6798,14.6913,14.6913,14.6913,14.6913,14.6913,14.6913,14.6913,14.6913,14.6413,14.549,14.4605,14.3797,14.2912,14.2181,14.1912,14.1912,14.1912,14.1912,14.1912,14.1912,14.1912,14.1912,14.1912,14.1912,14.1912,14.1912,14.1912,14.1912,14.1912,14.1912,14.1912,14.1912,14.1912,14.1912,14.1912,14.1912,14.1912,14.1912,14.1296,14.0412,13.9412,13.8488,13.768,13.6988,13.6796,13.6796,13.6603,13.668,13.6796,13.6603,13.668,13.6796,13.6796,13.668,13.6603,13.6603,13.5795,13.4911,13.4218,13.341,13.2487,13.1795,13.1679,13.1679,13.1679,13.1679,13.1679,13.1679,13.1679,13.1679,13.1679,13.1679,13.1679,13.1679,13.1602,13.1102,13.0102,12.941,12.8602,12.7717,12.6986,12.6678,12.6678,12.6678,12.6678,10.3917,10.5899,10.8101,11.1295,11.2506,11.3093,11.3791,11.4108,11.428,11.4085,11.5089,11.7106,12.0389,12.3611,12.7685,13.3881,13.7184,13.9989,14.2912,14.5105,14.6913,14.8106,14.7913,14.7913,14.8182,14.7413,14.6913,14.6913,14.6913,14.6913,14.6913,14.6913,14.6913,14.6913,14.6913,14.6682,14.6413,14.549,14.4412,14.3105,14.2297,14.1912,14.1912,14.1912,14.1912,14.1912,14.1912,14.1912,14.1912,14.1912,14.1912,14.1912,14.1912,14.1912,14.1912,14.1912,14.1912,14.1912,14.1912,14.1912,14.1912,14.1912,14.1912,14.1912,14.1912,14.1604,14.1104,14.0219,13.9104,13.7873,13.6988,13.6796,13.6796,13.6796,13.6796,13.6796,13.6796,13.6796,13.6796,13.6796,13.6796,13.6796,13.6796,13.6103,13.5218,13.4411,13.3603,13.2679,13.1795,13.1679,13.1679,13.1679,13.1679,13.1679,13.1679,13.1679,13.1679,13.1679,13.1679,13.1679,13.1679,13.1679,13.1295,13.0487,13.0102,12.9217,12.7909,12.7486,12.7101,12.6678,12.6678,12.6678,10.4394,10.6218,10.8919,11.4093,11.5993,11.7204,11.8893,11.9497,11.971,11.9814,12.0494,12.1987,12.521,12.8878,13.3794,14.0984,14.2412,14.3412,14.5913,14.7413,14.8298,14.849,14.9106,14.9221,14.8606,14.7682,14.7182,14.7182,14.699,14.6913,14.6913,14.6913,14.6913,14.6913,14.6913,14.6913,14.6913,14.6105,14.4913,14.3412,14.2604,14.2104,14.1912,14.1912,14.1912,14.1912,14.1912,14.1912,14.1912,14.1912,14.1912,14.1912,14.1912,14.1912,14.1912,14.1912,14.1912,14.1912,14.1912,14.1912,14.1912,14.1912,14.1912,14.1912,14.1912,14.1912,14.1681,14.0796,13.9488,13.8181,13.7296,13.6988,13.6796,13.6796,13.6796,13.6796,13.6796,13.6796,13.6796,13.6796,13.6796,13.6796,13.6796,13.618,13.5488,13.4718,13.391,13.2987,13.2102,13.1795,13.1679,13.1679,13.1679,13.1679,13.1679,13.1679,13.1679,13.1679,13.1679,13.1679,13.1679,13.1679,13.141,13.0794,13.0602,12.9717,12.8217,12.8025,12.7486,12.6678,12.6678,12.6678,10.7073,11.1181,11.5605,11.6708,11.4415,11.3497,12.0288,12.0311,11.9713,12.2577,12.5412,12.8009,13.0597,13.5213,13.8819,13.9527,14.222,14.5105,14.7682,14.8106,14.849,14.9298,14.949,14.949,14.9413,14.8606,14.8106,14.8106,14.7413,14.6913,14.6913,14.6913,14.6913,14.6913,14.6913,14.6913,14.6913,14.6105,14.522,14.4297,14.3412,14.2604,14.1912,14.1912,14.1912,14.1912,14.1912,14.1912,14.1912,14.1912,14.1912,14.1912,14.1912,14.1912,14.1912,14.1912,14.1912,14.1912,14.1912,14.1912,14.1912,14.1912,14.1912,14.1912,14.1912,14.1912,14.1681,14.0796,13.9912,13.8988,13.8181,13.7411,13.6796,13.6796,13.6796,13.6796,13.6796,13.6796,13.6796,13.6796,13.6796,13.6796,13.6796,13.668,13.6411,13.5488,13.4718,13.391,13.2987,13.2179,13.1679,13.1679,13.1679,13.1679,13.1679,13.1679,13.1679,13.1679,13.1679,13.1679,13.1679,13.1679,13.1679,13.1602,13.091,12.9987,12.9102,12.8294,12.7486,12.6678,12.6678,12.6678,10.6596,11.0318,11.4471,11.7297,11.7605,11.8991,12.5373,12.7495,12.8283,12.9111,13.0687,13.2718,13.5212,13.9401,14.2797,14.3912,14.5605,14.7298,14.8798,14.9413,14.9914,15.0221,15.0221,15.0221,15.0221,14.899,14.8182,14.8182,14.7413,14.6913,14.6913,14.6913,14.6913,14.6913,14.6913,14.6913,14.6913,14.6605,14.599,14.522,14.3797,14.2681,14.1912,14.1912,14.1912,14.1912,14.1912,14.1912,14.1912,14.1912,14.1912,14.1912,14.1912,14.1912,14.1912,14.1912,14.1912,14.1912,14.1912,14.1912,14.1912,14.1912,14.1912,14.1912,14.1912,14.1912,14.1797,14.1489,14.0412,13.9104,13.8296,13.7488,13.6796,13.6796,13.6796,13.6796,13.6796,13.6796,13.6796,13.6796,13.6796,13.6796,13.6796,13.6796,13.6488,13.5603,13.4795,13.3987,13.3103,13.2179,13.1679,13.1679,13.1679,13.1679,13.1679,13.1679,13.1679,13.1679,13.1679,13.1679,13.1679,13.1679,13.1679,13.1679,13.141,13.0602,12.9217,12.8909,12.7986,12.6678,12.6678,12.6678,10.8487,11.2122,11.6693,11.9704,12.1711,12.4606,13.0602,13.2287,13.3108,13.4719,13.5308,13.6103,13.8104,14.1489,14.4489,14.5913,14.749,14.8913,14.9798,15.0414,15.0798,15.1106,15.1106,15.1106,15.1106,14.9606,14.8606,14.8606,14.749,14.6913,14.6913,14.6913,14.6913,14.6913,14.6913,14.6913,14.6913,14.6913,14.649,14.572,14.4489,14.3297,14.2297,14.1989,14.1912,14.1912,14.1912,14.1912,14.1912,14.1912,14.1912,14.1912,14.1912,14.1912,14.1912,14.1912,14.1912,14.1912,14.1912,14.1912,14.1912,14.1912,14.1912,14.1912,14.1912,14.1912,14.1912,14.1912,14.0604,13.9219,13.8604,13.7603,13.6796,13.6796,13.6796,13.6796,13.6796,13.6796,13.6796,13.6796,13.6796,13.6796,13.6796,13.6796,13.6603,13.5988,13.4988,13.4103,13.3487,13.241,13.1679,13.1679,13.1679,13.1679,13.1679,13.1679,13.1679,13.1679,13.1679,13.1679,13.1679,13.1679,13.1679,13.1679,13.1679,13.0987,12.9602,12.9294,12.8486,12.7101,12.6794,12.6678,11.3602,11.7988,12.3991,12.4701,12.6199,12.9075,13.5281,13.3383,13.2206,13.8927,13.9102,13.8411,13.9219,14.1412,14.3412,14.4297,14.7298,14.9798,15.0606,15.0721,15.0991,15.1914,15.1991,15.1991,15.1991,15.0491,14.949,14.949,14.7913,14.6913,14.6913,14.6913,14.6913,14.6913,14.6913,14.6913,14.6913,14.6913,14.649,14.572,14.572,14.4797,14.3105,14.2297,14.1912,14.1912,14.1912,14.1912,14.1912,14.1912,14.1912,14.1912,14.1912,14.1912,14.1912,14.1912,14.1912,14.1912,14.1912,14.1912,14.1912,14.1912,14.1912,14.1912,14.1912,14.1912,14.1912,14.1912,14.0604,13.9296,13.9296,13.8104,13.6796,13.6796,13.6796,13.6796,13.6796,13.6796,13.6796,13.6796,13.6796,13.6796,13.6796,13.6796,13.6796,13.6796,13.5411,13.4295,13.4295,13.2795,13.1679,13.1679,13.1679,13.1679,13.1679,13.1679,13.1679,13.1679,13.1679,13.1679,13.1679,13.1679,13.1679,13.1679,13.1679,13.1295,13.0487,12.9602,12.8794,12.7909,12.7101,12.6678,11.2419,11.7384,12.2786,12.3802,12.7887,13.3196,13.8872,13.7815,13.6718,14.0601,14.112,14.1181,14.2604,14.4489,14.6105,14.6913,14.8913,15.0606,15.1491,15.1606,15.1683,15.1991,15.1991,15.1991,15.1991,15.0991,15.0106,14.949,14.849,14.749,14.6913,14.6913,14.6913,14.6913,14.6913,14.6913,14.6913,14.6913,14.6798,14.649,14.5297,14.4182,14.3105,14.2912,14.2412,14.1912,14.1912,14.1912,14.1912,14.1912,14.1912,14.1912,14.1912,14.1912,14.1912,14.1912,14.1912,14.1912,14.1912,14.1912,14.1912,14.1912,14.1912,14.1912,14.1912,14.1912,14.1797,14.1181,14.0219,13.9219,13.8604,13.7603,13.6796,13.6796,13.6796,13.6796,13.6796,13.6796,13.6796,13.6796,13.6796,13.6796,13.6796,13.6796,13.6603,13.5988,13.4988,13.391,13.2603,13.1987,13.1679,13.1679,13.1679,13.1679,13.1679,13.1679,13.1679,13.1679,13.1679,13.1679,13.1679,13.1679,13.1679,13.1679,13.1679,13.1295,13.0487,13.0217,12.941,12.7909,12.7717,12.7217,11.7798,12.2408,12.7305,12.9708,13.2818,13.6701,14.2005,14.2005,14.1286,14.2598,14.2604,14.2989,14.499,14.6221,14.7413,14.8913,15.0298,15.1414,15.1914,15.1991,15.1991,15.1991,15.1991,15.1991,15.1991,15.1221,15.0414,14.9606,14.8683,14.7798,14.6913,14.6913,14.6913,14.6913,14.6913,14.6913,14.6913,14.6913,14.6913,14.6913,14.5605,14.4489,14.3605,14.2912,14.2412,14.1912,14.1912,14.1912,14.1912,14.1912,14.1912,14.1912,14.1912,14.1912,14.1912,14.1912,14.1912,14.1912,14.1912,14.1912,14.1912,14.1912,14.1912,14.1912,14.1912,14.1912,14.1681,14.0796,13.9989,13.9104,13.8296,13.7488,13.6796,13.6796,13.6796,13.6796,13.6796,13.6796,13.6796,13.6796,13.6796,13.6796,13.6796,13.6796,13.6603,13.6103,13.4988,13.3718,13.191,13.1679,13.1679,13.1679,13.1679,13.1679,13.1679,13.1679,13.1679,13.1679,13.1679,13.1679,13.1679,13.1679,13.1679,13.1679,13.1679,13.1487,13.0987,13.0679,12.9794,12.8409,12.8102,12.7486,12.5932,13.0023,13.4594,13.8803,13.9293,14.0004,14.4809,14.599,14.5797,14.4913,14.4105,14.4297,14.6798,14.7182,14.799,15.0414,15.1491,15.1991,15.1991,15.1991,15.1991,15.1991,15.1991,15.1991,15.1991,15.1298,15.0491,14.9721,14.8798,14.7913,14.7105,14.6913,14.6913,14.6913,14.6913,14.6913,14.6913,14.6913,14.6913,14.6913,14.599,14.522,14.4297,14.2797,14.2104,14.1989,14.1912,14.1912,14.1912,14.1912,14.1912,14.1912,14.1912,14.1912,14.1912,14.1912,14.1912,14.1912,14.1912,14.1912,14.1912,14.1912,14.1912,14.1912,14.1912,14.1912,14.1681,14.0719,13.9912,13.9104,13.8181,13.7411,13.6796,13.6796,13.6796,13.6796,13.6796,13.6796,13.6796,13.6796,13.6796,13.6796,13.6796,13.6796,13.668,13.6603,13.5218,13.3603,13.191,13.1679,13.1679,13.1679,13.1679,13.1679,13.1679,13.1679,13.1679,13.1679,13.1679,13.1679,13.1679,13.1679,13.1679,13.1679,13.1679,13.1679,13.1679,13.0987,13.0102,12.9217,12.8409,12.7486,12.0588,12.6486,13.2507,13.6488,14.1225,14.5395,14.7192,14.8182,14.8413,14.7605,14.7182,14.7682,14.949,14.9914,15.0298,15.1491,15.1914,15.1991,15.1991,15.1991,15.1991,15.1991,15.1991,15.1991,15.1991,15.1799,15.1414,15.0491,14.9721,14.8798,14.799,14.7298,14.6913,14.6913,14.6913,14.6913,14.6913,14.6913,14.6913,14.6913,14.5413,14.4605,14.4412,14.3989,14.3489,14.2797,14.2181,14.1912,14.1912,14.1912,14.1912,14.1912,14.1912,14.1912,14.1912,14.1912,14.1912,14.1912,14.1912,14.1912,14.1912,14.1912,14.1912,14.1912,14.1912,14.1912,14.1604,13.9989,13.9412,13.8988,13.7488,13.6911,13.6796,13.6796,13.6796,13.6796,13.6796,13.6796,13.6796,13.6796,13.6796,13.6796,13.6796,13.6796,13.6411,13.4988,13.391,13.291,13.1795,13.1679,13.1679,13.1679,13.1679,13.1679,13.1679,13.1679,13.1679,13.1679,13.1679,13.1679,13.1679,13.1679,13.1679,13.1679,13.1679,13.1679,13.1679,13.1487,13.0679,12.9217,12.8986,12.8102,12.3525,12.9111,13.4292,13.9705,14.4271,14.7798,14.8606,14.949,15.0106,14.999,14.9683,14.9798,15.1106,15.1683,15.2183,15.3106,15.3183,15.3106,15.2683,15.2606,15.2491,15.1991,15.1991,15.1991,15.1991,15.1991,15.1606,15.0798,14.999,14.9106,14.8182,14.7413,14.6913,14.6913,14.6913,14.6913,14.6913,14.6913,14.6913,14.6913,14.522,14.422,14.3797,14.3412,14.2989,14.2489,14.2104,14.1912,14.1912,14.1912,14.1912,14.1912,14.1912,14.1912,14.1912,14.1912,14.1912,14.1912,14.1912,14.1912,14.1912,14.1912,14.1912,14.1912,14.1912,14.1912,14.1489,13.9796,13.9296,13.8911,13.718,13.6796,13.6796,13.6796,13.6796,13.6796,13.6796,13.6796,13.6796,13.6796,13.6796,13.6796,13.6796,13.6796,13.618,13.4603,13.391,13.318,13.191,13.1679,13.1679,13.1679,13.1679,13.1679,13.1679,13.1679,13.1679,13.1679,13.1679,13.1679,13.1679,13.1679,13.1679,13.1679,13.1679,13.1679,13.1679,13.1679,13.0794,12.9217,12.9217,12.8294,12.6703,13.2482,13.7487,14.4118,14.7105,14.8606,14.9298,15.0221,15.1183,15.1991,15.1683,15.1414,15.2299,15.2991,15.3799,15.4607,15.4607,15.4299,15.3607,15.3376,15.2991,15.2299,15.2106,15.1991,15.1991,15.1991,15.1683,15.0991,14.999,14.9221,14.849,14.749,14.6913,14.6913,14.6913,14.6913,14.6913,14.6913,14.6913,14.6913,14.5413,14.3989,14.2912,14.2297,14.2104,14.2104,14.1989,14.1912,14.1912,14.1912,14.1912,14.1912,14.1912,14.1916,14.1983,14.1983,14.2022,14.2085,14.2085,14.2085,14.2098,14.1971,14.1983,14.1996,14.1928,14.1912,14.1593,13.989,13.9403,13.9004,13.7394,13.6896,13.6899,13.6899,13.6797,13.6796,13.6796,13.6796,13.6796,13.6796,13.6796,13.6796,13.6796,13.6796,13.618,13.4603,13.4295,13.3718,13.191,13.1679,13.1679,13.1679,13.1679,13.1679,13.1679,13.1679,13.1679,13.1679,13.1679,13.1679,13.1679,13.1679,13.1679,13.1679,13.1679,13.1679,13.1679,13.1602,13.0718,12.9217,12.8986,12.8217,11.9199,12.9497,13.989,14.45,14.749,14.9413,14.949,15.0721,15.2106,15.2914,15.2991,15.3183,15.3991,15.4299,15.4607,15.5492,15.4991,15.4491,15.4376,15.3684,15.3299,15.3106,15.2491,15.1991,15.1991,15.1991,15.1991,15.1799,15.0414,14.9413,14.9298,14.7798,14.6913,14.6913,14.6913,14.6913,14.6913,14.6913,14.6913,14.6913,14.599,14.4297,14.2104,14.2681,14.2912,14.2912,14.2181,14.1912,14.1912,14.1912,14.1912,14.1912,14.1912,14.2085,14.2278,14.2278,14.2581,14.2887,14.2887,14.2887,14.28,14.2406,14.2278,14.2307,14.1983,14.1912,14.1623,14.0213,13.9802,13.9479,13.8013,13.7516,13.7191,13.7191,13.6988,13.6796,13.6796,13.6796,13.6796,13.6796,13.6796,13.6796,13.6796,13.6796,13.618,13.4603,13.4295,13.3718,13.191,13.1679,13.1679,13.1679,13.1679,13.1679,13.1679,13.1679,13.1679,13.1679,13.1679,13.1679,13.1679,13.1679,13.1679,13.1679,13.1679,13.1679,13.1679,13.0987,13.0217,12.9217,12.8409,12.7602,12.2702,13.2202,14.0296,14.4605,14.7605,14.949,14.949,15.0798,15.2106,15.2491,15.3299,15.4184,15.5107,15.5607,15.6107,15.6492,15.6184,15.5799,15.5299,15.4915,15.4414,15.3376,15.2991,15.2491,15.1991,15.1991,15.1991,15.1991,15.0414,14.949,14.949,14.7798,14.6913,14.6913,14.6913,14.6913,14.6913,14.7086,14.7102,14.6806,14.5992,14.4713,14.3201,14.3085,14.2901,14.2703,14.2278,14.229,14.2504,14.2504,14.2504,14.2504,14.2504,14.2598,14.2696,14.2696,14.2785,14.3008,14.3008,14.3008,14.298,14.28,14.2696,14.2701,14.2484,14.2097,14.1612,14.051,13.9822,13.9194,13.8104,13.7708,13.7503,13.7311,13.7185,13.7011,13.6797,13.6796,13.6796,13.6796,13.6796,13.6796,13.6796,13.6796,13.618,13.4603,13.4295,13.3718,13.191,13.1679,13.1679,13.1679,13.1679,13.1679,13.1679,13.1679,13.1679,13.1679,13.1679,13.1679,13.1679,13.1679,13.1679,13.1679,13.1679,13.1487,13.0987,13.0679,12.9794,12.8486,12.8102,12.7486,12.5403,13.2718,13.7988,14.3105,14.6297,14.8413,14.9298,15.0606,15.1799,15.2183,15.3491,15.4799,15.5607,15.6492,15.7107,15.7107,15.7107,15.6915,15.6184,15.5915,15.5299,15.3799,15.3376,15.2991,15.2106,15.1991,15.1991,15.1991,15.0414,14.949,14.949,14.7798,14.6913,14.6913,14.7029,14.711,14.711,14.749,14.74,14.6797,14.6394,14.5576,14.4501,14.3903,14.3414,14.3012,14.2694,14.2679,14.3008,14.3008,14.3008,14.3008,14.3008,14.31,14.3097,14.3097,14.3194,14.3286,14.3286,14.3286,14.3198,14.3199,14.3097,14.3085,14.2996,14.2502,14.1893,14.1087,14.041,13.9681,13.8705,13.8284,13.8208,13.7695,13.7491,13.7311,13.6899,13.6796,13.6796,13.6796,13.6796,13.6796,13.6796,13.6796,13.618,13.4603,13.4295,13.3718,13.191,13.1679,13.1679,13.1679,13.1679,13.1679,13.1679,13.1679,13.1679,13.1679,13.1679,13.1679,13.1679,13.1679,13.1602,13.141,13.141,13.1102,13.0487,13.0102,12.9217,12.7909,12.7717,12.7294,12.2317,12.6986,13.1487,13.8988,14.2797,14.549,14.8798,15.0221,15.1221,15.2914,15.3876,15.4799,15.5607,15.6492,15.7107,15.7107,15.7107,15.7107,15.6992,15.6299,15.5492,15.4491,15.3799,15.2991,15.2106,15.1991,15.1991,15.1991,15.0414,14.949,14.949,14.7798,14.6913,14.6913,14.7294,14.7512,14.7512,14.7896,14.7586,14.6797,14.76,14.7094,14.5396,14.5396,14.508,14.4591,14.3513,14.2994,14.3008,14.3008,14.3008,14.2891,14.3008,14.3205,14.3521,14.3521,14.3692,14.3905,14.3905,14.3905,14.39,14.3612,14.3521,14.3405,14.3112,14.3008,14.2802,14.2288,14.2109,14.1681,14.038,13.9799,13.9385,13.8512,13.81,13.7585,13.6882,13.6796,13.6796,13.6796,13.6796,13.6796,13.6796,13.6796,13.618,13.4603,13.4295,13.3718,13.191,13.1679,13.1679,13.1679,13.1679,13.1679,13.1679,13.1679,13.1679,13.1679,13.1679,13.1679,13.1679,13.1679,13.1295,13.0602,13.0602,13.0487,13.0487,12.8794,12.8025,12.7909,12.7101,12.6678,11.9323,12.3793,12.8102,13.3487,13.8911,14.3297,14.499,14.8106,15.0991,15.2183,15.3106,15.3991,15.4799,15.6107,15.7107,15.7107,15.7107,15.7107,15.7107,15.6799,15.6299,15.5415,15.4607,15.3684,15.2914,15.2299,15.2114,15.2409,15.081,14.9917,15.0201,14.8592,14.7699,14.7699,14.7788,14.8018,14.8212,14.8286,14.8406,14.829,14.7504,14.7114,14.7001,14.5279,14.4798,14.5097,14.4091,14.36,14.36,14.36,14.36,14.36,14.36,14.3704,14.3811,14.3811,14.39,14.3984,14.3984,14.3984,14.3984,14.3896,14.3811,14.3806,14.3692,14.3287,14.2789,14.2592,14.2207,14.1511,14.0507,14.0113,13.9699,13.8682,13.8102,13.7712,13.7491,13.7382,13.7382,13.7382,13.7382,13.7382,13.7382,13.7309,13.6613,13.4913,13.4415,13.3718,13.191,13.1679,13.1679,13.1679,13.1679,13.1679,13.1679,13.1679,13.1679,13.1679,13.1179,13.091,13.091,13.041,12.9987,12.9717,12.9102,12.8794,12.8794,12.8217,12.7602,12.7101,12.6794,12.6678,11.5522,11.9792,12.4409,12.8909,13.391,13.8681,14.2604,14.5913,14.8798,15.1106,15.2491,15.3491,15.3991,15.5299,15.6415,15.6992,15.7107,15.7107,15.7107,15.7107,15.6799,15.5915,15.4991,15.4224,15.3512,15.2703,15.2395,15.278,15.119,15.0291,15.0621,14.9001,14.82,14.8314,14.8314,14.8414,14.8802,14.8802,14.8916,14.9218,14.7695,14.75,14.8203,14.5586,14.4882,14.5703,14.4492,14.3984,14.3984,14.3984,14.3984,14.3984,14.3984,14.3984,14.3984,14.3984,14.3984,14.3984,14.3984,14.3984,14.3984,14.3984,14.3984,14.3984,14.3984,14.3593,14.3203,14.3203,14.2812,14.2109,14.0898,14.0195,13.9608,13.8788,13.8383,13.8206,13.8206,13.7979,13.7794,13.7794,13.7794,13.7794,13.7794,13.7384,13.6511,13.5006,13.4389,13.3505,13.1897,13.1679,13.1679,13.1679,13.1679,13.1679,13.1679,13.1679,13.1679,13.1679,13.091,13.0487,13.0487,12.9717,12.9102,12.8794,12.8217,12.7794,12.7486,12.7486,12.7217,12.6678,12.6678,12.6678,0.0,0.0,0.0,12.5101,12.7717,13.1718,14.172,14.3412,14.4412,14.949,15.1991,15.3183,15.329,15.3905,15.5021,15.6782,15.7099,15.7107,15.7099,15.7099,15.6791,15.6013,15.5089,15.4399,15.39,15.3115,15.28,15.3189,15.1583,15.0611,15.0586,14.899,14.8286,14.8608,14.8615,14.8807,14.9218,14.9218,14.9218,14.9218,14.8281,14.8281,14.8984,14.6484,14.5781,14.6484,14.4687,14.3984,14.3984,14.3984,14.3984,14.3984,14.3984,14.3984,14.3984,14.3984,14.3984,14.3984,14.3984,14.3984,14.3984,14.3984,14.3984,14.3984,14.3984,14.3984,14.3984,14.3984,14.3984,14.3593,14.1914,14.0195,13.8906,13.8906,13.8906,13.8906,13.8906,13.8299,13.7781,13.7781,13.7781,13.7781,13.7781,13.7184,13.6206,13.4983,13.4096,13.3124,13.1919,13.1705,13.1679,13.1679,13.1679,13.1679,13.1679,13.1679,13.1679,13.1679,13.091,13.0487,13.041,12.9602,12.8717,12.7909,12.7909,12.7486,12.6678,12.6678,12.6678,12.6678,12.6678,12.6678,11.0214,0.0,0.0,0.0,0.0,0.0,13.2218,13.6603,14.1104,14.6798,14.8798,15.0391,15.3206,15.359,15.4207,15.5806,15.6104,15.6313,15.6593,15.7093,15.7609,15.7613,15.6293,15.5301,15.5191,15.3887,15.3203,15.3493,15.1991,15.12,15.1514,14.98,14.8913,14.9012,14.9012,14.9097,14.9218,14.9218,14.8906,14.8281,14.8007,14.7695,14.7304,14.5898,14.539,14.5586,14.4492,14.3984,14.3984,14.3984,14.3984,14.3984,14.3984,14.3984,14.3984,14.3984,14.3984,14.3984,14.3984,14.3984,14.3984,14.3984,14.3984,14.3984,14.3984,14.3984,14.3984,14.3984,14.3984,14.3593,14.1914,14.0195,13.8906,13.8906,13.8906,13.8906,13.8906,13.8699,13.8593,13.8593,13.8593,13.8593,13.8593,13.7694,13.6598,13.5685,13.4392,13.3206,13.2214,13.1818,13.1679,13.1679,13.1679,13.1679,13.1679,13.1679,13.1487,13.091,12.9987,12.9294,12.8602,12.7794,12.7294,12.6986,12.6986,12.6909,12.6678,12.6678,12.6678,12.6678,12.6678,12.6678,0.0,0.0,11.3599,11.4984,0.0,0.0,12.9294,13.362,13.8285,14.5593,14.8183,14.9912,15.2083,15.2305,15.2615,15.389,15.4411,15.4984,15.5982,15.6875,15.7494,15.7687,15.6511,15.5805,15.5896,15.44,15.3619,15.3888,15.2413,15.1185,15.0703,14.9804,14.9218,14.9218,14.9218,14.9218,14.9218,14.9218,14.8906,14.8398,14.8086,14.7812,14.7617,14.6015,14.5507,14.5781,14.4492,14.3984,14.3984,14.3984,14.3984,14.3984,14.3984,14.3984,14.3984,14.3984,14.3984,14.3984,14.3984,14.3984,14.3984,14.3984,14.3984,14.3984,14.3984,14.3984,14.3984,14.3984,14.3789,14.3203,14.1797,14.0507,13.9414,13.8984,13.8906,13.8906,13.8906,13.8906,13.8906,13.8906,13.8906,13.8789,13.8398,13.7486,13.6386,13.5391,13.4221,13.311,13.2313,13.1976,13.1918,13.1705,13.1679,13.1679,13.1679,13.141,13.0987,13.0487,12.9294,12.8409,12.7909,12.7101,12.6678,12.6678,12.6678,12.6678,12.6678,12.6678,12.6678,12.6678,12.6678,12.6486,10.9483,0.0,0.0,11.4791,11.5676,0.0,12.8909,13.1713,13.4813,14.3604,14.7092,14.8709,14.8976,14.9195,14.9585,15.0303,15.1483,15.3091,15.531,15.6414,15.6895,15.7014,15.6093,15.5698,15.5998,15.449,15.361,15.3984,15.2617,15.0898,14.8984,14.8984,14.9101,14.9101,14.9101,14.9101,14.9218,14.9218,14.9218,14.8984,14.8398,14.8281,14.8711,14.6484,14.5781,14.6211,14.4687,14.3984,14.3984,14.3984,14.3984,14.3984,14.3984,14.3984,14.3984,14.3984,14.3984,14.3984,14.3984,14.3984,14.3984,14.3984,14.3984,14.3984,14.3984,14.3984,14.3984,14.3984,14.3398,14.25,14.1718,14.0781,13.9882,13.9101,13.8906,13.8906,13.8906,13.8906,13.8906,13.8906,13.8906,13.8593,13.7812,13.6914,13.5893,13.4683,13.3791,13.3014,13.2301,13.2217,13.2098,13.1716,13.1679,13.1679,13.1679,13.0987,13.0487,13.041,12.8794,12.7909,12.7794,12.7101,12.6678,12.6678,12.6678,12.6678,12.6678,12.6678,12.6678,12.6678,12.6678,12.6178,11.1791,11.2022,0.0,11.3214,11.4407,0.0,11.91,12.1908,12.5484,13.1018,13.4115,13.6588,13.9193,14.0515,14.1294,14.1392,14.481,14.92,15.4397,15.5918,15.6608,15.6883,15.5484,15.4591,15.4681,15.3197,15.2184,15.2304,15.1289,14.9687,14.7187,14.7812,14.8203,14.8203,14.8203,14.8515,14.9218,14.9218,14.8789,14.8203,14.8711,14.789,14.6093,14.6289,14.5703,14.4492,14.4101,14.3984,14.3984,14.3984,14.3984,14.3984,14.3984,14.3984,14.3984,14.3984,14.3984,14.3984,14.3984,14.3984,14.3984,14.3984,14.3984,14.3984,14.3984,14.3984,14.3984,14.3984,14.289,14.1718,14.1484,14.0312,13.9101,13.8906,13.8906,13.8906,13.8906,13.8906,13.8906,13.8906,13.8906,13.8593,13.7812,13.6914,13.6015,13.4996,13.3891,13.3114,13.2683,13.2374,13.2098,13.1716,13.1679,13.1679,13.1679,13.0987,13.0217,12.9487,12.8486,12.7602,12.6986,12.6794,12.6678,12.6678,12.6678,12.6678,12.6678,12.6678,12.6678,12.6678,12.6678,12.6178,11.3522,11.2714,11.2791,11.3214,11.3714,0.0,0.0,11.9501,12.2198,12.7901,12.9685,13.109,13.4018,13.4812,13.5487,13.6795,14.0808,14.4493,14.6719,15.1796,15.5487,15.621,15.5507,15.4804,15.4297,15.3086,15.2109,15.1211,15.0312,14.9101,14.7304,14.7304,14.75,14.789,14.789,14.8281,14.9218,14.9218,14.8789,14.789,14.8281,14.7617,14.5898,14.6015,14.5507,14.4609,14.4218,14.3984,14.3984,14.3984,14.3984,14.3984,14.3984,14.3984,14.3984,14.3984,14.3984,14.3984,14.3984,14.3984,14.3984,14.3984,14.3984,14.3984,14.3984,14.3984,14.3984,14.3984,14.3086,14.1992,14.1601,14.0507,13.9414,13.8984,13.8906,13.8906,13.8906,13.8906,13.8789,13.8281,13.8281,13.8007,13.7109,13.6211,13.539,13.4492,13.3896,13.3306,13.2796,13.261,13.2311,13.1779,13.1679,13.1679,13.1679,13.0217,12.9217,12.9217,12.7602,12.6717,12.6678,12.6678,12.6678,12.6678,12.6678,12.6678,12.6678,12.6678,12.6678,12.6678,12.6294,12.5601,11.4984,11.3714,11.3505,11.3805,11.3608,11.439,0.0,0.0,0.0,12.532,12.5999,12.628,12.829,12.8698,12.9297,13.1015,13.5508,13.8203,13.6601,14.4609,15.1015,15.2187,15.3593,15.3789,15.2187,15.1093,15.039,15.0,14.8398,14.7382,14.7382,14.6718,14.6718,14.7382,14.7617,14.8086,14.8906,14.8906,14.8593,14.789,14.7695,14.7187,14.6289,14.5586,14.5195,14.5,14.4297,14.3984,14.3984,14.3984,14.3984,14.3984,14.3984,14.3984,14.3984,14.3984,14.3984,14.3984,14.3984,14.3984,14.3984,14.3984,14.3984,14.3984,14.3984,14.3984,14.3984,14.3789,14.3203,14.2304,14.1484,14.0586,13.9687,13.8906,13.8593,13.8593,13.8398,13.8281,13.789,13.7187,13.6797,13.6484,13.6093,13.5508,13.4687,13.3906,13.3789,13.361,13.2897,13.2694,13.2497,13.2,13.1717,13.1501,13.1424,12.9187,12.8107,12.8586,12.6602,12.5594,12.6291,12.6404,12.6486,12.6678,12.6678,12.6678,12.6678,12.6678,12.6678,12.6678,12.5794,12.4909,11.5907,11.4984,11.5615,11.3789,11.4684,11.5499,11.3304,0.0,11.4903,11.4419,0.0,11.6686,11.6518,0.0,0.0,11.8203,12.4101,12.8593,12.7617,13.3086,13.8086,14.0507,14.6211,14.8398,14.4492,14.2617,14.3515,14.789,14.3906,14.25,14.539,14.5507,14.5507,14.5586,14.6289,14.7187,14.8007,14.8007,14.8007,14.789,14.7109,14.6289,14.539,14.5312,14.4882,14.4101,14.3984,14.3984,14.3984,14.3984,14.3984,14.3984,14.3984,14.3984,14.3984,14.3984,14.3984,14.3984,14.3984,14.3984,14.3984,14.3984,14.3984,14.3984,14.3984,14.3984,14.3906,14.3086,14.2304,14.1406,14.0586,13.9687,13.8789,13.8007,13.7695,13.75,13.6797,13.6015,13.539,13.5312,13.4101,13.3515,13.4883,13.5117,13.4687,13.3906,13.3789,13.3584,13.3187,13.2907,13.2709,13.259,13.1607,13.082,13.0381,12.8699,12.73,12.6703,12.5706,12.5018,12.4787,12.5302,12.5909,12.6678,12.6678,12.6678,12.6678,12.6678,12.6678,12.6678,12.5794,12.4909,11.6499,11.7205,11.8601,11.5598,11.6706,11.75,11.3708,11.2686,11.2608,11.3012,0.0,0.0,0.0,0.0,0.0,0.0,11.9414,12.2187,12.0312,12.5312,13.1289,13.7382,14.0312,14.1797,14.1992,14.1797,14.3203,14.6914,14.3281,14.2187,14.5117,14.4804,14.4804,14.5312,14.5703,14.6289,14.7109,14.7109,14.6914,14.6406,14.6015,14.539,14.4492,14.4492,14.4297,14.3984,14.3984,14.3984,14.3984,14.3984,14.3984,14.3984,14.3984,14.3984,14.3984,14.3984,14.3984,14.3984,14.3984,14.3984,14.3984,14.3984,14.3984,14.3984,14.3984,14.3711,14.3203,14.289,14.1406,13.9882,13.9492,13.8398,13.7304,13.6914,13.6797,13.6601,13.5703,13.5312,13.4687,13.3711,13.3008,13.2617,13.2812,13.2812,13.2695,13.2304,13.2304,13.2218,13.1806,13.2108,13.1992,13.1307,13.1187,13.0808,12.9506,12.7807,12.6679,12.6277,12.5512,12.4982,12.4908,12.5087,12.5413,12.58,12.6188,12.6515,12.6515,12.68,12.682,12.642,12.5192,12.4409,11.8609,11.9693,12.1011,11.6602,11.7205,11.8002,11.4188,11.2804,11.2385,11.2921,11.2112,0.0,0.0,0.0,11.2109,11.2617,0.0,11.6914,11.4101,11.8086,12.3906,13.1093,13.2383,13.4297,13.8281,13.8203,13.9609,14.3789,14.1015,14.0703,14.4414,14.4218,14.4218,14.4609,14.5117,14.5507,14.5898,14.5898,14.5507,14.4609,14.4609,14.4297,14.3711,14.3906,14.3984,14.3984,14.3984,14.3984,14.3984,14.3984,14.3984,14.3984,14.3984,14.3984,14.3984,14.3984,14.3906,14.3711,14.3711,14.3711,14.3711,14.3711,14.3789,14.3984,14.3984,14.3398,14.2695,14.2187,14.0507,13.8789,13.8281,13.7187,13.6211,13.6015,13.5898,13.5586,13.4609,13.4101,13.3515,13.2109,13.1601,13.1211,13.0586,13.0898,13.1211,13.1211,13.1211,13.109,13.088,13.1305,13.1287,13.0207,13.0403,12.9886,12.8192,12.6681,12.5793,12.5512,12.49,12.4586,12.4898,12.4781,12.4889,12.5084,12.5913,12.6302,12.6302,12.6703,12.6703,12.629,12.4806,12.3887,12.3208,12.239,12.221,11.5707,11.5213,11.5599,11.3288,11.3987,11.45,11.2114,0.0,0.0,0.0,0.0,0.0,0.0,0.0,0.0,0.0,11.0586,11.3593,11.7187,12.1406,12.5898,13.1015,12.7812,12.8906,13.7304,13.4687,13.5703,14.25,14.3593,14.3711,14.289,14.4492,14.4882,14.4101,14.4101,14.3711,14.289,14.289,14.289,14.289,14.3593,14.3984,14.3984,14.3984,14.3984,14.3984,14.3984,14.3984,14.3984,14.3984,14.3984,14.3984,14.3984,14.3515,14.2812,14.2812,14.2812,14.2812,14.2812,14.3398,14.3984,14.3984,14.3398,14.2382,14.0781,13.9609,13.8515,13.6797,13.6289,13.6093,13.5195,13.5,13.4609,13.289,13.1914,13.1093,13.0195,12.9297,12.8711,12.8711,13.0117,13.1211,13.1211,13.1211,13.1211,13.1211,13.0892,13.0511,12.9998,12.8889,12.7617,12.6209,12.5312,12.4491,12.3593,12.3306,12.3386,12.4316,12.4004,12.4201,12.5084,12.5913,12.6302,12.6302,12.629,12.629,12.629,12.4806,12.3418,0.0,0.0,13.0118,12.1585,12.1888,12.238,11.4789,11.3895,11.4207,11.2213,0.0,0.0,0.0,0.0,0.0,0.0,0.0,0.0,0.0,10.7109,10.789,10.8515,11.6406,12.1992,12.2617,12.6484,13.0195,13.3086,13.4883,13.7617,14.1718,14.2187,14.2695,14.3593,14.3593,14.3515,14.3203,14.3203,14.2812,14.1914,14.1914,14.1914,14.1914,14.2187,14.2304,14.2304,14.2304,14.2304,14.2304,14.2304,14.2695,14.3086,14.2617,14.2695,14.3203,14.3203,14.3007,14.2695,14.2109,14.1914,14.1992,14.2617,14.2617,14.25,14.3007,14.1797,14.0117,13.9492,13.789,13.6211,13.5586,13.5,13.4609,13.4297,13.3789,13.3008,13.1914,13.1015,13.0117,12.9218,12.8789,12.8593,12.8593,12.9101,12.9492,12.9492,12.9492,12.9297,12.8711,12.9018,12.8781,12.75,12.8003,12.7609,12.539,12.4414,12.3789,12.3515,12.3392,12.3501,12.3813,12.3711,12.4008,12.4902,12.5683,12.58,12.5293,12.6208,12.5903,12.4391,12.3515,12.2814,13.0,13.2695,0.0,12.6015,12.6093,12.5898,11.7383,11.6406,11.6718,11.4609,0.0,0.0,0.0,0.0,0.0,0.0,0.0,0.0,0.0,10.3789,10.3594,10.3281,11.1015,11.6718,11.7695,12.1484,12.5898,13.0781,13.289,13.5586,13.9414,14.0781,14.1718,14.2187,14.2617,14.25,14.1914,14.2187,14.1718,14.0586,14.0898,14.1015,14.1015,14.1406,14.1484,14.1484,14.1484,14.1484,14.1484,14.1484,14.1797,14.2304,14.1718,14.1797,14.2304,14.2304,14.2109,14.1797,14.0898,14.0781,14.1093,14.1718,14.1718,14.1601,14.2187,14.0703,13.8789,13.8515,13.6797,13.4883,13.4609,13.3984,13.3281,13.3281,13.2695,13.1797,13.0898,13.0312,12.9609,12.8789,12.8593,12.8593,12.8593,12.8593,12.8593,12.8593,12.8593,12.8281,12.7383,12.7812,12.75,12.5781,12.6797,12.6914,12.5,12.3984,12.3515,12.3515,12.3515,12.3515,12.3515,12.3515,12.3789,12.4297,12.539,12.5586,12.4804,12.5991,12.5603,12.3906,12.3186,12.249]}]]